[[{"header":{"parameterUnit":"m.s-1","parameterCategory":1,"la1":30.6,"la2":28.766,"lo1":-90.7593,"lo2":-88.6598,"dy":0.0162,"dx":0.0183,"nx":116,"ny":114,"refTime":"2023-06-29T12:00:00:Z","depth":0,"parameterNumber":2,"parameterNumberName":"U-component_of_WINDS"},"data":[0.0,0.0,0.0,0.0,0.0,0.0,0.0,0.0,0.0,0.0,0.0,0.0,0.0,0.0,0.0,0.0,0.0,0.0,0.0,0.0,0.0,0.0,0.0,0.0,0.0,0.0,0.0,0.0,0.0,0.0,0.0,0.0,0.0,0.0,0.0,0.0,0.0,0.0,0.0,0.0,0.0,0.0,0.0,0.0,0.0,0.0,0.0,0.0,0.0,0.0,0.0,0.0,0.0,0.0,0.0,0.0,0.0,0.0,0.0,0.0,0.0,0.0,0.0,0.0,0.0,0.0,0.0,0.0,0.0,0.0,0.0,0.0,0.0,0.0,0.0,0.0,0.0,0.0,0.0,0.0,0.0,0.0,0.0,0.0,0.0,0.0,0.0,0.0,0.0,0.0,0.0,0.0,0.0,0.0,0.0,0.0,0.0,0.0,0.0,0.0,0.0,0.0,0.0,0.0,0.0,0.0,0.0,0.0,0.0,0.0,0.0,0.0,0.0,0.0,0.0,0.0,0.0,0.0,0.0,0.0,0.0,0.0,0.0,0.0,0.0,0.0,0.0,0.0,0.0,0.0,0.0,0.0,0.0,0.0,0.0,0.0,0.0,0.0,0.0,0.0,0.0,0.0,0.0,0.0,0.0,0.0,0.0,0.0,0.0,0.0,0.0,0.0,0.0,0.0,0.0,0.0,0.0,0.0,0.0,0.0,0.0,0.0,0.0,0.0,0.0,0.0,0.0,0.0,0.0,0.0,0.0,0.0,0.0,0.0,0.0,0.0,0.0,0.0,0.0,0.0,0.0,0.0,0.0,0.0,0.0,0.0,0.0,0.0,0.0,0.0,0.0,0.0,0.0,0.0,0.0,0.0,0.0,0.0,0.0,0.0,0.0,0.0,0.0,0.0,0.0,0.0,0.0,0.0,0.0,0.0,0.0,0.0,0.0,0.0,0.0,0.0,0.0,0.0,0.0,0.0,0.0,0.0,0.0,0.0,0.0,0.0,0.0,0.0,0.0,0.0,0.0,0.0,0.0,0.0,0.0,0.0,0.0,0.0,0.0,0.0,0.0,0.0,0.0,0.0,0.0,0.0,0.0,0.0,0.0,0.0,0.0,0.0,0.0,0.0,0.0,0.0,0.0,0.0,0.0,0.0,0.0,0.0,0.0,0.0,0.0,0.0,0.0,0.0,0.0,0.0,0.0,0.0,0.0,0.0,0.0,0.0,0.0,0.0,0.0,0.0,0.0,0.0,0.0,0.0,0.0,0.0,0.0,0.0,0.0,0.0,0.0,0.0,0.0,0.0,0.0,0.0,0.0,0.0,0.0,0.0,0.0,0.0,0.0,0.0,0.0,0.0,0.0,0.0,0.0,0.0,0.0,0.0,0.0,0.0,0.0,0.0,0.0,0.0,0.0,0.0,0.0,0.0,0.0,0.0,0.0,0.0,0.0,0.0,0.0,0.0,0.0,0.0,0.0,0.0,0.0,0.0,0.0,0.0,0.0,0.0,0.0,0.0,0.0,0.0,0.0,0.0,0.0,0.0,0.0,0.0,0.0,0.0,0.0,0.0,0.0,0.0,0.0,0.0,0.0,0.0,0.0,0.0,0.0,0.0,0.0,0.0,0.0,0.0,0.0,0.0,0.0,0.0,0.0,0.0,0.0,0.0,0.0,0.0,0.0,0.0,0.0,0.0,0.0,0.0,0.0,0.0,0.0,0.0,0.0,0.0,0.0,0.0,0.0,0.0,0.0,0.0,0.0,0.0,0.0,0.0,0.0,0.0,0.0,0.0,0.0,0.0,0.0,0.0,0.0,0.0,0.0,0.0,0.0,0.0,0.0,0.0,0.0,0.0,0.0,0.0,0.0,0.0,0.0,0.0,0.0,0.0,0.0,0.0,0.0,0.0,0.0,0.0,0.0,0.0,0.0,0.0,0.0,0.0,0.0,0.0,0.0,0.0,0.0,0.0,0.0,0.0,0.0,0.0,0.0,0.0,0.0,0.0,0.0,0.0,0.0,0.0,0.0,0.0,0.0,0.0,0.0,0.0,0.0,0.0,0.0,0.0,0.0,0.0,0.0,0.0,0.0,0.0,0.0,0.0,0.0,0.0,0.0,0.0,0.0,0.0,0.0,0.0,0.0,0.0,0.0,0.0,0.0,0.0,0.0,0.0,0.0,0.0,0.0,0.0,0.0,0.0,0.0,0.0,0.0,0.0,0.0,0.0,0.0,0.0,0.0,0.0,0.0,0.0,0.0,0.0,0.0,0.0,0.0,0.0,0.0,0.0,0.0,0.0,0.0,0.0,0.0,0.0,0.0,0.0,0.0,0.0,0.0,0.0,0.0,0.0,0.0,0.0,0.0,0.0,0.0,0.0,0.0,0.0,0.0,0.0,0.0,0.0,0.0,0.0,0.0,0.0,0.0,0.0,0.0,0.0,0.0,0.0,0.0,0.0,0.0,0.0,0.0,0.0,0.0,0.0,0.0,0.0,0.0,0.0,0.0,0.0,0.0,0.0,0.0,0.0,0.0,0.0,0.0,0.0,0.0,0.0,0.0,0.0,0.0,0.0,0.0,0.0,0.0,0.0,0.0,0.0,0.0,0.0,0.0,0.0,0.0,0.0,0.0,0.0,0.0,0.0,0.0,0.0,0.0,0.0,0.0,0.0,0.0,0.0,0.0,0.0,0.0,0.0,0.0,0.0,0.0,0.0,0.0,0.0,0.0,0.0,0.0,0.0,0.0,0.0,0.0,0.0,0.0,0.0,0.0,0.0,0.0,0.0,0.0,0.0,0.0,0.0,0.0,0.0,0.0,0.0,0.0,0.0,0.0,0.0,0.0,0.0,0.0,0.0,0.0,0.0,0.0,0.0,0.0,0.0,0.0,0.0,0.0,0.0,0.0,0.0,0.0,0.0,0.0,0.0,0.0,0.0,0.0,0.0,0.0,0.0,0.0,0.0,0.0,0.0,0.0,0.0,0.0,0.0,0.0,0.0,0.0,0.0,0.0,0.0,0.0,0.0,0.0,0.0,0.0,0.0,0.0,0.0,0.0,0.0,0.0,0.0,0.0,0.0,0.0,0.0,0.0,0.0,0.0,0.0,0.0,0.0,0.0,0.0,0.0,0.0,0.0,0.0,0.0,0.0,0.0,0.0,0.0,0.0,0.0,0.0,0.0,0.0,0.0,0.0,0.0,0.0,0.0,0.0,0.0,0.0,0.0,0.0,0.0,0.0,0.0,0.0,0.0,0.0,0.0,0.0,0.0,0.0,0.0,0.0,0.0,0.0,0.0,0.0,0.0,0.0,0.0,0.0,0.0,0.0,0.0,0.0,0.0,0.0,0.0,0.0,0.0,0.0,0.0,0.0,0.0,0.0,0.0,0.0,0.0,0.0,0.0,0.0,0.0,0.0,0.0,0.0,0.0,0.0,0.0,0.0,0.0,0.0,0.0,0.0,0.0,0.0,0.0,0.0,0.0,0.0,0.0,0.0,0.0,0.0,0.0,0.0,0.0,0.0,0.0,0.0,0.0,0.0,0.0,0.0,0.0,0.0,0.0,0.0,0.0,0.0,0.0,0.0,0.0,0.0,0.0,0.0,0.0,0.0,0.0,0.0,0.0,0.0,0.0,0.0,0.0,0.0,0.0,0.0,0.0,0.0,0.0,0.0,0.0,0.0,0.0,0.0,0.0,0.0,0.0,0.0,0.0,0.0,0.0,0.0,0.0,0.0,0.0,0.0,0.0,0.0,0.0,0.0,0.0,0.0,0.0,0.0,0.0,0.0,0.0,0.0,0.0,0.0,0.0,0.0,0.0,0.0,0.0,0.0,0.0,0.0,0.0,0.0,0.0,0.0,0.0,0.0,0.0,0.0,0.0,0.0,0.0,0.0,0.0,0.0,0.0,0.0,0.0,0.0,0.0,0.0,0.0,0.0,0.0,0.0,0.0,0.0,0.0,0.0,0.0,0.0,0.0,0.0,0.0,0.0,0.0,0.0,0.0,0.0,0.0,0.0,0.0,0.0,0.0,0.0,0.0,0.0,0.0,0.0,0.0,0.0,0.0,0.0,0.0,0.0,0.0,0.0,0.0,0.0,0.0,0.0,0.0,0.0,0.0,0.0,0.0,0.0,0.0,0.0,0.0,0.0,0.0,0.0,0.0,0.0,0.0,0.0,0.0,0.0,0.0,0.0,0.0,0.0,0.0,0.0,0.0,0.0,0.0,0.0,0.0,0.0,0.0,0.0,0.0,0.0,0.0,0.0,0.0,0.0,0.0,0.0,0.0,0.0,0.0,0.0,0.0,0.0,0.0,0.0,0.0,0.0,0.0,0.0,0.0,0.0,0.0,0.0,0.0,0.0,0.0,0.0,0.0,0.0,0.0,0.0,0.0,0.0,0.0,0.0,0.0,0.0,0.0,0.0,0.0,0.0,0.0,0.0,0.0,0.0,0.0,0.0,0.0,0.0,0.0,0.0,0.0,0.0,0.0,0.0,0.0,0.0,0.0,0.0,0.0,0.0,0.0,0.0,0.0,0.0,0.0,0.0,0.0,0.0,0.0,0.0,0.0,0.0,0.0,0.0,0.0,0.0,0.0,0.0,0.0,0.0,0.0,0.0,0.0,0.0,0.0,0.0,0.0,0.0,0.0,0.0,0.0,0.0,0.0,0.0,0.0,0.0,0.0,0.0,0.0,0.0,0.0,0.0,0.0,0.0,0.0,0.0,0.0,0.0,0.0,0.0,0.0,0.0,0.0,0.0,0.0,0.0,0.0,0.0,0.0,0.0,0.0,0.0,0.0,0.0,0.0,0.0,0.0,0.0,0.0,0.0,0.0,0.0,0.0,0.0,0.0,0.0,0.0,0.0,0.0,0.0,0.0,0.0,0.0,0.0,0.0,0.0,0.0,0.0,0.0,0.0,0.0,0.0,0.0,0.0,0.0,0.0,0.0,0.0,0.0,0.0,0.0,0.0,0.0,0.0,0.0,0.0,0.0,0.0,0.0,0.0,0.0,0.0,0.0,0.0,0.0,0.0,0.0,0.0,0.0,0.0,0.0,0.0,0.0,0.0,0.0,0.0,0.0,0.0,0.0,0.0,0.0,0.0,0.0,0.0,0.0,0.0,0.0,0.0,0.0,0.0,0.0,0.0,0.0,0.0,0.0,0.0,0.0,0.0,0.0,0.0,0.0,0.0,0.0,0.0,0.0,0.0,0.0,0.0,0.0,0.0,0.0,0.0,0.0,0.0,0.0,0.0,0.0,0.0,0.0,0.0,0.0,0.0,0.0,0.0,0.0,0.0,0.0,0.0,0.0,0.0,0.0,0.0,0.0,0.0,0.0,0.0,0.0,0.0,0.0,0.0,0.0,0.0,0.0,0.0,0.0,0.0,0.0,0.0,0.0,0.0,0.0,0.0,0.0,0.0,0.0,0.0,0.0,0.0,0.0,0.0,0.0,0.0,0.0,0.0,0.0,0.0,0.0,0.0,0.0,0.0,0.0,0.0,0.0,0.0,0.0,0.0,0.0,0.0,0.0,0.0,0.0,0.0,0.0,0.0,0.0,0.0,0.0,0.0,0.0,0.0,0.0,0.0,0.0,0.0,0.0,0.0,0.0,0.0,0.0,0.0,0.0,0.0,0.0,0.0,0.0,0.0,0.0,0.0,0.0,0.0,0.0,0.0,0.0,0.0,0.0,0.0,0.0,0.0,0.0,0.0,0.0,0.0,0.0,0.0,0.0,0.0,0.0,0.0,0.0,0.0,0.0,0.0,0.0,0.0,0.0,0.0,0.0,0.0,0.0,0.0,0.0,0.0,0.0,0.0,0.0,0.0,0.0,0.0,0.0,0.0,0.0,0.0,0.0,0.0,0.0,0.0,0.0,0.0,0.0,0.0,0.0,0.0,0.0,0.0,0.0,0.0,0.0,0.0,0.0,0.0,0.0,0.0,0.0,0.0,0.0,0.0,0.0,0.0,0.0,0.0,0.0,0.0,0.0,0.0,0.0,0.0,0.0,0.0,0.0,0.0,0.0,0.0,0.0,0.0,0.0,0.0,0.0,0.0,0.0,0.0,0.0,0.0,0.0,0.0,0.0,0.0,0.0,0.0,0.0,0.0,-3.1227,0.0,0.0,0.0,0.0,0.0,0.0,0.0,0.0,0.0,0.0,0.0,0.0,0.0,0.0,0.0,0.0,0.0,0.0,0.0,0.0,0.0,0.0,0.0,0.0,0.0,0.0,0.0,0.0,0.0,0.0,0.0,0.0,0.0,0.0,0.0,0.0,0.0,0.0,0.0,-2.7257,-2.8657,-3.0667,-2.9397,-2.8817,-2.8853,0.0,0.0,0.0,0.0,0.0,0.0,0.0,0.0,0.0,0.0,0.0,0.0,0.0,0.0,0.0,0.0,0.0,0.0,0.0,0.0,0.0,0.0,0.0,0.0,0.0,0.0,0.0,0.0,0.0,0.0,0.0,0.0,0.0,0.0,0.0,0.0,0.0,0.0,0.0,0.0,0.0,0.0,0.0,0.0,0.0,0.0,0.0,0.0,0.0,0.0,0.0,0.0,0.0,0.0,0.0,0.0,0.0,0.0,0.0,0.0,0.0,0.0,0.0,0.0,0.0,0.0,0.0,0.0,0.0,0.0,0.0,-3.2215,0.0,0.0,0.0,0.0,0.0,0.0,0.0,0.0,0.0,0.0,0.0,0.0,0.0,0.0,0.0,0.0,0.0,0.0,0.0,0.0,0.0,0.0,0.0,0.0,0.0,0.0,0.0,0.0,0.0,0.0,0.0,0.0,0.0,0.0,0.0,0.0,0.0,-2.8195,-3.0197,-3.1838,-3.3086,-3.3541,-3.3402,-3.2737,-3.2081,0.0,0.0,0.0,0.0,0.0,0.0,0.0,0.0,0.0,0.0,0.0,0.0,0.0,0.0,0.0,0.0,0.0,0.0,0.0,0.0,0.0,0.0,0.0,0.0,0.0,0.0,0.0,0.0,0.0,0.0,0.0,0.0,0.0,0.0,0.0,0.0,0.0,0.0,0.0,0.0,0.0,0.0,0.0,0.0,0.0,0.0,0.0,0.0,0.0,0.0,0.0,0.0,0.0,0.0,0.0,0.0,0.0,0.0,0.0,0.0,0.0,0.0,0.0,0.0,0.0,-3.481,-3.4564,-3.5038,-3.6059,-3.5792,-3.6346,-3.7361,0.0,0.0,0.0,0.0,0.0,0.0,0.0,0.0,0.0,0.0,0.0,0.0,0.0,0.0,0.0,0.0,0.0,0.0,0.0,0.0,0.0,0.0,0.0,0.0,0.0,0.0,0.0,0.0,0.0,0.0,0.0,0.0,0.0,0.0,-2.7648,-2.8355,-2.9803,-3.3617,-3.5585,-3.5815,-3.73,-3.7899,-3.7642,-3.5002,-3.4201,-3.4783,0.0,0.0,0.0,0.0,0.0,0.0,0.0,0.0,0.0,0.0,0.0,0.0,0.0,0.0,0.0,0.0,0.0,0.0,0.0,0.0,0.0,0.0,0.0,0.0,0.0,0.0,0.0,0.0,0.0,0.0,0.0,0.0,0.0,0.0,0.0,0.0,0.0,0.0,0.0,0.0,0.0,-3.26,-3.2076,0.0,0.0,0.0,0.0,0.0,0.0,0.0,0.0,0.0,0.0,0.0,0.0,0.0,0.0,-3.667,-3.5397,-3.5569,-3.7144,-3.6517,-3.6753,-3.7733,-3.7183,-3.7288,-3.7919,-3.7348,0.0,-3.6038,-3.586,0.0,0.0,0.0,0.0,0.0,0.0,0.0,0.0,0.0,0.0,0.0,0.0,0.0,0.0,0.0,0.0,0.0,0.0,0.0,0.0,0.0,0.0,0.0,0.0,0.0,0.0,0.0,0.0,0.0,0.0,0.0,-2.7779,-2.851,-2.9372,-3.1218,-3.4084,-3.5912,-3.7263,-3.8167,-3.9022,-3.9406,-3.9319,-3.8113,-3.7198,-3.654,-3.6175,0.0,0.0,0.0,0.0,0.0,0.0,0.0,0.0,0.0,0.0,0.0,0.0,0.0,0.0,0.0,0.0,0.0,0.0,0.0,0.0,0.0,0.0,0.0,0.0,0.0,0.0,0.0,0.0,0.0,0.0,0.0,0.0,0.0,0.0,0.0,0.0,0.0,0.0,0.0,-3.1455,-3.2516,-3.2176,-3.2367,-3.2297,0.0,0.0,0.0,0.0,0.0,0.0,0.0,0.0,0.0,-3.5408,-3.5713,-3.6302,-3.7275,-3.6911,-3.6803,-3.692,-3.7294,-3.7589,-3.7793,-3.7517,-3.7735,-3.8294,-3.8023,-3.7657,-3.715,-3.6642,-3.649,-3.6518,0.0,0.0,0.0,0.0,0.0,0.0,0.0,0.0,0.0,0.0,0.0,0.0,0.0,0.0,0.0,0.0,0.0,0.0,0.0,0.0,0.0,-2.9949,0.0,0.0,0.0,0.0,0.0,0.0,0.0,-2.8646,-2.9382,-3.1307,-3.3919,-3.7208,-3.7619,-3.8533,-3.9908,-4.0064,-4.0239,-4.0458,-4.0648,-3.9785,-3.8195,-3.8112,-3.76,-3.672,0.0,0.0,0.0,0.0,0.0,0.0,0.0,0.0,0.0,0.0,0.0,0.0,0.0,0.0,0.0,0.0,0.0,0.0,0.0,0.0,0.0,0.0,0.0,0.0,0.0,0.0,0.0,0.0,0.0,0.0,0.0,0.0,0.0,0.0,0.0,0.0,0.0,-3.2255,-3.3241,-3.3113,-3.3657,-3.3622,0.0,0.0,0.0,0.0,0.0,0.0,-3.5038,-3.5848,-3.6278,-3.6155,-3.674,-3.7322,-3.7859,-3.8005,-3.7755,-3.7142,-3.8114,-3.8453,-3.8159,-3.8175,-3.8307,-3.857,-3.8395,-3.8408,-3.8509,-3.7614,-3.778,-3.8511,-3.7783,-3.7435,0.0,-3.7605,-3.7044,-3.6382,0.0,0.0,0.0,0.0,0.0,0.0,0.0,0.0,0.0,0.0,0.0,0.0,0.0,0.0,-3.2455,-3.2428,-3.2527,-3.1955,0.0,0.0,0.0,-2.9178,-2.9144,-2.9478,-3.0214,-3.3184,-3.5532,-3.7208,-3.8736,-3.9908,-4.0741,-4.0754,-4.1167,-4.1899,-4.2099,-4.1407,-4.0005,-3.9192,-3.881,-3.8611,-3.6834,0.0,0.0,0.0,0.0,0.0,0.0,0.0,0.0,0.0,0.0,0.0,0.0,0.0,0.0,0.0,0.0,0.0,0.0,0.0,0.0,0.0,0.0,0.0,0.0,0.0,0.0,0.0,0.0,0.0,0.0,0.0,0.0,0.0,0.0,0.0,0.0,0.0,0.0,-3.6149,-3.6333,0.0,0.0,0.0,0.0,-3.4407,-3.5534,-3.5852,-3.4973,-3.6694,-3.7588,-3.732,-3.7956,-3.8591,-3.9185,-3.8032,-3.8027,-3.9157,-3.9298,-3.9669,-4.0259,-4.0261,-3.9914,-3.9298,-3.868,-3.8744,-3.9296,-3.8541,-3.8112,-3.7943,-3.7886,-3.7679,-3.7501,-3.8407,-3.8668,-3.8679,0.0,0.0,0.0,0.0,0.0,0.0,0.0,0.0,0.0,0.0,0.0,0.0,0.0,-3.202,-3.4887,-3.484,-3.6222,-3.645,-3.4915,0.0,0.0,-3.1513,-3.0951,-3.1734,-3.398,-3.558,-3.7419,-3.9513,-4.009,-4.0778,-4.1573,-4.1573,-4.1723,-4.2004,-4.2071,-4.182,-4.1342,-4.1308,-4.096,-4.0397,-3.9786,-3.8822,0.0,0.0,0.0,0.0,0.0,0.0,0.0,0.0,0.0,0.0,0.0,0.0,0.0,0.0,0.0,0.0,0.0,0.0,0.0,0.0,0.0,0.0,0.0,0.0,0.0,0.0,0.0,0.0,0.0,0.0,0.0,0.0,0.0,0.0,0.0,0.0,0.0,-3.5695,-3.6669,0.0,0.0,-3.6523,-3.6787,-3.6596,-3.8052,-3.8588,-3.7832,-3.8866,-3.9237,-3.8681,-3.8888,-3.9076,-3.9306,-3.8857,-3.8643,-3.8724,-3.8756,-3.8885,-3.9093,-3.8659,-3.8805,-3.9377,-3.9156,-3.9188,-3.9361,-3.9117,-3.9449,-4.0079,-3.9198,-3.9317,-4.0022,-4.0351,-4.0238,-3.9964,0.0,0.0,0.0,0.0,0.0,0.0,0.0,0.0,0.0,0.0,0.0,-2.9346,-3.0378,-3.4585,-3.7305,-3.7281,-3.8703,-3.8726,-3.6668,0.0,0.0,-3.2015,-3.1893,-3.3457,-3.6845,-3.7395,-3.8813,-4.121,-4.121,-4.1642,-4.2436,-4.2436,-4.2586,-4.2849,-4.2849,-4.2849,-4.2857,-4.3123,-4.2612,-4.1622,-4.1456,-4.0644,-3.9399,0.0,0.0,0.0,0.0,0.0,0.0,0.0,0.0,0.0,0.0,0.0,0.0,0.0,0.0,0.0,0.0,0.0,0.0,0.0,0.0,0.0,0.0,0.0,0.0,0.0,0.0,0.0,0.0,0.0,0.0,0.0,0.0,0.0,0.0,0.0,-3.6462,-3.5678,-3.719,-3.7904,-3.6944,-3.7954,-3.8586,-3.8395,-3.9846,-4.0258,-3.9155,-4.0143,-4.0319,-3.9437,-3.9785,-4.0021,-3.998,-3.9998,-3.9801,-3.9421,-3.9918,-4.0003,-3.9748,-3.9562,-3.9819,-4.0421,-4.0155,-4.0189,-4.0405,-4.0438,-4.1231,-4.2261,-4.0209,-4.0085,-4.1107,-4.1324,-4.1152,-4.0876,0.0,0.0,0.0,0.0,0.0,0.0,0.0,0.0,0.0,0.0,-2.9886,-3.2589,-3.5663,-3.8217,-3.9677,-3.9602,-3.9589,-3.8301,-3.5266,-3.5027,0.0,-3.0636,-3.1967,-3.4582,-3.8444,-3.8584,-3.9729,-4.2042,-4.2042,-4.2492,-4.3332,-4.3332,-4.3745,-4.4501,-4.4501,-4.4501,-4.4501,-4.4501,-4.3685,-4.2318,-4.173,-4.1485,-4.1265,0.0,0.0,0.0,0.0,0.0,0.0,0.0,0.0,0.0,0.0,0.0,0.0,0.0,0.0,0.0,0.0,0.0,0.0,0.0,0.0,0.0,0.0,0.0,0.0,0.0,0.0,0.0,0.0,0.0,0.0,0.0,0.0,0.0,-3.5633,-3.6352,-3.6828,-3.6458,-3.8153,-3.8991,-3.8103,-3.9465,-4.0197,-3.9609,-4.073,-4.0615,-3.8752,-4.0409,-4.0869,-3.9624,-4.0763,-4.1401,-4.1352,-4.1361,-4.1422,-4.1422,-4.2838,-4.3122,-4.2421,-4.3192,-4.3122,-4.2385,-4.173,-4.1827,-4.2442,-4.252,-4.339,-4.4284,-4.0896,-4.0016,-4.0726,-4.1313,-4.1513,-4.1508,0.0,0.0,0.0,0.0,0.0,0.0,0.0,0.0,0.0,0.0,-3.034,-3.3219,-3.5727,-3.8214,-3.9677,-3.9602,-3.9589,-3.8764,-3.6802,0.0,-3.4369,-3.2932,-3.5429,-3.7637,-3.9258,-4.044,-4.1662,-4.2938,-4.2938,-4.3369,-4.4177,-4.4177,-4.4275,-4.4501,-4.4501,-4.4501,-4.4501,-4.4501,-4.4261,-4.3885,-4.386,-4.3521,-4.2875,0.0,0.0,0.0,0.0,0.0,0.0,0.0,0.0,0.0,0.0,0.0,0.0,0.0,0.0,0.0,0.0,0.0,0.0,0.0,0.0,0.0,0.0,0.0,0.0,0.0,0.0,0.0,0.0,0.0,0.0,0.0,0.0,-3.7092,-3.7137,-3.8012,-3.8805,-3.9215,-3.9753,-4.0183,-4.0409,-4.0854,-4.1052,-4.0901,-4.1692,-4.2203,-4.2187,-4.2169,-4.2503,-4.3309,-4.2081,-4.1635,-4.2186,-4.1662,-4.1422,-4.1407,-4.1805,-4.1901,-4.1693,-4.1901,-4.2145,-4.2406,-4.2802,-4.3087,-4.3333,-4.392,-4.4408,-4.4642,-4.3686,-4.3748,-4.4358,-4.4528,-4.4241,-4.3711,0.0,0.0,0.0,0.0,0.0,0.0,0.0,0.0,0.0,0.0,-3.1211,-3.3904,-3.719,-3.8837,-3.9677,-3.9602,-3.9011,-3.7984,-3.6442,0.0,-3.4524,-3.5723,-3.7524,-3.9326,-4.1124,-4.2068,-4.2956,-4.3801,-4.3801,-4.4045,-4.4501,-4.4501,-4.4501,-4.4501,-4.4501,-4.4501,-4.4501,-4.4501,-4.4501,-4.4515,-4.4635,-4.4436,-4.4004,-4.3142,-4.2451,-4.1774,-4.0453,-3.9977,-3.9746,-3.8461,0.0,0.0,0.0,0.0,0.0,0.0,0.0,0.0,0.0,0.0,0.0,0.0,0.0,0.0,0.0,0.0,0.0,0.0,0.0,0.0,0.0,0.0,0.0,0.0,-3.7626,-3.8698,-3.8863,-3.9373,-4.0028,-4.0729,-4.0812,-4.121,-4.2208,-4.2307,-4.2572,-4.3197,-4.3631,-4.3809,-4.3603,-4.3727,-4.3841,-4.3808,-4.3092,-4.2768,-4.2841,-4.2408,-4.2207,-4.2207,-4.2523,-4.2523,-4.2207,-4.2561,-4.2909,0.0,-4.3764,-4.3981,-4.4053,-4.4846,-4.5172,0.0,0.0,0.0,0.0,0.0,-4.5516,-4.5086,0.0,0.0,0.0,0.0,0.0,0.0,0.0,0.0,0.0,0.0,0.0,-3.4387,-3.9192,-3.9717,-3.9689,-3.9602,-3.8101,-3.6486,0.0,-3.3786,-3.4762,-3.8383,-3.8765,-4.0277,-4.3265,-4.3402,-4.3782,-4.4501,-4.4501,-4.4501,-4.4501,-4.4501,-4.4501,-4.4501,-4.4501,-4.4501,-4.4501,-4.4501,-4.4501,-4.4501,-4.4501,-4.4608,-4.4682,-4.3907,-4.3586,-4.3328,-4.16,-4.0933,-4.0705,-3.9704,0.0,0.0,0.0,0.0,0.0,0.0,0.0,0.0,0.0,0.0,0.0,0.0,0.0,0.0,0.0,0.0,0.0,0.0,0.0,0.0,0.0,0.0,0.0,0.0,-3.9313,-4.0796,-4.0707,-4.0752,-4.1006,-4.1591,-4.1645,-4.2237,-4.3698,-4.3847,-4.4406,-4.5698,-4.5801,-4.526,-4.4047,0.0,0.0,0.0,0.0,-4.4229,-4.3433,-4.3329,-4.329,-4.329,-4.4105,-4.4066,-4.3329,-4.422,-4.4601,-4.451,-4.4586,-4.4699,-4.4796,-4.5536,-4.5877,-4.5909,-4.5367,-4.5504,-4.603,-4.5947,-4.5914,0.0,0.0,0.0,0.0,0.0,0.0,0.0,0.0,0.0,0.0,-3.0555,-3.1647,-3.3832,-3.9116,-3.9804,-3.9789,-3.9614,-3.7544,-3.5606,-3.4043,-3.558,-3.7186,-3.8605,-4.0363,-4.1989,-4.3441,-4.3987,-4.4332,-4.4501,-4.4501,-4.4501,-4.4501,-4.4501,-4.4501,-4.4501,-4.4501,-4.4501,-4.4501,-4.4501,-4.4501,-4.4501,-4.4501,-4.4524,-4.4527,-4.4363,-4.4403,-4.4467,-4.4096,-4.408,-4.4041,-4.2677,-4.1753,-4.0965,-3.9606,-3.8503,0.0,0.0,0.0,0.0,0.0,0.0,0.0,0.0,0.0,0.0,0.0,0.0,0.0,0.0,0.0,0.0,0.0,0.0,0.0,-3.9074,-4.0175,-4.1318,-4.2362,-4.2939,-4.3211,-4.3181,-4.3168,-4.3731,-4.5235,-4.5367,-4.5483,-4.5765,-4.5734,-4.5897,-4.6225,-4.5911,0.0,-4.5959,-4.5002,-4.4463,-4.4259,-4.363,-4.329,-4.329,0.0,0.0,-4.3369,-4.4812,-4.511,-4.4548,-4.5184,-4.5789,-4.6378,-4.6534,-4.6981,-4.7538,-4.7408,-4.7473,-4.7504,-4.6908,-4.6676,-4.6593,0.0,0.0,0.0,0.0,0.0,0.0,0.0,0.0,0.0,0.0,-2.941,-3.1515,-3.6283,-3.6863,-3.6833,-3.6661,-3.5608,-3.4821,-3.4473,-3.673,-3.8805,-4.0394,-4.1858,-4.3058,-4.3984,-4.4317,-4.4501,-4.4501,-4.4501,-4.4501,-4.4501,-4.4501,-4.4501,-4.4501,-4.4501,-4.4501,-4.4501,-4.4501,-4.4501,-4.4501,-4.4501,-4.4501,-4.4501,-4.4501,-4.456,-4.4642,-4.4642,-4.4732,-4.4732,-4.3995,-4.3487,-4.3015,-4.2214,-4.1153,-3.9836,0.0,0.0,0.0,0.0,0.0,0.0,0.0,0.0,0.0,0.0,0.0,0.0,0.0,0.0,-3.6929,0.0,0.0,-3.9373,-4.0678,-4.1574,-4.2421,-4.3308,-4.4081,-4.446,-4.4188,-4.4489,-4.5135,-4.6245,-4.6344,-4.6493,-4.6874,-4.6865,-4.6681,-4.6309,-4.6649,-4.6304,-4.5079,-4.5385,-4.5209,-4.4428,-4.4339,-4.4504,-4.4968,-4.4929,-4.5151,-4.5588,-4.5526,-4.5972,-4.6729,-4.6708,-4.7148,-4.7883,-4.7491,-4.7375,-4.7454,-4.7853,-4.8001,-4.7968,-4.7587,-4.7454,-4.7404,0.0,0.0,0.0,0.0,0.0,0.0,0.0,0.0,0.0,0.0,-2.7311,-2.9371,-3.3456,-3.3906,-3.359,0.0,0.0,-3.4473,-3.4674,-3.7538,-4.013,-4.2188,-4.2982,-4.3764,-4.46,-4.4584,-4.4551,-4.4578,-4.4528,-4.4515,-4.4542,-4.4515,-4.4501,-4.4501,-4.4501,-4.4501,-4.4501,-4.4501,-4.4501,-4.4501,-4.4501,-4.4501,-4.4501,-4.4501,-4.4501,-4.4501,-4.4501,-4.4501,-4.4501,-4.4501,-4.4501,-4.4501,-4.4501,-4.3681,-4.23,-4.0092,-3.9541,0.0,0.0,0.0,0.0,0.0,0.0,0.0,0.0,0.0,-3.5439,-3.6693,-3.7461,-3.832,-3.9713,-4.0022,-4.0558,-4.2088,-4.2985,-4.3614,-4.4085,-4.4996,-4.5501,-4.518,-4.5649,-4.6295,-4.704,-4.7106,-4.7355,-4.7968,-4.8001,-4.752,-4.6406,-4.738,-4.6878,-4.4471,-4.5879,-4.6021,-4.478,-4.5307,-4.5808,-4.6343,-4.6142,-4.6526,-4.737,-4.6606,-4.7161,-4.8736,-4.8333,-4.848,-4.8956,-4.8527,-4.7993,-4.7525,-4.8166,-4.8349,-4.8199,-4.805,-4.8001,-4.8001,0.0,0.0,0.0,0.0,0.0,0.0,0.0,0.0,0.0,0.0,0.0,0.0,0.0,0.0,0.0,0.0,-3.3503,-3.52,-3.3032,-3.7995,-4.1476,-4.252,-4.3262,-4.4085,-4.5007,-4.4796,-4.4738,-4.4865,-4.4619,-4.4551,-4.4685,-4.457,-4.4501,-4.4501,-4.4501,-4.4501,-4.4501,-4.4501,-4.4501,-4.4501,-4.4501,-4.4501,-4.4501,-4.4501,-4.4501,-4.4501,-4.4501,-4.4501,-4.4501,-4.4501,-4.4501,-4.4501,-4.4501,-4.4398,-4.3599,-4.0292,-3.9315,-3.8581,-3.5066,-3.4842,-3.5966,-3.7605,-3.6759,-3.6415,0.0,0.0,-3.7634,-3.9311,-4.0231,-4.0805,-4.1,-4.1557,-4.2267,-4.3111,-4.3916,-4.4592,-4.4984,-4.626,-4.7037,-4.6674,-4.6725,-4.7073,-4.7819,-4.7885,-4.7918,-4.8001,-4.8001,-4.8216,-4.8693,-4.8148,-4.7971,-4.8333,-4.7175,-4.6458,-4.6355,-4.6432,-4.6117,-4.5481,-4.7568,-4.7529,-4.5671,-4.8402,-4.9001,-4.7908,-4.9319,-4.9567,-4.904,-4.9692,-4.9885,-4.9819,-4.9921,-4.9558,-4.8912,-4.8249,-4.8001,-4.8001,0.0,0.0,0.0,0.0,0.0,0.0,0.0,0.0,0.0,0.0,0.0,0.0,0.0,0.0,0.0,-2.9104,-3.2716,-3.4802,-3.422,-3.8652,-4.1696,-4.2572,-4.3278,-4.4047,-4.496,-4.487,-4.4815,-4.477,-4.4672,-4.4605,-4.4578,-4.4605,-4.4619,-4.4619,-4.4699,-4.4719,-4.4738,-4.4646,-4.4659,-4.4738,-4.4646,-4.4619,-4.4619,-4.4619,-4.4565,-4.4398,-4.3669,-4.3077,0.0,-4.3226,-4.3058,-4.2864,-4.4107,-4.3789,-4.2498,-4.0018,-3.9295,-3.914,-3.8376,-3.7666,-3.7583,0.0,-3.9199,-3.8953,-4.0307,-3.9876,-3.9574,-4.0869,-4.152,-4.1965,-4.2405,-4.2743,-4.3335,0.0,-4.4924,-4.5387,-4.6354,-4.6917,-4.7295,-4.752,-4.7537,-4.7653,-4.7968,-4.8001,-4.8183,-4.8614,-4.8647,-4.8777,-4.9024,-4.9124,-4.8709,-4.7659,-4.7707,-4.7351,-4.644,-4.6792,-4.7317,-4.7923,-4.8482,-4.899,-4.9451,-4.9807,-4.9861,-4.9732,-5.0968,-5.1057,-5.0366,-5.0696,-5.0585,-5.022,-5.022,-5.0021,-4.9657,-4.8912,-4.8365,-4.8001,0.0,0.0,0.0,0.0,0.0,0.0,0.0,0.0,0.0,0.0,0.0,0.0,0.0,0.0,0.0,-2.8401,-3.1264,-3.352,-3.4511,-3.8402,-4.1261,-4.2603,-4.3327,-4.4117,-4.4984,-4.4967,-4.4938,-4.4877,-4.4783,-4.4719,-4.4672,-4.4699,-4.4712,-4.4712,-4.4757,-4.4783,-4.4802,-4.4738,-4.4719,-4.477,-4.4719,-4.4685,-4.4646,-4.4646,-4.4373,-4.3862,-4.2939,-4.2171,-4.1662,-4.1905,-4.1549,-4.122,-4.2721,-4.2269,-4.0871,-3.9071,-3.8174,-3.8094,-3.962,-3.9254,0.0,-4.0309,-4.0905,-4.1035,-4.0775,-4.0764,-4.1043,-4.1856,-4.2338,-4.2777,-4.3291,-4.3589,-4.4164,-4.55,-4.5693,-4.6118,-4.729,-4.7437,-4.7564,-4.8,-4.8033,-4.8001,-4.8001,-4.8183,-4.8531,-4.9061,-4.9293,-4.9452,-4.9619,-4.972,-4.9281,-4.822,-4.8498,-4.8329,-4.7604,-4.8094,-4.8723,-4.9463,-4.9599,-5.0245,-5.1306,-5.0538,-5.0615,-5.1508,-5.2142,-5.2111,-5.1614,-5.1614,-5.128,-5.0817,-5.0817,-5.0684,-5.0436,-4.9906,-4.911,-4.8299,0.0,0.0,0.0,0.0,0.0,0.0,0.0,0.0,0.0,0.0,0.0,0.0,0.0,0.0,0.0,-2.6679,-2.9036,-3.1155,-3.267,-3.6731,-4.0175,-4.2679,-4.3567,-4.4407,-4.5277,-4.5159,-4.5159,-4.5286,-4.5014,-4.4955,-4.508,-4.4808,-4.4712,-4.468,-4.4565,-4.4515,-4.4528,-4.4646,-4.4632,-4.451,-4.4646,-4.4619,-4.4515,-4.4515,-4.3739,-4.2644,-4.261,-4.2545,-4.2253,-4.0915,-4.0328,-4.0113,-3.9911,-3.9726,-3.9167,-3.7158,-3.5295,-3.4358,-3.6679,0.0,-3.8698,-4.0309,-4.1413,-4.2213,-4.2479,-4.2189,-4.1923,-4.2215,-4.2861,-4.3358,-4.3392,-4.4045,-4.479,-4.5585,-4.6115,-4.6733,-4.7494,-4.7935,-4.8162,-4.8195,-4.8082,-4.8001,0.0,-4.8647,-4.9077,-4.911,-4.9773,-5.0485,-5.1197,-4.9673,-4.9828,-5.2167,-4.9868,-4.9367,-5.0919,-5.0989,-5.019,-4.8697,-5.1102,-5.1027,-4.8764,-5.0361,-5.1545,-5.2373,-5.239,-5.2409,-5.2393,-5.2393,-5.2359,-5.2307,-5.2307,-5.1912,-5.1265,-5.1249,-5.0303,-4.9077,0.0,0.0,0.0,0.0,0.0,0.0,0.0,0.0,0.0,0.0,0.0,0.0,0.0,0.0,0.0,0.0,-3.0288,-3.2276,-3.2811,-3.62,-3.8826,-4.0213,-4.2154,-4.3596,-4.4418,-4.4959,-4.5203,-4.517,-4.508,-4.5003,-4.4955,-4.4974,-4.4974,-4.4955,-4.5003,-4.5026,-4.5033,-4.4979,-4.4979,-4.5033,-4.4979,-4.4931,-4.4814,-4.3954,-4.296,-4.1779,0.0,-3.9187,-3.8923,-3.8528,-3.8165,-3.8046,-3.9311,-3.907,-3.8,-3.6489,-3.6038,-3.6406,-3.8197,0.0,-4.0394,-4.2436,-4.321,-4.3604,-4.4253,-4.4422,-4.4349,-4.4066,-4.3812,-4.3729,-4.3839,-4.4085,-4.4656,-4.5917,-4.6723,-4.7507,-4.8281,-4.8396,-4.8356,-4.8227,-4.8163,0.0,0.0,0.0,0.0,-4.9806,-5.0502,-5.1003,-5.1153,-5.1169,-5.1009,-5.0691,-5.0384,-5.001,-4.9439,-4.9994,-4.9702,-4.8599,-5.0592,-5.138,-5.114,-5.1709,-5.2142,-5.2409,-5.2409,-5.2409,-5.2409,-5.2409,-5.2409,-5.2409,-5.2409,-5.226,-5.2045,-5.2045,-5.1431,-5.0469,0.0,0.0,0.0,0.0,0.0,0.0,0.0,0.0,0.0,0.0,0.0,0.0,0.0,0.0,0.0,0.0,0.0,0.0,-3.1975,-3.4541,-3.6687,-3.8076,-3.9715,-4.095,-4.1772,-4.2326,-4.2574,-4.2453,-4.3389,-4.3784,-4.3715,-4.4673,-4.5103,-4.5103,-4.5148,-4.5159,-4.5159,-4.5114,-4.4558,-4.3707,-4.3954,-4.3583,-4.2831,-4.197,-4.1119,0.0,-3.7721,-3.6524,-3.6062,-3.6079,-3.5946,-3.5973,-3.7164,-3.7079,-3.6555,-3.659,-3.6767,-3.741,-3.9606,-4.0595,-4.1558,-4.3597,-4.4313,-4.469,-4.5305,-4.557,-4.5627,-4.538,-4.4766,-4.4302,-4.4429,-4.4321,-4.4524,-4.5644,-4.629,-4.7018,-4.8152,-4.8098,-4.8023,-4.829,-4.8227,0.0,0.0,0.0,0.0,-5.0535,-5.1264,-5.1647,-5.1565,-5.1782,-5.1582,-5.0767,-5.0989,-5.0723,-4.9955,-5.0461,-5.029,-4.9519,-5.0608,-5.138,-5.1944,-5.2266,-5.2409,-5.2409,-5.2409,-5.2409,-5.2409,-5.2409,-5.2409,-5.2409,-5.2409,-5.2409,-5.2409,-5.2409,-5.2111,-5.1597,0.0,0.0,0.0,0.0,0.0,0.0,0.0,0.0,0.0,0.0,0.0,0.0,0.0,0.0,0.0,0.0,0.0,0.0,-3.0161,-3.184,-3.3841,-3.6247,-3.6477,-3.6913,-3.7725,-3.7778,-3.7761,-3.7693,-4.0185,-4.137,-4.1361,-4.3653,-4.4703,-4.4722,-4.4576,-4.4516,-4.4528,-4.4646,-4.3114,-4.0678,-4.1512,-4.0682,-3.8934,-3.8736,-3.8339,-3.7671,-3.5918,-3.4694,-3.3864,-3.3696,-3.3889,-3.4147,-3.3978,-3.4299,-3.5177,-3.7451,-3.7465,-3.7486,-4.0764,-4.1729,-4.2195,-4.3832,-4.4802,-4.5423,-4.5716,-4.5806,-4.5846,-4.6031,-4.5528,-4.503,0.0,0.0,-4.4447,-4.4957,-4.5043,-4.5604,-4.7242,-4.7195,-4.7366,0.0,0.0,0.0,0.0,0.0,0.0,-5.1315,0.0,-5.2373,-5.2338,-5.1582,-5.1508,-5.2302,-5.1582,-5.1545,-5.2338,-5.2302,-5.1908,-5.1156,-5.1118,-5.1118,-5.1194,-5.2017,-5.2409,-5.2409,-5.2409,-5.2409,-5.2409,-5.2409,-5.2409,-5.2409,-5.2409,-5.2409,-5.2409,-5.2409,-5.2409,-5.231,0.0,0.0,0.0,0.0,0.0,0.0,0.0,0.0,0.0,0.0,0.0,0.0,0.0,0.0,0.0,0.0,0.0,0.0,-2.8515,-3.0113,-3.1578,-3.282,-3.4695,-3.6052,-3.6826,-3.7472,-3.7761,-3.7693,-3.8363,-3.8688,-3.8679,-3.9261,-3.9479,-3.9439,-3.9397,-3.9355,-3.9304,-3.9234,-3.8801,-3.8128,-3.826,-3.8355,-3.8297,-3.7202,-3.6637,-3.622,-3.4564,-3.3281,-3.24,-3.2755,-3.3993,0.0,-3.7507,-3.8118,-3.8338,-3.935,-3.9952,-4.0617,-4.2079,-4.2998,-4.3862,-4.5486,-4.6051,-4.6354,-4.7045,-4.7183,-4.69,-4.5937,-4.5,-4.4204,0.0,0.0,0.0,-4.5407,-4.6458,0.0,-4.8456,-4.8435,0.0,-4.8498,0.0,-4.9277,-4.9856,-5.0585,0.0,0.0,-5.231,-5.2106,-5.1471,-5.1835,-5.1871,-5.1434,-5.1871,-5.1855,-5.1434,-5.0783,-5.1011,-5.2069,-5.1397,-5.1434,-5.2069,-5.2302,-5.2409,-5.2409,-5.2409,-5.2409,-5.2409,-5.2409,-5.2409,-5.2409,-5.2409,-5.2409,-5.2409,-5.2409,-5.2409,-5.2393,0.0,0.0,0.0,0.0,0.0,0.0,0.0,0.0,0.0,0.0,0.0,0.0,0.0,0.0,0.0,0.0,0.0,0.0,0.0,-2.8573,-2.9503,-2.9954,-3.1359,-3.2295,-3.2661,-3.3544,-3.3937,-3.3834,-3.5335,-3.6054,-3.6011,-3.7108,-3.7595,-3.749,-3.7508,-3.7469,-3.739,-3.7259,-3.6521,0.0,0.0,-3.5713,-3.5552,-3.4659,-3.4643,-3.4916,-3.3491,-3.2965,-3.3092,0.0,0.0,-3.7008,-3.8922,-3.9416,-3.9467,-4.0504,0.0,-4.1731,-4.3027,-4.3996,-4.4928,-4.6196,-4.6776,-4.6964,-4.6744,-4.6697,-4.6378,-4.5291,-4.4371,0.0,-4.3685,0.0,0.0,0.0,0.0,0.0,-4.8144,-4.8171,-4.8243,0.0,-4.9023,0.0,-5.0359,-5.0953,-5.1614,0.0,-5.2445,-5.2178,-5.1709,-5.2142,-5.2178,-5.1672,-5.2142,-5.2178,-5.1672,-5.1177,-5.1252,-5.1818,-5.1709,-5.1745,-5.1818,-5.223,-5.2409,-5.2409,0.0,-5.2409,-5.2409,-5.2409,-5.2409,-5.2409,-5.2409,-5.2409,-5.2409,-5.2409,-5.2409,-5.2409,0.0,0.0,0.0,0.0,0.0,0.0,0.0,0.0,0.0,0.0,0.0,0.0,0.0,0.0,0.0,0.0,0.0,0.0,0.0,0.0,0.0,-2.7715,-2.7738,-2.7745,-2.7796,-2.8545,-2.8919,-2.8904,-3.1854,-3.3314,-3.335,-3.5612,-3.6595,-3.6473,-3.6453,-3.6404,-3.6326,-3.6174,-3.4778,-3.2695,-3.3178,-3.2831,-3.2042,0.0,-3.2616,-3.3603,-3.2563,-3.314,-3.4642,0.0,-3.7429,-3.8313,-3.9494,-3.9726,-3.9893,-4.1353,-4.1658,-4.1903,-4.3754,-4.4765,-4.5526,-4.6432,-4.7192,-4.7295,-4.5766,-4.5501,-4.5329,-4.4433,0.0,-4.3606,-4.4125,-4.4117,-4.4156,-4.4514,0.0,-4.5848,-4.727,-4.7448,-4.7766,-4.8671,-4.9188,-4.9809,-5.0577,-5.1157,-5.1783,-5.2539,-5.248,-5.2409,-5.2409,-5.2409,-5.2409,-5.2409,-5.2409,-5.2409,-5.2409,-5.2409,-5.2017,-5.1268,-5.2017,-5.198,-5.1322,-5.2069,-5.2409,-5.2409,0.0,0.0,-5.2409,-5.2409,-5.2409,-5.2409,-5.2409,-5.2409,-5.2409,-5.2409,-5.2409,-5.2409,0.0,0.0,0.0,0.0,0.0,0.0,0.0,0.0,0.0,0.0,0.0,0.0,0.0,0.0,0.0,0.0,0.0,0.0,0.0,0.0,0.0,0.0,-2.6834,-2.7126,-2.7792,0.0,0.0,0.0,0.0,-3.003,-3.0668,-3.1073,-3.1204,-3.1136,-3.1026,-3.0902,-3.0783,-3.0528,-3.0141,-2.9722,-2.96,-2.9839,-3.0292,-3.0636,0.0,0.0,-3.1703,-3.2789,-3.4584,-3.6378,-3.8169,-3.9935,-4.1722,-4.2266,-4.2302,-4.2581,-4.2637,-4.2981,-4.4635,-4.5182,-4.5653,-4.712,-4.7609,-4.7334,-4.5891,-4.6054,0.0,0.0,-4.3885,-4.4024,-4.3423,-4.3535,-4.3966,-4.4787,0.0,0.0,0.0,0.0,-4.8524,0.0,0.0,0.0,0.0,0.0,0.0,0.0,0.0,0.0,-5.2409,-5.2409,-5.2409,-5.2409,-5.2409,-5.2409,-5.2409,-5.2409,-5.2338,-5.2178,-5.2338,-5.2338,-5.2178,-5.2338,-5.2409,-5.2409,0.0,0.0,-5.2409,-5.2409,-5.2409,-5.2409,-5.2409,-5.2409,-5.2409,-5.2409,-5.2409,-5.2409,0.0,0.0,0.0,0.0,0.0,0.0,0.0,0.0,0.0,0.0,0.0,0.0,0.0,0.0,0.0,0.0,0.0,0.0,0.0,0.0,0.0,0.0,0.0,0.0,0.0,0.0,0.0,0.0,0.0,0.0,0.0,0.0,0.0,0.0,0.0,0.0,-2.9332,-2.91,-2.9005,-2.8982,-2.87,-2.9057,0.0,0.0,0.0,0.0,0.0,-3.2638,-3.4436,-3.5379,-3.7613,-4.0359,-4.2412,-4.2976,-4.2901,-4.2994,-4.2938,-4.3173,-4.4349,-4.4983,-4.5599,-4.6794,-4.7391,-4.7104,-4.491,0.0,0.0,0.0,-4.2756,-4.3186,-4.3122,-4.3372,0.0,0.0,0.0,0.0,0.0,0.0,0.0,0.0,0.0,0.0,0.0,0.0,0.0,0.0,0.0,0.0,0.0,-5.2409,-5.2409,-5.2409,-5.2409,-5.2409,-5.2409,-5.2409,-5.2409,-5.2409,-5.2409,-5.2409,-5.2409,-5.2409,-5.2409,-5.2409,0.0,0.0,-5.2409,-5.2409,-5.2409,-5.2409,-5.2409,-5.2409,-5.2409,-5.2409,-5.2409,-5.2409,0.0,0.0,0.0,0.0,0.0,0.0,0.0,0.0,0.0,0.0,0.0,0.0,0.0,0.0,0.0,0.0,0.0,0.0,0.0,0.0,0.0,0.0,0.0,0.0,0.0,0.0,0.0,0.0,0.0,0.0,0.0,0.0,0.0,0.0,0.0,0.0,0.0,0.0,-2.8959,0.0,0.0,0.0,0.0,0.0,0.0,0.0,0.0,0.0,-3.3662,-3.4311,-3.6464,-3.9208,-4.1499,-4.2297,-4.2402,-4.2515,-4.2478,-4.2638,-4.3785,-4.4548,-4.5236,-4.6051,-4.6721,-4.6464,-4.3675,-4.3714,0.0,0.0,-4.1789,-4.2504,-4.3075,-4.3372,-4.3891,0.0,-4.5868,-4.6864,0.0,0.0,0.0,0.0,0.0,0.0,0.0,0.0,0.0,0.0,0.0,0.0,0.0,-5.2409,-5.2409,-5.2445,-5.2409,-5.2409,-5.2445,-5.2409,-5.2409,-5.2409,-5.2409,-5.2409,-5.2409,-5.2409,-5.2409,-5.2409,0.0,0.0,0.0,-5.2409,-5.2409,-5.2409,-5.2409,-5.2409,-5.2409,-5.2409,-5.2409,-5.2409,0.0,0.0,0.0,0.0,0.0,0.0,0.0,0.0,0.0,0.0,0.0,0.0,0.0,0.0,0.0,0.0,0.0,0.0,0.0,0.0,0.0,0.0,0.0,0.0,0.0,0.0,0.0,0.0,0.0,0.0,0.0,0.0,0.0,0.0,0.0,0.0,0.0,0.0,0.0,0.0,0.0,0.0,0.0,0.0,0.0,0.0,0.0,0.0,0.0,0.0,0.0,-3.5467,-3.8167,-3.9792,-4.0716,-4.0754,0.0,0.0,-4.3487,-4.415,-4.4403,-4.52,-4.5472,-4.4931,-4.2719,0.0,-4.364,-4.1637,-4.2167,-4.3092,-4.3325,-4.3402,-4.3726,-4.4594,-4.5521,-4.65,0.0,0.0,0.0,0.0,0.0,0.0,0.0,0.0,0.0,0.0,0.0,0.0,0.0,-5.2409,-5.2445,-5.257,-5.248,-5.248,-5.257,-5.248,-5.2409,-5.2409,-5.2409,-5.2409,-5.2409,-5.2409,-5.2409,-5.2409,0.0,0.0,0.0,-5.2409,-5.2409,-5.2409,-5.2409,-5.2409,-5.2409,-5.2409,-5.2409,-5.2409,0.0,0.0,0.0,0.0,0.0,0.0,0.0,0.0,0.0,0.0,0.0,0.0,0.0,0.0,0.0,0.0,0.0,0.0,0.0,0.0,0.0,0.0,0.0,0.0,0.0,0.0,0.0,0.0,0.0,0.0,0.0,0.0,0.0,0.0,0.0,0.0,0.0,0.0,0.0,0.0,0.0,0.0,0.0,0.0,0.0,0.0,0.0,0.0,0.0,0.0,0.0,0.0,-3.5409,-3.6602,0.0,0.0,-4.0341,-4.0795,-4.2157,-4.3102,-4.3753,-4.4076,-4.4196,-4.3845,-4.241,0.0,-4.3182,-4.1524,-4.2321,-4.3312,-4.3372,-4.3402,-4.3751,-4.4889,-4.5647,0.0,-4.7185,0.0,0.0,0.0,0.0,0.0,0.0,0.0,0.0,0.0,0.0,0.0,0.0,0.0,-5.2676,-5.2589,-5.257,-5.2535,-5.2589,-5.248,-5.2409,-5.2409,-5.2409,-5.2409,-5.2409,-5.2409,-5.2409,0.0,0.0,0.0,0.0,-5.2409,-5.2409,-5.2409,-5.2409,-5.2409,-5.2409,-5.2409,-5.2409,-5.2409,0.0,0.0,0.0,0.0,0.0,0.0,0.0,0.0,0.0,0.0,0.0,0.0,0.0,0.0,0.0,0.0,0.0,0.0,0.0,0.0,0.0,0.0,0.0,0.0,0.0,0.0,0.0,0.0,0.0,0.0,0.0,0.0,0.0,0.0,0.0,0.0,0.0,0.0,0.0,0.0,0.0,0.0,0.0,0.0,0.0,0.0,0.0,0.0,0.0,0.0,0.0,0.0,-3.3727,-3.4401,-3.5719,0.0,-3.9131,-3.98,-4.0731,-4.1907,-4.2829,-4.2829,-4.2846,-4.2631,0.0,0.0,-4.2284,-4.112,-4.1844,-4.2782,-4.3086,-4.3089,-4.3603,-4.5172,-4.5767,-4.6281,-4.6997,-4.7847,0.0,0.0,0.0,0.0,0.0,0.0,0.0,0.0,0.0,0.0,0.0,0.0,-5.292,-5.2589,-5.2589,-5.2589,-5.2589,-5.248,-5.2409,-5.2409,-5.2445,-5.2445,-5.2409,-5.2445,-5.2445,0.0,0.0,0.0,0.0,-5.2409,-5.2409,-5.2409,-5.2409,-5.2409,-5.2409,-5.2409,-5.2409,-5.2409,0.0,0.0,0.0,0.0,0.0,0.0,0.0,0.0,0.0,0.0,0.0,0.0,0.0,0.0,0.0,0.0,0.0,0.0,0.0,0.0,0.0,0.0,0.0,0.0,0.0,0.0,0.0,-2.9904,-2.9771,0.0,0.0,0.0,0.0,0.0,0.0,0.0,0.0,0.0,0.0,0.0,0.0,0.0,0.0,0.0,0.0,0.0,0.0,0.0,0.0,0.0,0.0,0.0,0.0,-3.371,-3.4002,-3.5358,-3.6545,-3.7773,-3.9387,-4.0669,-4.1521,-4.1521,-4.141,-4.1139,0.0,-4.0637,-4.0867,-4.0222,-4.0611,-4.132,-4.2315,-4.2406,-4.3072,-4.5402,-4.5798,-4.6125,-4.7078,0.0,0.0,0.0,0.0,0.0,0.0,0.0,0.0,0.0,0.0,0.0,0.0,0.0,-5.3212,-5.2624,-5.2589,-5.2589,-5.2589,-5.248,-5.2409,-5.2409,-5.2535,-5.2535,-5.2409,-5.2535,0.0,0.0,0.0,0.0,0.0,-5.2409,-5.2409,-5.2409,-5.2409,-5.2409,-5.2409,-5.2409,-5.2409,-5.2409,0.0,0.0,0.0,0.0,0.0,0.0,0.0,0.0,0.0,0.0,0.0,0.0,0.0,0.0,0.0,0.0,0.0,0.0,0.0,0.0,0.0,0.0,0.0,0.0,0.0,0.0,-2.9883,-2.9834,-2.9735,-2.969,0.0,0.0,0.0,0.0,0.0,0.0,0.0,0.0,0.0,0.0,0.0,0.0,0.0,0.0,0.0,0.0,0.0,0.0,0.0,0.0,0.0,0.0,0.0,0.0,0.0,-3.4226,-3.5292,-3.6577,-3.755,-3.8826,-3.9864,-3.9864,-3.991,-3.9969,-4.0053,-4.0232,-4.0326,-4.0138,-4.0732,-4.1366,-4.1695,-4.1716,-4.2427,-4.4688,-4.4638,-4.4846,0.0,0.0,0.0,0.0,0.0,0.0,0.0,0.0,0.0,0.0,0.0,0.0,0.0,0.0,0.0,-5.2799,-5.2799,-5.2799,-5.2799,-5.2551,-5.2409,-5.2409,-5.2535,-5.257,-5.2535,0.0,0.0,0.0,0.0,0.0,0.0,-5.2409,-5.2409,-5.2409,-5.2409,-5.2409,-5.2409,-5.2409,-5.2409,-5.2409,0.0,0.0,0.0,0.0,0.0,0.0,0.0,0.0,0.0,0.0,0.0,0.0,0.0,0.0,0.0,0.0,0.0,0.0,0.0,0.0,0.0,0.0,0.0,0.0,0.0,-2.9136,-2.9504,-2.9755,-2.9673,-2.9617,-2.9598,-2.952,-2.9411,0.0,0.0,0.0,0.0,0.0,0.0,0.0,0.0,0.0,-2.7889,0.0,0.0,0.0,0.0,0.0,0.0,0.0,0.0,0.0,0.0,0.0,0.0,0.0,-3.436,-3.5317,-3.6122,-3.7511,-3.8763,-3.8813,-3.8865,0.0,-3.9328,-3.9385,-3.9374,-3.9374,-4.0034,-4.0724,-4.1045,-4.1055,-4.1851,-4.4471,-4.4228,0.0,0.0,0.0,0.0,0.0,0.0,0.0,0.0,0.0,0.0,0.0,0.0,0.0,0.0,0.0,0.0,-5.3007,-5.3007,-5.2972,-5.2903,-5.2676,-5.2587,-5.2587,-5.2659,-5.2694,-5.2729,0.0,0.0,0.0,0.0,0.0,0.0,-5.2516,-5.248,-5.248,-5.2409,-5.2409,-5.2409,-5.2409,-5.2409,-5.2409,0.0,0.0,0.0,0.0,0.0,0.0,0.0,0.0,0.0,0.0,0.0,0.0,0.0,0.0,0.0,0.0,0.0,0.0,0.0,0.0,0.0,0.0,0.0,0.0,0.0,-2.85,-2.8874,-2.9692,-2.955,-2.9453,-2.9392,-2.9326,-2.9291,-2.928,-2.9085,0.0,0.0,0.0,0.0,0.0,0.0,0.0,0.0,0.0,0.0,0.0,0.0,0.0,0.0,0.0,0.0,0.0,0.0,0.0,0.0,0.0,0.0,0.0,0.0,-3.6673,-3.8122,-3.8251,0.0,-3.8231,-3.836,-3.8299,0.0,-3.8186,-3.8775,-3.9568,-4.0367,-4.0392,-4.135,-4.4453,0.0,0.0,0.0,0.0,0.0,0.0,0.0,0.0,0.0,0.0,0.0,0.0,0.0,0.0,0.0,0.0,0.0,0.0,-5.3213,-5.311,-5.2903,-5.2903,-5.2903,-5.2903,-5.2903,-5.2903,-5.2903,0.0,0.0,0.0,0.0,0.0,0.0,-5.2659,-5.2605,-5.2553,-5.2445,-5.2409,-5.2409,-5.2409,-5.2409,-5.2409,0.0,0.0,0.0,0.0,0.0,0.0,0.0,0.0,0.0,0.0,0.0,0.0,0.0,0.0,0.0,0.0,0.0,0.0,0.0,0.0,0.0,0.0,0.0,0.0,0.0,-2.8122,-2.8764,-2.9463,-2.9384,-2.9341,-2.9326,-2.9262,-2.9175,-2.9062,-2.9028,-2.887,0.0,0.0,0.0,0.0,0.0,0.0,0.0,0.0,0.0,0.0,-3.0591,-3.0546,0.0,0.0,0.0,0.0,0.0,0.0,0.0,0.0,-3.3924,-3.3956,-3.432,0.0,-3.6921,-3.7068,-3.7574,-3.8091,0.0,-3.8238,-3.8186,-3.8186,-3.8775,-3.9348,-3.9584,-3.9591,-4.0215,0.0,0.0,0.0,0.0,0.0,0.0,0.0,0.0,0.0,0.0,0.0,0.0,0.0,0.0,0.0,0.0,0.0,0.0,0.0,-5.3416,-5.3348,-5.3144,-5.2972,-5.2903,-5.2903,-5.3041,-5.311,0.0,0.0,0.0,0.0,0.0,0.0,0.0,-5.2516,-5.2445,-5.2445,-5.2409,-5.2409,-5.2409,-5.2409,-5.2409,-5.2409,0.0,0.0,0.0,0.0,0.0,0.0,0.0,0.0,0.0,0.0,0.0,0.0,0.0,0.0,0.0,0.0,0.0,0.0,0.0,0.0,0.0,0.0,0.0,0.0,-2.7182,-2.7574,-2.8288,-2.9353,-2.932,-2.9286,-2.9251,-2.9145,-2.9044,-2.894,-2.8834,-2.8637,0.0,0.0,0.0,0.0,0.0,0.0,0.0,0.0,0.0,0.0,-3.0631,-3.0624,0.0,-3.1196,-3.1594,-3.1873,0.0,0.0,0.0,0.0,-3.405,-3.4025,-3.4151,-3.5013,-3.5952,-3.6081,-3.6505,-3.6955,-3.7151,-3.7715,-3.8112,-3.7858,-3.8861,-3.9713,-3.9445,-3.9688,0.0,0.0,0.0,0.0,0.0,0.0,0.0,0.0,0.0,0.0,0.0,0.0,0.0,0.0,0.0,0.0,0.0,0.0,0.0,0.0,0.0,-5.3467,-5.3348,-5.3246,-5.3178,-5.3178,-5.3195,-5.3264,0.0,0.0,0.0,0.0,0.0,0.0,-5.2989,-5.2832,-5.2781,-5.2746,-5.257,-5.2499,-5.2464,-5.2409,-5.2409,-5.2409,0.0,0.0,0.0,0.0,0.0,0.0,0.0,0.0,0.0,0.0,0.0,0.0,0.0,0.0,0.0,0.0,0.0,0.0,0.0,0.0,0.0,0.0,0.0,-2.5654,-2.7124,-2.7167,-2.7857,-2.928,-2.9254,-2.9218,-2.9145,-2.904,-2.8929,-2.8827,-2.8582,-2.8367,0.0,0.0,0.0,0.0,-2.7968,0.0,0.0,0.0,0.0,0.0,0.0,0.0,0.0,-3.1359,-3.1841,-3.2341,-3.3268,0.0,0.0,0.0,0.0,0.0,-3.43,-3.4877,-3.547,-3.5459,-3.5544,-3.5695,-3.5943,-3.7152,-3.8022,-3.7394,0.0,0.0,0.0,-4.0094,0.0,0.0,0.0,0.0,0.0,0.0,0.0,0.0,0.0,0.0,0.0,0.0,0.0,0.0,0.0,0.0,0.0,0.0,0.0,0.0,0.0,0.0,-5.3501,-5.3501,-5.3501,-5.3501,-5.3348,-5.3348,-5.3501,0.0,0.0,0.0,0.0,0.0,-5.3433,-5.323,-5.3144,-5.311,-5.2764,-5.2659,-5.2624,-5.2516,-5.248,-5.248,0.0,0.0,0.0,0.0,0.0,0.0,0.0,0.0,0.0,0.0,0.0,0.0,0.0,0.0,0.0,0.0,0.0,0.0,0.0,0.0,0.0,0.0,-2.537,-2.611,-2.6935,-2.7594,-2.833,-2.9134,-2.9067,-2.8998,-2.8934,-2.887,-2.8761,-2.8637,-2.8432,-2.8273,-2.8182,-2.8085,-2.7971,-2.7927,0.0,0.0,0.0,0.0,0.0,0.0,0.0,0.0,0.0,-3.1028,-3.1468,-3.1867,-3.3734,0.0,0.0,0.0,0.0,0.0,-3.4472,-3.5513,-3.6485,-3.5893,-3.5745,-3.5795,-3.5968,-3.7152,-3.8013,-3.7293,0.0,0.0,0.0,-4.0027,0.0,0.0,0.0,0.0,0.0,0.0,0.0,0.0,0.0,0.0,0.0,0.0,0.0,0.0,0.0,0.0,0.0,0.0,0.0,0.0,0.0,0.0,0.0,-5.3501,-5.3501,-5.3501,-5.3467,-5.3467,-5.3501,-5.3298,-5.3298,0.0,0.0,0.0,-5.323,-5.3007,-5.2938,-5.2938,-5.2868,-5.2834,-5.2834,-5.2834,-5.2799,-5.2816,0.0,0.0,0.0,0.0,0.0,0.0,0.0,0.0,0.0,0.0,0.0,0.0,0.0,0.0,0.0,0.0,0.0,0.0,0.0,0.0,0.0,-2.4604,-2.5742,-2.6563,-2.6953,-2.7606,-2.8304,-2.9051,-2.8929,-2.887,-2.8846,-2.8712,-2.8574,-2.8432,-2.8259,-2.815,-2.8102,-2.837,-2.8446,-2.8443,0.0,0.0,0.0,0.0,0.0,0.0,0.0,0.0,0.0,0.0,-3.205,-3.2313,-3.406,0.0,0.0,0.0,0.0,0.0,-3.457,-3.5161,-3.5844,-3.6456,-3.7219,-3.7825,-3.7969,-3.9128,-3.9861,-3.8728,0.0,0.0,0.0,0.0,0.0,0.0,0.0,0.0,0.0,0.0,0.0,0.0,0.0,0.0,0.0,0.0,0.0,0.0,0.0,0.0,0.0,0.0,0.0,0.0,0.0,0.0,0.0,-5.3501,-5.3501,-5.3501,-5.3501,-5.3501,-5.3501,-5.3382,-5.3416,0.0,0.0,-5.328,-5.3348,-5.328,-5.3195,-5.3212,-5.311,-5.3041,-5.3041,-5.2938,-5.2903,-5.2818,0.0,0.0,0.0,0.0,0.0,0.0,0.0,0.0,0.0,0.0,0.0,0.0,0.0,0.0,0.0,0.0,0.0,0.0,0.0,0.0,-2.5762,-2.5092,-2.6348,-2.7023,-2.6925,-2.7698,-2.8378,-2.8982,-2.8846,-2.8761,-2.8724,-2.8531,-2.8393,-2.8273,-2.814,-2.8135,-2.8243,-2.871,-2.894,-2.9042,0.0,0.0,0.0,0.0,0.0,0.0,0.0,0.0,0.0,0.0,0.0,0.0,0.0,0.0,0.0,-3.457,-3.4521,-3.4497,-3.4691,-3.5011,-3.5612,-3.6962,-3.7852,-3.8644,-3.951,-4.0548,-4.1084,-4.0156,0.0,0.0,0.0,0.0,0.0,0.0,0.0,0.0,0.0,0.0,0.0,0.0,0.0,0.0,0.0,0.0,0.0,0.0,0.0,0.0,0.0,0.0,0.0,0.0,0.0,0.0,0.0,-5.3501,-5.3501,-5.3501,-5.3501,-5.3501,-5.3501,-5.3501,-5.3501,-5.3501,-5.3501,-5.3501,-5.3501,-5.3501,-5.3501,-5.3467,-5.3348,-5.3264,-5.3264,-5.3093,-5.2941,-5.2655,0.0,0.0,0.0,0.0,0.0,0.0,0.0,0.0,0.0,0.0,0.0,0.0,0.0,0.0,0.0,0.0,0.0,0.0,0.0,0.0,-2.6795,-2.6739,-2.7428,-2.7477,-2.6749,-2.8162,-2.8909,-2.8917,-2.8767,-2.8644,-2.8505,-2.8393,-2.8291,-2.8196,-2.8071,-2.8317,-2.884,-2.8877,-2.9141,-2.9608,-3.0266,0.0,0.0,0.0,0.0,0.0,0.0,0.0,0.0,0.0,0.0,0.0,0.0,0.0,-3.4875,-3.4875,-3.4859,-3.4875,-3.4875,-3.599,-3.7136,-3.7278,-3.6264,-3.6024,-3.9032,-3.9699,-3.988,-4.0591,0.0,0.0,0.0,0.0,0.0,0.0,0.0,0.0,0.0,0.0,0.0,0.0,0.0,0.0,0.0,0.0,0.0,0.0,0.0,0.0,0.0,0.0,0.0,0.0,0.0,0.0,0.0,0.0,-5.3501,-5.3501,-5.3501,-5.3501,-5.3501,-5.3501,-5.3501,-5.3501,-5.3501,-5.3501,-5.3501,-5.3501,-5.3501,-5.3501,-5.3467,-5.3467,-5.3467,-5.3467,-5.2994,-5.2318,0.0,0.0,0.0,0.0,0.0,0.0,0.0,0.0,0.0,0.0,0.0,0.0,0.0,0.0,0.0,0.0,0.0,0.0,0.0,0.0,-2.7335,-2.6789,-2.7461,-2.7691,-2.7397,-2.8361,-2.8846,-2.8785,-2.8632,-2.8536,-2.8432,-2.8304,-2.8182,-2.8088,-2.8409,-2.8644,-2.8821,-2.9704,-3.0144,-3.0283,-3.0807,-3.0982,0.0,0.0,0.0,0.0,0.0,0.0,0.0,0.0,-3.21,-3.2884,-3.3889,-3.4424,-3.4667,-3.4739,-3.4732,-3.4667,-3.4739,-3.6008,-3.7295,-3.7295,-3.6829,-3.7245,-4.0452,-4.152,-4.1724,-4.154,-4.2366,0.0,0.0,0.0,0.0,0.0,0.0,0.0,0.0,0.0,0.0,0.0,0.0,0.0,0.0,0.0,0.0,0.0,0.0,0.0,0.0,0.0,0.0,0.0,0.0,0.0,0.0,0.0,-5.208,-5.2097,-5.3044,-5.3501,-5.3501,-5.3501,-5.3501,-5.3501,-5.3501,-5.3501,-5.3501,-5.3501,-5.3501,-5.3501,-5.3501,-5.3196,-5.2756,-5.2756,-5.2283,-5.1523,0.0,0.0,0.0,0.0,0.0,0.0,0.0,0.0,0.0,0.0,0.0,0.0,0.0,0.0,0.0,0.0,0.0,0.0,0.0,-2.8312,-2.804,-2.7429,-2.7868,-2.8134,-2.8112,-2.8524,-2.8724,-2.8694,-2.8574,-2.8697,-2.9048,-2.8691,-2.8582,-2.8718,-2.9048,-2.9292,-2.9459,-3.0404,-3.0835,-3.0914,-3.1223,-3.1293,0.0,0.0,0.0,0.0,0.0,0.0,0.0,0.0,-3.1951,-3.2481,-3.3164,-3.3611,-3.388,-3.3945,-3.4462,-3.5029,-3.5126,-3.6191,-3.7411,-3.7928,-3.7853,-3.8438,-4.1405,-4.2105,-4.2202,-4.2656,-4.3171,-4.3592,-4.3759,0.0,0.0,0.0,0.0,0.0,0.0,0.0,0.0,0.0,0.0,0.0,0.0,0.0,0.0,0.0,0.0,0.0,0.0,0.0,0.0,0.0,0.0,0.0,0.0,0.0,-5.1185,-5.1202,-5.2283,-5.2773,-5.2773,-5.2773,-5.2773,-5.2773,-5.2773,-5.2773,-5.2773,-5.2773,-5.2773,-5.2773,-5.2773,-5.2452,-5.1961,-5.1961,-5.1488,-5.0777,0.0,0.0,0.0,0.0,0.0,0.0,0.0,0.0,0.0,0.0,0.0,0.0,0.0,0.0,0.0,0.0,0.0,0.0,-2.895,-2.9005,-2.8964,-2.8905,-2.8905,-2.887,-2.8798,-2.8662,-2.8637,-2.8712,-2.8574,-2.9184,-3.0478,-2.9624,-2.9561,-3.0198,-2.9988,-3.0294,-3.089,-3.0838,-3.1073,-3.1498,-3.1498,-3.1249,-3.0892,0.0,0.0,0.0,0.0,0.0,0.0,0.0,-3.1598,-3.1692,-3.2314,-3.2484,-3.2494,-3.2413,-3.4145,-3.6082,-3.6082,-3.6688,-3.7686,-3.9292,0.0,0.0,-4.154,-4.0865,-4.0654,-4.395,-4.4457,-4.4545,-4.5349,0.0,0.0,0.0,0.0,0.0,0.0,0.0,0.0,0.0,0.0,0.0,0.0,0.0,0.0,0.0,0.0,0.0,0.0,0.0,0.0,0.0,0.0,0.0,0.0,0.0,-5.1168,-5.1168,-5.1168,-5.12,-5.1185,-5.1185,-5.1185,-5.1185,-5.1185,-5.1185,-5.1185,-5.1185,-5.1185,-5.1185,-5.1185,-5.1185,-5.12,-5.12,-5.0727,-5.0084,0.0,0.0,0.0,0.0,0.0,0.0,0.0,0.0,0.0,0.0,0.0,0.0,0.0,0.0,0.0,0.0,0.0,0.0,-2.8987,-2.8905,-2.8846,-2.8834,-2.8737,-2.8675,-2.8662,-2.8523,-2.872,-2.9269,-2.9228,-2.9619,-3.0424,-2.9962,-2.9839,-2.9989,-3.0384,-3.063,-3.0784,-3.1194,-3.1426,-3.1498,-3.1344,-3.1151,-3.0955,0.0,0.0,0.0,0.0,0.0,0.0,0.0,0.0,0.0,-3.1753,-3.2077,-3.2459,-3.2449,-3.3294,-3.4239,-3.4428,-3.6687,0.0,-3.817,0.0,0.0,0.0,-4.2139,0.0,0.0,-4.525,-4.5214,-4.545,0.0,0.0,0.0,0.0,0.0,0.0,0.0,0.0,0.0,0.0,0.0,0.0,0.0,0.0,0.0,0.0,0.0,0.0,0.0,0.0,0.0,0.0,0.0,0.0,0.0,0.0,-4.9661,-4.9661,-5.0219,-5.1185,-5.1185,-5.1185,-5.1185,-5.1185,-5.1185,-5.1185,-5.1185,-5.1185,-5.1185,-5.1185,-5.0896,-5.0422,-5.0422,-4.9965,-4.9323,0.0,0.0,0.0,0.0,0.0,0.0,0.0,0.0,0.0,0.0,-2.7584,-2.7573,0.0,0.0,0.0,0.0,0.0,0.0,0.0,0.0,-2.8773,-2.8724,-2.8637,-2.8562,-2.8484,-2.8419,-2.8869,-2.981,-2.9544,-3.0027,-3.1177,-3.0699,-3.0586,-3.0783,-3.1098,-3.1218,-3.1199,-3.1484,-3.1559,-3.1479,-3.1327,-3.1323,-3.1399,0.0,0.0,0.0,0.0,0.0,0.0,0.0,0.0,0.0,-3.1082,-3.1309,-3.177,-3.2602,-3.3421,-3.4398,-3.6055,-3.806,0.0,-4.0124,-4.117,-4.226,-4.2939,0.0,0.0,0.0,0.0,0.0,0.0,0.0,0.0,0.0,0.0,0.0,0.0,0.0,0.0,0.0,0.0,0.0,0.0,0.0,0.0,0.0,0.0,0.0,0.0,0.0,0.0,0.0,0.0,0.0,0.0,0.0,0.0,0.0,-4.9001,-4.9475,-5.0338,-5.0338,-5.0338,-5.0338,-5.0338,-5.0338,-5.0338,-5.0338,-5.0338,-5.0338,-5.0338,-5.005,-4.9661,-4.9661,-4.9373,-4.9001,0.0,0.0,0.0,0.0,0.0,0.0,0.0,0.0,0.0,0.0,-2.8975,-2.8917,0.0,0.0,0.0,0.0,0.0,0.0,0.0,0.0,-2.8712,-2.86,-2.8574,-2.8484,-2.8286,-2.8412,-2.9058,-3.0276,-2.968,-3.0406,-3.2371,-3.1618,-3.155,-3.209,-3.1948,-3.1876,-3.1876,-3.1673,-3.1559,-3.1498,-3.1349,-3.1565,-3.1903,-3.1183,0.0,0.0,0.0,0.0,0.0,0.0,0.0,0.0,-3.0455,-3.0396,-3.0775,-3.2604,-3.3962,-3.5649,-3.9095,-3.9925,0.0,-4.3544,-4.3314,0.0,-4.4248,-4.4615,-4.5038,0.0,0.0,0.0,0.0,0.0,0.0,0.0,0.0,0.0,0.0,0.0,0.0,0.0,0.0,0.0,0.0,0.0,0.0,0.0,0.0,0.0,0.0,0.0,0.0,0.0,0.0,0.0,0.0,0.0,0.0,0.0,0.0,-4.9001,-4.9001,-4.9001,-4.9001,-4.9001,-4.9001,-4.9001,-4.9001,-4.9001,-4.9001,-4.9001,-4.9001,-4.9001,-4.9001,-4.9001,-4.9001,-4.9001,0.0,0.0,0.0,0.0,0.0,0.0,0.0,0.0,0.0,0.0,0.0,0.0,0.0,0.0,0.0,0.0,0.0,0.0,0.0,0.0,-2.8543,-2.8518,-2.8419,-2.8286,-2.8154,-2.871,-2.9361,-3.0068,-3.0031,-3.0827,-3.2388,-3.1952,-3.1863,-3.209,-3.1893,-3.1819,-3.1801,-3.1614,-3.15,-3.1479,-3.1308,-3.1196,-3.115,-3.0979,-3.12,0.0,0.0,0.0,0.0,0.0,0.0,0.0,-3.0603,-3.0396,-3.0488,-3.0916,-3.2552,-3.4413,-3.5329,-3.8171,0.0,0.0,-4.2997,-4.4164,-4.453,-4.4615,0.0,0.0,0.0,0.0,0.0,0.0,0.0,0.0,0.0,0.0,0.0,0.0,0.0,0.0,0.0,0.0,0.0,0.0,0.0,0.0,0.0,0.0,0.0,0.0,0.0,0.0,0.0,0.0,0.0,0.0,0.0,0.0,-4.9001,-4.9001,-4.9001,-4.9001,-4.9001,-4.9001,-4.9001,-4.9001,-4.9001,-4.9001,-4.9001,-4.9001,-4.9001,-4.9001,-4.9001,-4.9001,-4.9001,-4.9001,0.0,0.0,0.0,0.0,0.0,0.0,0.0,0.0,0.0,0.0,0.0,0.0,0.0,0.0,0.0,0.0,0.0,0.0,0.0,0.0,0.0,-2.8419,-2.83,-2.8209,-2.8099,-2.8787,-2.943,-2.9986,-3.0354,-3.1093,-3.2144,-3.2055,-3.1966,-3.1947,-3.1855,-3.1764,-3.169,-3.1557,-3.1701,-3.1966,-3.1794,-3.2097,-3.2563,-3.2123,-3.2374,-3.2872,-3.2331,0.0,0.0,0.0,0.0,0.0,0.0,0.0,-3.1724,-3.2782,-3.3712,-3.4881,-3.6905,0.0,0.0,-4.2044,0.0,-4.4682,-4.4598,-4.4615,0.0,0.0,0.0,0.0,0.0,0.0,0.0,0.0,0.0,0.0,0.0,0.0,0.0,0.0,0.0,0.0,0.0,0.0,0.0,0.0,0.0,0.0,0.0,0.0,0.0,0.0,0.0,0.0,-4.9001,-4.9001,-4.9001,-4.9001,-4.9001,-4.9001,-4.9001,-4.9001,-4.9001,-4.9001,-4.9001,-4.9001,-4.9001,-4.9001,-4.9001,-4.9001,-4.9001,-4.9001,-4.9001,-4.9001,-4.9001,-4.9001,0.0,0.0,0.0,0.0,0.0,0.0,0.0,0.0,0.0,0.0,0.0,0.0,0.0,0.0,0.0,0.0,0.0,0.0,0.0,0.0,0.0,-2.8286,-2.8334,-2.8336,-2.8266,-2.9051,-2.9689,-3.0164,-3.0784,-3.1359,-3.1893,-3.2001,-3.1965,-3.1837,-3.1818,-3.1727,-3.1615,-3.1656,-3.2003,-3.2499,-3.2503,-3.3203,-3.4187,-3.3398,-3.3678,-3.4354,-3.3428,-3.2912,-3.2763,-3.3006,0.0,0.0,0.0,0.0,-3.3068,-3.4885,-3.5296,-3.5907,-3.9294,0.0,-4.0704,-4.3013,-4.4096,0.0,-4.4592,0.0,0.0,0.0,0.0,0.0,0.0,0.0,0.0,0.0,0.0,0.0,0.0,0.0,0.0,0.0,0.0,0.0,0.0,0.0,0.0,0.0,0.0,0.0,0.0,0.0,0.0,0.0,0.0,0.0,-4.9001,-4.9001,-4.9001,-4.9001,-4.9001,-4.9001,-4.9001,-4.9001,-4.9001,-4.9001,-4.9001,-4.9001,-4.9001,-4.9001,-4.9001,-4.9001,-4.9001,-4.9001,-4.9001,-4.9001,-4.9001,-4.9001,0.0,0.0,0.0,0.0,0.0,0.0,0.0,0.0,0.0,0.0,0.0,0.0,0.0,0.0,0.0,0.0,0.0,0.0,-2.8411,0.0,0.0,-2.8209,-2.8767,-2.905,-2.8959,-3.0238,-3.0866,-3.0785,-3.1568,-3.1914,-3.1801,-3.1819,-3.1856,-3.1876,-3.1819,-3.1727,-3.1649,-3.2203,-3.2463,-3.2533,-3.3059,-3.3262,-3.3275,-3.3148,-3.3818,-3.4804,-3.4658,-3.5387,-3.6216,-3.4998,-3.4535,0.0,0.0,0.0,0.0,-3.3051,-3.4597,-3.6336,0.0,0.0,-4.1605,0.0,-4.3688,-4.3905,0.0,0.0,0.0,0.0,0.0,0.0,0.0,0.0,0.0,0.0,0.0,0.0,0.0,0.0,0.0,0.0,0.0,0.0,0.0,0.0,0.0,0.0,0.0,0.0,0.0,0.0,0.0,0.0,0.0,0.0,-4.9001,-4.9001,-4.9001,-4.9001,-4.9001,-4.9001,-4.9001,-4.9001,-4.9001,-4.9001,-4.9001,-4.9001,-4.9001,-4.9001,-4.9001,-4.9001,-4.9001,-4.9001,-4.9001,-4.9001,-4.9001,-4.9001,0.0,0.0,0.0,0.0,0.0,0.0,0.0,0.0,0.0,0.0,0.0,0.0,0.0,0.0,0.0,-2.8353,-2.8367,-2.838,-2.834,-2.8643,-2.8795,-2.8767,-2.9381,-2.9664,-2.962,-3.0551,-3.0976,-3.0838,-3.1565,-3.1892,-3.18,-3.18,-3.1837,-3.1838,-3.1746,-3.1857,-3.2171,-3.2432,-3.2961,-3.3639,-3.3918,-3.4661,-3.5531,-3.4656,-3.5397,-3.6785,-3.5845,-3.5991,-3.6555,-3.6249,-3.586,-3.5396,-3.475,0.0,0.0,0.0,-3.5728,-3.7142,-3.8274,-4.0197,-4.2014,0.0,-4.3417,-4.4199,0.0,0.0,0.0,0.0,0.0,0.0,0.0,0.0,0.0,0.0,0.0,0.0,0.0,0.0,0.0,0.0,0.0,0.0,0.0,0.0,0.0,0.0,0.0,0.0,0.0,-4.9001,-4.9001,-4.9001,-4.9001,0.0,-4.9001,-4.9001,-4.9001,-4.9001,-4.9001,-4.9001,-4.9001,-4.9001,-4.9001,-4.9001,-4.9001,-4.9001,-4.9001,-4.9001,-4.9001,-4.9001,-4.9001,-4.9001,-4.9001,-4.9001,-4.9001,-4.9001,0.0,0.0,0.0,0.0,0.0,0.0,0.0,0.0,0.0,0.0,0.0,0.0,0.0,0.0,0.0,0.0,-2.8905,-2.8905,-2.8863,-2.9258,-2.9494,-2.9479,-3.0072,-3.035,-3.0268,-3.0854,-3.1133,-3.108,-3.156,-3.18,-3.18,-3.199,-3.2057,-3.2056,-3.1945,-3.2261,-3.2881,-3.3019,-3.363,-3.4544,-3.5091,-3.62,-3.7451,-3.6647,-3.743,-3.8775,-3.7337,-3.7015,-3.7299,-3.7352,-3.7044,-3.6572,-3.634,-3.6299,0.0,0.0,0.0,0.0,0.0,0.0,-4.165,-4.1694,-4.2932,-4.4059,0.0,0.0,0.0,0.0,0.0,0.0,0.0,0.0,0.0,0.0,0.0,0.0,0.0,0.0,0.0,0.0,0.0,0.0,0.0,0.0,0.0,0.0,0.0,0.0,0.0,-4.9001,-4.9001,-4.9001,-4.9001,-4.9001,-4.9001,-4.9001,-4.9001,-4.9001,-4.9001,-4.9001,-4.9001,-4.9001,-4.9001,-4.9001,-4.9001,-4.9001,-4.9001,-4.9001,-4.9001,-4.9001,-4.9001,-4.9001,-4.9001,-4.9001,-4.9001,-4.9001,0.0,0.0,0.0,0.0,0.0,0.0,0.0,0.0,0.0,0.0,0.0,0.0,-3.0689,-3.0618,-3.0528,-3.0386,-3.0386,-3.0386,-3.0386,-3.035,-3.0313,-3.0254,-3.0821,0.0,-3.0939,-3.1533,-3.1842,-3.1842,-3.182,-3.18,-3.1817,-3.2524,-3.2812,-3.2752,-3.2732,-3.3068,-3.3683,-3.4308,-3.4541,-3.4672,-3.6659,-3.7434,-3.7538,-3.8743,-3.9623,-4.01,-3.9324,-3.957,-4.0058,-3.8621,-3.819,-3.8127,-3.7318,-3.7136,-3.7245,0.0,0.0,0.0,0.0,-3.9892,0.0,-4.1172,0.0,0.0,0.0,0.0,0.0,0.0,0.0,0.0,0.0,0.0,0.0,0.0,0.0,0.0,0.0,0.0,0.0,0.0,0.0,0.0,0.0,0.0,0.0,0.0,0.0,0.0,-4.9001,-4.9001,-4.9001,-4.9001,-4.9001,-4.9001,-4.9001,-4.9001,-4.9001,-4.9001,-4.9001,-4.9001,-4.9001,-4.9001,-4.9001,-4.9001,-4.9001,-4.9001,-4.9001,-4.9001,-4.9001,-4.9001,-4.9001,-4.9001,-4.9001,-4.9001,-4.9001,-4.9001,0.0,0.0,0.0,0.0,0.0,0.0,0.0,0.0,0.0,0.0,0.0,0.0,0.0,-3.0718,-3.0656,-3.0511,-3.0496,-3.0496,-3.0496,-3.0873,-3.1066,-3.0953,-3.1529,-3.176,-3.1567,-3.1792,-3.21,-3.2546,-3.2526,-3.2766,-3.3285,-3.3542,-3.3862,-3.4191,-3.3631,-3.3734,-3.4363,-3.4512,0.0,0.0,0.0,-3.8077,-3.8749,-3.8293,0.0,0.0,0.0,0.0,0.0,-3.9739,-3.9277,-3.8864,-3.8261,-3.8104,-3.8137,-3.8237,-3.8782,0.0,0.0,0.0,0.0,-4.0493,-4.1842,0.0,0.0,0.0,0.0,0.0,0.0,0.0,0.0,0.0,0.0,0.0,0.0,0.0,0.0,0.0,0.0,0.0,0.0,0.0,0.0,0.0,0.0,0.0,0.0,0.0,-4.9001,-4.9001,-4.9001,-4.9001,-4.9001,-4.9001,-4.9001,-4.9001,-4.9001,-4.9001,-4.9001,-4.9001,-4.9001,-4.9001,-4.9001,-4.9001,-4.9001,-4.9001,-4.9001,-4.9001,-4.9001,-4.9001,-4.9001,-4.9001,-4.9001,-4.9001,-4.9001,-4.9001,0.0,0.0,0.0,0.0,0.0,0.0,0.0,0.0,0.0,-3.1452,0.0,0.0,0.0,0.0,-3.1395,-3.1283,-3.122,-3.1204,-3.1204,-3.1611,-3.1888,-3.2034,-3.2372,-3.2577,-3.2656,-3.2637,-3.2859,-3.33,-3.33,-3.3576,-3.4113,-3.4355,-3.4654,-3.4953,-3.4869,-3.5053,0.0,0.0,0.0,-3.613,0.0,0.0,-3.9288,0.0,0.0,0.0,0.0,0.0,0.0,0.0,0.0,-3.9977,-3.942,-3.8991,-3.8723,-3.8889,-3.9202,-3.9488,-3.948,0.0,0.0,0.0,0.0,0.0,0.0,0.0,0.0,0.0,0.0,0.0,0.0,0.0,0.0,0.0,0.0,0.0,0.0,0.0,0.0,0.0,0.0,0.0,0.0,0.0,0.0,0.0,0.0,0.0,-4.8984,-4.9001,-4.9001,-4.9001,-4.9001,-4.9001,-4.9001,-4.9001,-4.9001,-4.9001,-4.9001,-4.9001,-4.9001,-4.9001,-4.9001,-4.9001,-4.9001,-4.9001,-4.9001,-4.9001,-4.9001,-4.9001,-4.9001,-4.9001,-4.9001,-4.9001,-4.9001,-4.9001,0.0,0.0,0.0,0.0,0.0,0.0,0.0,0.0,-3.2102,-3.2905,0.0,0.0,0.0,0.0,0.0,-3.2876,-3.2744,-3.2677,-3.2677,-3.2611,-3.2861,-3.3512,-3.3348,-3.3565,-3.4181,-3.4155,-3.4113,-3.4148,-3.413,-3.4148,-3.4182,-3.4907,-3.5146,-3.504,-3.6471,-3.7047,-3.6899,0.0,-3.6129,-3.6995,0.0,-3.9285,-3.9042,0.0,0.0,0.0,-4.1676,-4.1693,0.0,-4.1521,0.0,0.0,0.0,-3.9781,-3.8962,-3.9151,-3.8946,-3.8681,0.0,0.0,0.0,0.0,0.0,0.0,0.0,0.0,0.0,0.0,0.0,0.0,0.0,0.0,0.0,0.0,0.0,0.0,0.0,0.0,0.0,0.0,0.0,0.0,0.0,0.0,0.0,0.0,0.0,0.0,-4.89,-4.8968,-4.8968,-4.8968,-4.8984,-4.9001,-4.9001,-4.9001,-4.9001,-4.9001,-4.9001,-4.9001,-4.9001,-4.9001,-4.9001,-4.9001,-4.9001,-4.9001,-4.9001,-4.9001,-4.9001,-4.9001,-4.9001,-4.9001,-4.9001,-4.9001,-4.9001,-4.9001,0.0,0.0,0.0,0.0,0.0,0.0,-3.2717,-3.2688,-3.2729,0.0,0.0,0.0,-3.2932,-3.3335,-3.3838,-3.4408,-3.434,-3.4252,-3.4252,-3.42,-3.4234,-3.4355,-3.4299,-3.4293,-3.4332,-3.433,-3.4549,-3.5025,-3.4927,-3.5163,-3.5697,-3.5904,-3.6174,-3.6522,-3.6932,-3.7643,-3.8496,-3.7631,0.0,-3.7753,-3.9648,-4.0326,0.0,0.0,0.0,0.0,0.0,-4.1749,-4.1782,0.0,-4.1398,-4.0228,0.0,-3.9914,-3.9382,-3.9238,-3.8996,-3.8723,-3.8513,0.0,0.0,0.0,0.0,0.0,0.0,0.0,0.0,0.0,0.0,0.0,0.0,0.0,0.0,0.0,0.0,0.0,0.0,0.0,0.0,0.0,0.0,0.0,0.0,0.0,0.0,0.0,0.0,-4.7192,-4.7394,-4.7919,-4.8193,-4.8193,-4.8731,-4.9001,-4.9001,-4.9001,-4.9001,-4.9001,-4.9001,-4.9001,-4.9001,-4.9001,-4.9001,-4.9001,-4.9001,-4.9001,-4.9001,-4.9001,-4.9001,-4.9001,-4.9001,-4.9001,-4.9001,-4.9001,-4.9001,-4.9001,0.0,0.0,0.0,0.0,0.0,-3.3168,-3.3011,-3.3281,-3.3482,0.0,0.0,0.0,-3.3816,-3.409,-3.4464,-3.4925,-3.4871,-3.4817,-3.4817,-3.4763,-3.4866,-3.5144,-3.5087,-3.5149,-3.5386,-3.5325,-3.5474,-3.5943,-3.5864,-3.6205,-3.6915,-3.6872,-3.7176,-3.7756,0.0,0.0,0.0,0.0,0.0,0.0,-4.0193,0.0,0.0,-4.1772,-4.2578,0.0,0.0,0.0,-4.2253,-4.2868,-4.1994,0.0,0.0,0.0,0.0,0.0,-3.8831,-3.8788,-3.8179,-3.8737,-3.9484,0.0,0.0,0.0,0.0,-4.2546,0.0,0.0,0.0,0.0,0.0,0.0,0.0,0.0,0.0,0.0,0.0,0.0,0.0,0.0,0.0,0.0,0.0,0.0,0.0,0.0,-4.6474,-4.6523,-4.6786,-4.7208,-4.7445,-4.7445,-4.7868,-4.8088,-4.8088,-4.8392,-4.8545,-4.8545,-4.8849,-4.9001,-4.9001,-4.9001,-4.9001,-4.9001,-4.9001,-4.9001,-4.9001,-4.9001,-4.9001,-4.9001,-4.9001,-4.9001,-4.9001,-4.9001,-4.9001,-4.9001,0.0,0.0,0.0,-3.3433,-3.3324,-3.3232,-3.3261,-3.3872,-3.4305,0.0,-3.4793,-3.5223,-3.5243,-3.5066,-3.4993,-3.5081,-3.5008,-3.497,-3.497,-3.497,-3.5249,-3.5897,-3.576,-3.6033,-3.6811,-3.6626,-3.6585,-3.6722,-3.6771,-3.7134,-3.7781,-3.7741,-3.8061,-3.8727,0.0,0.0,0.0,0.0,0.0,-3.9549,-4.0577,-4.0686,0.0,0.0,-4.2643,0.0,-4.2831,-4.2923,-4.2867,-4.3267,-4.2829,0.0,0.0,0.0,0.0,0.0,-3.8687,-3.8931,-3.7933,-3.8648,-3.9703,0.0,0.0,0.0,-4.1484,-4.1933,0.0,0.0,0.0,0.0,0.0,0.0,0.0,0.0,0.0,0.0,0.0,0.0,0.0,0.0,0.0,0.0,0.0,0.0,0.0,-4.6028,-4.593,-4.6079,-4.6644,-4.6675,-4.6667,-4.6667,-4.6752,-4.6786,-4.6786,-4.7462,-4.78,-4.777,-4.8443,-4.8765,-4.8765,-4.8849,-4.8883,-4.8883,-4.8968,-4.9001,-4.9001,-4.9001,-4.9001,-4.9001,-4.9001,-4.9001,-4.9001,-4.9001,-4.9001,-4.9001,-3.3524,0.0,-3.3581,-3.4174,-3.4153,-3.4255,-3.4837,-3.507,-3.5126,-3.5007,-3.5097,-3.5436,-3.6078,-3.5971,-3.6109,-3.6746,-3.6647,-3.655,-3.655,-3.655,-3.6621,-3.6761,-3.674,-3.679,-3.6968,-3.6829,-3.6748,-3.6788,-3.7214,-3.7494,-3.765,-3.8165,-3.8722,-3.933,0.0,0.0,0.0,0.0,0.0,-4.1049,-4.0969,0.0,-4.1774,-4.2589,-4.3194,-4.3625,-4.3679,-4.3354,-4.2812,0.0,-4.2426,-4.2657,0.0,0.0,0.0,0.0,0.0,0.0,0.0,0.0,0.0,0.0,0.0,0.0,-3.9949,-4.0933,0.0,0.0,0.0,0.0,0.0,0.0,0.0,0.0,0.0,0.0,0.0,0.0,0.0,0.0,0.0,0.0,0.0,0.0,0.0,-4.5788,-4.5649,-4.564,-4.5751,-4.5846,-4.5923,-4.5923,-4.6481,-4.6786,-4.6786,-4.6938,-4.7005,-4.7022,-4.7158,-4.7225,-4.7242,-4.7851,-4.8091,-4.8142,-4.8748,-4.9001,-4.9001,-4.9001,-4.9001,-4.9001,-4.9001,-4.9001,-4.9001,-4.9001,-4.9001,-4.9001,-3.4706,-3.4555,-3.4576,-3.4925,-3.4916,-3.496,-3.5236,-3.5681,-3.5914,-3.581,-3.6096,-3.6452,-3.6844,-3.6732,-3.676,-3.7167,-3.7085,-3.7007,-3.7007,-3.7029,-3.7029,-3.7007,-3.7007,-3.6968,-3.6908,-3.7233,-3.7405,-3.7405,-3.8053,-3.8546,-3.8964,-3.9153,-3.9812,-4.084,-4.04,0.0,0.0,0.0,-4.0853,-4.1128,-4.1552,0.0,-4.2606,-4.3229,-4.3693,-4.4005,-4.3958,-4.3697,-4.3284,-4.281,-4.2581,0.0,0.0,-4.1626,-4.0897,0.0,-3.9934,-4.0118,0.0,0.0,0.0,-3.991,0.0,0.0,0.0,-4.0631,0.0,0.0,0.0,0.0,0.0,0.0,0.0,0.0,0.0,0.0,0.0,0.0,0.0,0.0,0.0,0.0,0.0,0.0,-4.5885,-4.5468,-4.539,-4.5425,-4.5588,-4.5374,-4.5365,-4.559,-4.5665,-4.5715,-4.5715,-4.6058,-4.6244,-4.6261,-4.6616,-4.6786,-4.6802,-4.7175,-4.7361,-4.7378,-4.7733,-4.8105,-4.846,-4.846,-4.868,-4.9001,-4.9001,-4.9001,-4.9001,-4.9001,-4.9001,-4.9001,-3.5975,-3.5702,-3.5594,-3.5773,-3.5708,-3.5715,-3.5916,-3.654,-3.6987,-3.7059,-3.7649,-3.8043,-3.8043,-3.799,-3.7972,-3.7972,-3.7881,-3.7787,-3.767,-3.7708,-3.7708,-3.7649,-3.7508,-3.7448,-3.7457,-3.7965,-3.8251,-3.8251,-3.894,-3.9634,-4.0263,-4.0162,-4.0797,0.0,-4.1348,0.0,0.0,0.0,0.0,-4.1123,0.0,-4.2584,-4.2776,-4.342,-4.3853,-4.4135,-4.435,-4.4362,-4.4199,-4.3921,0.0,-4.2708,-4.2947,-4.2495,0.0,0.0,0.0,0.0,0.0,0.0,0.0,0.0,0.0,-3.9969,0.0,0.0,0.0,0.0,0.0,0.0,0.0,0.0,0.0,0.0,0.0,0.0,0.0,0.0,0.0,0.0,0.0,0.0,0.0,0.0,0.0,-4.581,-4.5546,-4.558,-4.6007,-4.5451,-4.5284,-4.5673,-4.5196,-4.4923,-4.4923,-4.5493,-4.5789,-4.5789,-4.6385,-4.6675,-4.6675,-4.6811,-4.688,-4.688,-4.6935,-4.7301,-4.7848,-4.7881,-4.8318,-4.8965,-4.8981,-4.9001,-4.9001,-4.9001,-4.9001,-4.9001,-3.6178,-3.5783,-3.5923,-3.6693,-3.6687,-3.7019,-3.8438,-3.8636,-3.8848,-3.9432,-4.0038,-4.0406,-4.0406,-4.083,-4.1091,-4.1091,-4.098,0.0,-4.0052,0.0,-4.0002,-3.9932,-3.9361,-3.9301,-3.9878,-3.941,-3.9161,-3.9161,-3.9696,-4.0043,-4.0147,-4.0689,-4.1059,0.0,-4.1618,0.0,0.0,0.0,-4.1846,0.0,-4.2444,-4.2165,0.0,-4.2289,-4.3302,-4.4581,-4.5599,-4.5893,-4.5753,0.0,-4.5003,-4.4843,0.0,-4.3697,-4.3524,0.0,0.0,0.0,0.0,0.0,0.0,0.0,-3.9807,0.0,0.0,0.0,0.0,0.0,0.0,0.0,0.0,0.0,0.0,0.0,0.0,0.0,0.0,0.0,0.0,0.0,0.0,0.0,0.0,0.0,0.0,0.0,-4.6783,-4.6395,-4.7172,-4.6571,-4.624,-4.6288,-4.6154,-4.6116,-4.6116,-4.608,-4.604,-4.6058,-4.6127,-4.618,-4.6197,-4.6862,-4.7159,-4.716,-4.7402,-4.7561,-4.767,-4.784,-4.8264,-4.8833,-4.8944,-4.9001,-4.9001,-4.9001,-4.9001,-4.9001,-3.7523,-3.7142,-3.7151,-3.7528,-3.7807,-3.8187,-3.8869,-3.9279,-3.9578,-3.986,-4.0128,-4.0293,0.0,0.0,0.0,0.0,0.0,-4.0746,0.0,0.0,-4.0238,-3.9731,-3.9519,-3.9479,-3.9595,-3.9858,-3.9968,-3.9882,-4.0525,-4.0842,-4.0864,-4.1064,-4.1405,0.0,-4.1888,0.0,-4.2199,0.0,0.0,0.0,0.0,0.0,0.0,-4.3594,-4.4706,-4.5706,-4.6126,-4.6238,-4.6169,0.0,-4.5278,0.0,0.0,0.0,0.0,0.0,0.0,0.0,0.0,0.0,0.0,0.0,0.0,0.0,-3.9959,0.0,-3.9573,0.0,0.0,0.0,0.0,0.0,0.0,0.0,0.0,0.0,0.0,0.0,0.0,0.0,0.0,0.0,0.0,0.0,0.0,0.0,0.0,-4.686,-4.7488,-4.6923,-4.6699,-4.6977,-4.6589,-4.6353,-4.6353,-4.6305,-4.6251,-4.6213,-4.6213,-4.6189,-4.6116,-4.6432,-4.6547,-4.6582,-4.6663,-4.696,-4.7369,-4.7459,-4.8172,-4.9197,-4.9277,-4.9407,-4.9526,-4.9526,-4.9303,-4.9001,-3.9066,-3.8824,-3.8703,-3.8738,0.0,0.0,0.0,0.0,0.0,0.0,0.0,0.0,-4.0795,-4.107,0.0,0.0,-4.1921,-4.1855,0.0,0.0,-4.1234,0.0,0.0,0.0,0.0,-4.0728,-4.0862,-4.0775,-4.1275,-4.1493,-4.1448,-4.1363,-4.1595,0.0,0.0,-4.221,-4.2722,0.0,0.0,-4.2537,-4.3536,-4.4043,-4.434,-4.535,-4.619,-4.683,-4.695,-4.699,-4.6956,-4.669,-4.605,0.0,-4.6012,0.0,0.0,0.0,0.0,0.0,-4.1728,0.0,0.0,0.0,0.0,0.0,0.0,0.0,0.0,0.0,0.0,0.0,0.0,0.0,0.0,-3.9703,0.0,0.0,0.0,0.0,0.0,0.0,0.0,0.0,0.0,0.0,0.0,0.0,-4.6556,0.0,-4.7756,-4.7378,-4.7295,-4.7653,-4.715,-4.6887,-4.6887,-4.6864,-4.6814,-4.6781,-4.6753,-4.6707,-4.6624,-4.6572,-4.6548,-4.6572,-4.6406,-4.661,-4.7114,-4.7177,-4.7957,-4.9158,-4.9581,-4.9872,-5.0042,-5.01,-4.9844,-4.9479,-4.0569,-4.0561,-4.0455,0.0,0.0,0.0,0.0,0.0,0.0,0.0,0.0,0.0,0.0,0.0,0.0,0.0,0.0,-4.5357,-4.4704,0.0,-4.4014,0.0,0.0,-4.2456,0.0,0.0,0.0,-4.1948,-4.1823,-4.1714,-4.1604,-4.1582,-4.152,-4.1453,0.0,-4.2015,-4.2056,-4.2364,-4.3225,-4.4401,-4.4455,-4.5715,-4.7506,0.0,-4.7186,-4.774,-4.847,0.0,0.0,-4.8043,-4.7906,0.0,0.0,0.0,0.0,0.0,0.0,0.0,0.0,0.0,0.0,-4.2465,0.0,0.0,0.0,0.0,-3.8891,0.0,0.0,0.0,0.0,-3.9986,-3.9833,-3.9729,-3.9014,0.0,0.0,0.0,0.0,0.0,0.0,0.0,0.0,0.0,0.0,0.0,-4.5654,0.0,-4.8193,-4.8267,-4.8267,-4.8267,-4.8189,-4.8148,-4.8148,-4.8012,-4.7951,-4.7933,-4.7884,-4.7866,-4.7913,-4.7723,-4.7717,-4.7819,-4.7169,-4.6903,-4.6929,-4.7114,-4.7565,-4.8294,-4.9786,-5.0392,-5.0425,-5.0603,-5.0653,-5.0643,-4.1617,-4.2064,-4.1959,0.0,0.0,0.0,0.0,-4.2149,0.0,0.0,0.0,0.0,0.0,0.0,-4.6227,0.0,0.0,-4.679,-4.6476,-4.538,0.0,0.0,0.0,-4.2638,0.0,0.0,0.0,0.0,0.0,0.0,0.0,-4.1819,-4.1754,0.0,0.0,-4.2447,0.0,0.0,0.0,0.0,0.0,-4.7307,-4.8245,0.0,0.0,-4.8537,-4.8781,-4.8856,0.0,-4.8587,-4.8233,-4.7924,-4.804,-4.7463,-4.6726,-4.6506,-4.6081,0.0,0.0,0.0,-4.5386,-4.3609,0.0,0.0,0.0,0.0,0.0,0.0,0.0,0.0,0.0,-4.0054,-3.9901,-3.9849,-3.9023,-3.8652,0.0,0.0,0.0,0.0,0.0,0.0,0.0,0.0,0.0,-4.4171,-4.5773,0.0,0.0,-4.8012,-4.8306,-4.8306,-4.8286,-4.8267,-4.8267,-4.8209,-4.8189,-4.813,-4.8126,-4.8068,-4.7992,-4.7929,-4.7929,-4.7949,-4.7728,-4.7603,-4.7569,-4.7651,-4.8043,-4.8726,-4.9789,-5.0528,-5.1022,-5.1223,-5.1034,-5.0697,-4.3407,0.0,0.0,0.0,0.0,0.0,0.0,0.0,0.0,0.0,-4.4889,0.0,-4.6477,0.0,-4.7087,0.0,-4.7692,-4.7673,-4.7357,-4.6499,0.0,-4.6668,-4.4714,0.0,0.0,0.0,0.0,0.0,0.0,-4.2459,0.0,0.0,0.0,0.0,0.0,0.0,0.0,0.0,-4.5463,0.0,0.0,-4.8788,0.0,0.0,-4.9246,0.0,0.0,-4.8909,-4.8891,-4.8839,-4.855,-4.8253,-4.8587,-4.8139,-4.7479,-4.7533,-4.7234,-4.6753,-4.6182,-4.6637,0.0,0.0,-4.4316,0.0,-4.1736,0.0,0.0,0.0,0.0,0.0,0.0,0.0,-4.007,-4.0602,-3.9438,-3.852,0.0,-3.8069,0.0,0.0,0.0,0.0,0.0,0.0,-4.2045,-4.3284,-4.4684,-4.5972,0.0,0.0,-4.8012,-4.8306,-4.8306,-4.8306,-4.8306,-4.8306,-4.8286,-4.8246,-4.8207,-4.8168,-4.8111,-4.8032,-4.8012,-4.807,-4.8012,-4.797,-4.7945,-4.7945,-4.8195,-4.8657,-4.9434,-5.021,-5.0999,-5.1676,-5.1676,-5.1337,0.0,0.0,0.0,0.0,-4.314,0.0,0.0,0.0,-4.4108,0.0,-4.575,-4.6021,-4.6732,-4.7367,-4.7722,-4.7722,-4.8291,0.0,-4.7671,-4.7641,0.0,0.0,-4.6947,-4.6902,-4.7545,0.0,0.0,0.0,0.0,0.0,0.0,0.0,0.0,0.0,-4.1688,0.0,-4.4503,-4.4433,-4.6065,-4.8795,-4.9811,-5.0062,-4.9811,-5.008,0.0,-4.8212,-4.8731,-4.8907,-4.8907,-4.8909,-4.8909,-4.8909,-4.8909,-4.8909,-4.8909,-4.8909,-4.8839,-4.8697,-4.825,-4.8056,-4.7802,-4.718,0.0,0.0,0.0,0.0,-4.171,0.0,0.0,0.0,0.0,0.0,-4.0434,-4.1801,-4.0099,-3.8254,-3.7336,-3.662,0.0,0.0,0.0,0.0,0.0,-3.7657,-3.8663,-4.2176,-4.2545,-4.388,0.0,0.0,0.0,-4.8214,-4.8288,-4.8306,-4.8306,-4.8306,-4.8306,-4.8306,-4.8246,-4.8246,-4.8287,-4.8111,-4.809,-4.8207,-4.807,-4.8012,-4.8012,-4.8012,-4.8012,-4.8065,-4.8819,-4.9574,-5.0442,-5.1946,-5.2498,-5.2498,-4.5682,-4.5716,-4.5475,0.0,-4.4106,-4.3562,0.0,0.0,0.0,0.0,-4.772,-4.8443,-4.9654,-5.0497,-5.0984,-5.0984,-5.1736,0.0,0.0,0.0,0.0,-4.9984,-4.7826,-4.7186,-4.8436,-4.6582,0.0,-4.5606,0.0,0.0,-4.4169,0.0,0.0,0.0,0.0,0.0,-4.4816,-4.5407,-4.7396,-5.0185,-5.0448,-5.0149,0.0,0.0,-4.9565,-4.8764,-4.9115,-4.9273,-4.9241,-4.8976,-4.8909,-4.8909,-4.8909,-4.8909,-4.8909,-4.8909,-4.8891,-4.8856,-4.8732,-4.8678,-4.8477,-4.7767,-4.6468,-4.5189,0.0,0.0,0.0,0.0,0.0,0.0,0.0,0.0,0.0,-4.0734,-3.9463,-3.7903,-3.5928,0.0,0.0,0.0,0.0,0.0,0.0,0.0,-3.9162,-4.001,-4.174,0.0,0.0,0.0,0.0,-4.7369,-4.7975,-4.8306,-4.8306,-4.8306,-4.8306,-4.8306,-4.8267,-4.8267,-4.8306,-4.8248,-4.8229,-4.8286,-4.8229,-4.819,-4.8148,-4.8148,-4.809,-4.8083,-4.8883,-4.9965,-5.1223,-5.2145,-5.2498,-5.2498,-4.6837,0.0,0.0,-4.5856,0.0,0.0,-4.5102,0.0,0.0,-4.8198,-4.9067,0.0,-5.0914,-5.2071,-5.2763,-5.2763,-5.3207,0.0,0.0,0.0,0.0,-5.1049,-4.9767,-4.9256,-4.9702,-4.828,0.0,-4.709,0.0,0.0,-4.5036,0.0,0.0,0.0,0.0,-4.3266,0.0,-4.6878,-4.8632,-5.0248,-5.0575,0.0,0.0,-5.0309,-5.0114,-4.97,-4.9738,-4.9684,-4.9558,-4.9358,-4.922,-4.9127,-4.9127,-4.901,-4.8909,-4.8909,-4.8909,-4.8909,-4.8909,-4.8909,-4.8803,-4.8384,-4.7666,-4.6783,-4.5787,-4.5291,-4.5042,0.0,0.0,0.0,0.0,0.0,0.0,-3.9824,-3.8471,-3.7183,0.0,0.0,0.0,0.0,0.0,0.0,0.0,0.0,0.0,0.0,0.0,0.0,0.0,0.0,0.0,0.0,-4.7587,-4.8306,-4.8306,-4.8306,-4.8306,-4.8306,-4.8306,-4.8306,-4.8306,-4.8306,-4.8306,-4.8306,-4.8306,-4.8286,-4.8228,-4.8228,-4.8208,-4.8222,-4.8985,-4.9979,-5.1053,-5.1827,-5.2291,-5.2531,0.0,0.0,0.0,0.0,0.0,0.0,0.0,-4.7016,0.0,-4.9239,0.0,-5.0979,-5.1442,-5.281,-5.3672,-5.3672,0.0,-5.3541,-5.2843,-5.334,-5.3011,-5.1568,-5.1942,-5.1854,-5.1091,-5.0371,0.0,0.0,0.0,0.0,0.0,0.0,0.0,0.0,0.0,0.0,0.0,-4.8378,-4.9648,0.0,-5.0445,-5.0712,-5.0712,-5.0712,-5.0712,-5.0663,-5.0369,-5.0087,-4.9857,-4.9798,-4.9655,-4.9442,-4.9396,-4.9209,-4.896,-4.8926,-4.8909,-4.8909,-4.8909,-4.8909,-4.8909,-4.8909,-4.8909,-4.8581,-4.7426,-4.7149,-4.7149,-4.7149,-4.6142,0.0,0.0,0.0,0.0,-3.9331,0.0,0.0,0.0,0.0,0.0,0.0,0.0,0.0,0.0,0.0,0.0,0.0,0.0,0.0,0.0,0.0,0.0,0.0,-4.7142,0.0,-4.8306,0.0,-4.8306,-4.8306,-4.8306,-4.8306,-4.8306,-4.8306,-4.8306,-4.8306,-4.8306,-4.8306,-4.8306,-4.8306,-4.8306,-4.8378,-4.9124,-4.9827,-5.0508,-5.1332,-5.2051,-5.2654,0.0,0.0,0.0,0.0,0.0,-4.9337,-4.9881,-5.0137,-5.0702,-5.1908,-5.2583,0.0,-5.3095,-5.3986,-5.4561,-5.4561,-5.518,0.0,0.0,0.0,0.0,-5.3142,-5.2525,-5.2132,-5.197,-5.0689,-4.9702,0.0,0.0,0.0,-4.6941,-4.5949,0.0,0.0,0.0,0.0,-4.7004,-4.8838,0.0,-5.0525,-5.0644,-5.0712,-5.0712,-5.0712,-5.0712,-5.0683,-5.0624,-5.041,-5.0099,-4.9865,-4.9776,-4.9679,-4.9472,-4.9368,-4.9257,-4.8976,-4.8909,-4.8909,-4.8909,-4.8909,-4.8909,-4.8909,-4.8909,-4.8854,-4.86,-4.8545,-4.8545,-4.8545,-4.8326,-4.7942,-4.7223,0.0,0.0,0.0,0.0,0.0,0.0,0.0,0.0,0.0,0.0,0.0,0.0,0.0,0.0,0.0,0.0,0.0,0.0,0.0,0.0,0.0,0.0,0.0,0.0,0.0,0.0,-4.8306,-4.8306,-4.8306,-4.8306,-4.8306,-4.8306,-4.8306,-4.8306,-4.8306,-4.8306,-4.8306,-4.8306,-4.8379,-4.9222,-4.997,-5.0673,-5.1456,-5.2261,-5.2915,0.0,0.0,0.0,0.0,0.0,0.0,0.0,-5.2759,0.0,-5.2637,-5.3283,-5.3724,-5.3665,-5.4707,-5.5412,-5.5412,-5.578,-5.5838,-5.5451,-5.5412,-5.5045,-5.4213,-5.3768,0.0,-5.2879,-5.1749,-5.0685,-4.9774,0.0,0.0,-4.7178,-4.6623,0.0,0.0,0.0,-4.5971,0.0,0.0,0.0,-5.0153,-5.0545,-5.0712,-5.0712,-5.0712,-5.0712,-5.0712,-5.0712,-5.0604,-5.0432,-5.0302,-5.0155,-4.9981,-4.9857,-4.9612,-4.9368,-4.9209,-4.9027,-4.8909,-4.8909,-4.8909,-4.8909,-4.8909,-4.8909,-4.8909,-4.8909,-4.8909,-4.8909,-4.8909,-4.8909,-4.8418,-4.6887,-4.5152,0.0,0.0,0.0,0.0,0.0,0.0,0.0,0.0,0.0,0.0,0.0,0.0,0.0,0.0,0.0,0.0,0.0,0.0,0.0,0.0,0.0,0.0,0.0,0.0,0.0,-4.8306,-4.8306,-4.8306,-4.8306,-4.8306,-4.8306,-4.8306,-4.8306,-4.8306,-4.8306,-4.8306,-4.8306,-4.8343,-4.8765,-4.9663,-5.0739,-5.1142,-5.2059,-5.3082,0.0,-4.6544,0.0,0.0,-4.992,0.0,0.0,-5.4593,-5.462,-5.3401,-5.3931,-5.4383,-5.4281,-5.5307,-5.6012,-5.6012,-5.6012,-5.6012,-5.6012,-5.6012,-5.5722,-5.5084,-5.489,-5.4484,-5.3788,-5.2917,-5.1865,0.0,0.0,0.0,0.0,-4.7187,0.0,0.0,0.0,0.0,0.0,0.0,-4.9694,-4.9885,-5.0474,-5.0712,-5.0712,-5.0712,-5.0712,-5.0712,-5.0712,-5.0712,-5.0712,-5.0712,-5.0514,-5.0294,-5.0218,-4.991,-4.9558,-4.9499,-4.9299,-4.9092,-4.9027,-4.901,-4.8976,-4.8926,-4.8909,-4.8909,-4.8909,-4.8909,-4.8909,-4.8909,-4.8909,-4.8418,-4.683,-4.5461,0.0,0.0,0.0,0.0,0.0,0.0,0.0,0.0,0.0,0.0,0.0,0.0,0.0,0.0,0.0,0.0,0.0,0.0,0.0,0.0,0.0,0.0,-4.782,0.0,-4.8306,0.0,-4.8306,-4.8306,-4.8306,-4.8306,-4.8306,-4.8306,-4.8306,-4.8306,-4.8306,-4.8306,-4.8306,-4.8306,-4.8306,-4.9224,-5.0563,-5.0747,-5.172,-5.2926,0.0,0.0,0.0,0.0,0.0,0.0,0.0,-5.5075,-5.584,-5.5698,-5.5756,-5.5814,-5.5805,-5.5909,-5.6012,-5.6012,-5.6012,-5.6012,-5.6012,-5.6012,-5.5973,-5.5896,-5.52,-5.4755,-5.4677,-5.3826,-5.2694,0.0,0.0,0.0,0.0,0.0,0.0,0.0,0.0,0.0,0.0,-4.9519,-4.9997,-5.0595,-5.0673,-5.0712,-5.0712,-5.0712,-5.0712,-5.0712,-5.0712,-5.0712,-5.0712,-5.0712,-5.0673,-5.0604,-5.0294,-5.0171,-5.0087,-4.9844,-4.9749,-4.9665,-4.9427,-4.9352,-4.9289,-4.8995,-4.8909,-4.8909,-4.8909,-4.8909,-4.8909,-4.8909,-4.8909,-4.8454,-4.6962,-4.7611,-4.7665,0.0,0.0,0.0,0.0,0.0,0.0,0.0,0.0,0.0,0.0,0.0,0.0,0.0,0.0,0.0,0.0,0.0,0.0,0.0,0.0,-4.5508,-4.6305,-4.7632,0.0,-4.8306,-4.8306,-4.8306,-4.8306,-4.8306,-4.8306,-4.8306,-4.8306,-4.8306,-4.8306,-4.8306,-4.8306,-4.8306,-4.8306,-4.8875,-4.9812,-5.0527,-5.1353,-5.2215,0.0,0.0,0.0,0.0,0.0,0.0,0.0,-5.5662,-5.6012,-5.6012,-5.6012,-5.6012,-5.6012,-5.6012,-5.6012,-5.6012,-5.6012,-5.6012,-5.6012,-5.6012,-5.6012,-5.6012,-5.5702,-5.5528,-5.5528,-5.4716,-5.385,0.0,0.0,0.0,0.0,0.0,0.0,0.0,0.0,-4.9405,-4.9847,-5.0142,-5.0434,-5.0712,-5.0712,-5.0712,-5.0712,-5.0712,-5.0712,-5.0712,-5.0712,-5.0712,-5.0712,-5.0712,-5.0712,-5.0673,-5.0544,-5.0358,-5.0183,-5.0056,-4.9936,-4.9776,-4.9684,-4.9641,-4.9569,-4.927,-4.9209,-4.9144,-4.896,-4.8909,-4.8909,-4.8909,-4.8909,-4.8709,-4.8143,-4.7776,-4.7555,0.0,0.0,0.0,0.0,0.0,0.0,0.0,0.0,0.0,0.0,0.0,0.0,0.0,0.0,0.0,0.0,0.0,0.0,-4.3638,0.0,-4.5893,-4.6694,-4.7769,-4.8306,-4.8306,-4.8306,-4.8306,-4.8306,-4.8306,-4.8306,-4.8306,-4.8306,-4.8306,-4.8306,-4.8306,-4.8306,-4.8306,-4.8306,-4.882,-4.9702,-5.0508,-5.1316,-5.2105,-5.1193,0.0,-5.1449,0.0,-5.3771,-5.4255,-5.5764,-5.6012,-5.6012,-5.6012,-5.6012,-5.6012,-5.6012,-5.6012,-5.6012,-5.6012,-5.6012,-5.6012,-5.6012,-5.6012,-5.6012,-5.6012,-5.6012,0.0,-5.6012,-5.5451,-5.4842,-5.4237,-5.2367,0.0,0.0,0.0,0.0,0.0,-4.9879,-5.0111,-5.0262,-5.0576,-5.0702,-5.0712,-5.0712,-5.0712,-5.0712,-5.0712,-5.0712,-5.0712,-5.0712,-5.0712,-5.0712,-5.0712,-5.0712,-5.0712,-5.0712,-5.0544,-5.0347,-5.0347,-5.0214,-5.0038,-4.993,-4.9923,-4.9857,-4.9583,-4.9514,-4.9454,-4.922,-4.9171,-4.9171,-4.9171,-4.9108,-4.9044,-4.9044,-4.8105,-4.7666,0.0,0.0,0.0,0.0,0.0,0.0,0.0,0.0,0.0,0.0,0.0,0.0,0.0,0.0,0.0,0.0,0.0,0.0,0.0,0.0,0.0,0.0,0.0,-4.8306,-4.8306,-4.8306,-4.8306,-4.8306,-4.8306,-4.8306,-4.8306,-4.8306,-4.8306,-4.8306,-4.8306,-4.8306,-4.8306,-4.8306,-4.8673,-4.9353,-5.0417,-5.1151,-5.1793,-5.3978,-5.3705,-5.3741,-5.5636,-5.5965,-5.5965,-5.6003,-5.6012,-5.6012,-5.6012,-5.6012,-5.6012,-5.6012,-5.6012,-5.6012,-5.6012,-5.6012,-5.6012,-5.6012,-5.6012,-5.6012,0.0,0.0,-5.6012,-5.6012,-5.5993,-5.5578,-5.4785,0.0,0.0,-5.1358,0.0,0.0,-5.0095,-5.0107,-5.0349,-5.0793,-5.0739,-5.0692,-5.0712,-5.0712,-5.0712,-5.0712,-5.0712,-5.0712,-5.0712,-5.0712,-5.0712,-5.0712,-5.0712,-5.0712,-5.0712,-5.0712,-5.0712,-5.0683,-5.0683,-5.0683,-5.0614,-5.0283,-5.0195,-5.0135,-4.9851,-4.9803,-4.9784,-4.9803,-4.9803,-4.9803,-4.9803,-4.9569,-4.938,-4.938,-4.9108,-4.8855,-4.8804,0.0,0.0,0.0,0.0,0.0,0.0,0.0,0.0,0.0,0.0,0.0,0.0,0.0,0.0,0.0,0.0,0.0,-4.3708,-4.5263,0.0,-4.6113,-4.7576,-4.8306,-4.8306,-4.8306,-4.8306,-4.8306,-4.8306,-4.8306,-4.8306,-4.8306,-4.8306,-4.8306,-4.8306,-4.8306,-4.8306,-4.8306,-4.8324,-4.8526,-5.0196,-5.082,-5.1041,-5.5716,-5.5561,-5.5485,-5.6044,-5.6048,-5.6012,-5.6012,-5.6012,-5.6012,-5.6012,-5.6012,-5.6012,-5.6012,0.0,-5.6012,0.0,-5.6012,-5.6012,0.0,-5.6012,-5.6012,-5.6012,-5.6012,-5.6012,-5.6012,-5.6012,-5.5877,-5.5625,0.0,0.0,0.0,-5.1233,-5.102,-5.1517,-5.0903,-5.0718,-5.0855,-5.0793,-5.0748,-5.0692,-5.0692,-5.0702,-5.0712,-5.0712,-5.0712,-5.0712,-5.0712,-5.0712,-5.0712,-5.0712,-5.0712,-5.0712,-5.0712,-5.0712,-5.0712,-5.0712,-5.0712,-5.0673,-5.0565,-5.0544,-5.0472,-5.0147,-5.0068,-5.0019,-4.9838,-4.9803,-4.9803,-4.9803,-4.9602,-4.9399,-4.9399,-4.9127,-4.8891,-4.8874,0.0,0.0,0.0,0.0,0.0,0.0,0.0,0.0,0.0,0.0,0.0,0.0,0.0,0.0,0.0,0.0,0.0,0.0,-4.5992,0.0,-4.6771,-4.7788,-4.8306,-4.8306,-4.8306,-4.8306,-4.8306,-4.8306,-4.8306,-4.8306,-4.8306,-4.8306,-4.8306,-4.8306,-4.8306,-4.8306,-4.8306,-4.8306,-4.8508,-5.0178,-5.0802,-5.1041,-5.6516,-5.6422,-5.634,-5.6226,-5.6139,-5.6067,-5.602,-5.6012,-5.6012,-5.6012,-5.6012,-5.6012,-5.6012,-5.6012,0.0,-5.6012,-5.6012,0.0,-5.6012,-5.6012,-5.6012,-5.6012,-5.6012,-5.6012,-5.6012,0.0,0.0,-5.6012,-5.4872,-5.403,-5.3472,-5.2596,-5.2357,-5.2647,-5.1771,-5.136,-5.1324,-5.099,-5.0793,-5.0748,-5.071,-5.0702,-5.0693,-5.0693,-5.0712,-5.0712,-5.0712,-5.0712,-5.0712,-5.0712,-5.0712,-5.0712,-5.0712,-5.0712,-5.0712,-5.0712,-5.0712,-5.0712,-5.0712,-5.0712,-5.0653,-5.0432,-5.038,-5.0347,-5.0178,-5.013,-5.013,-5.013,-4.9817,-4.9558,-4.9558,-4.9188,-4.8909,-4.8909,0.0,0.0,0.0,0.0,0.0,0.0,0.0,0.0,0.0,-4.4648,0.0,0.0,0.0,0.0,0.0,0.0,0.0,-4.5794,-4.6942,0.0,-4.7553,-4.8048,-4.8306,-4.8306,-4.8306,-4.8306,-4.8306,-4.8306,-4.8306,-4.8306,-4.8306,-4.8306,-4.8306,-4.8306,-4.8306,-4.8306,-4.8306,-4.8306,-4.8508,-5.0178,-5.0802,-5.1041,-5.652,-5.6491,0.0,0.0,-5.6201,0.0,-5.6018,-5.6012,-5.6012,-5.6012,-5.6012,-5.6012,-5.6012,-5.6012,-5.6012,-5.6012,0.0,0.0,0.0,-5.6012,-5.6012,-5.6012,-5.6012,0.0,-5.6012,-5.6012,-5.6012,-5.6012,-5.5258,-5.4871,-5.4851,-5.4,-5.3594,-5.3556,-5.2693,-5.2263,-5.2155,-5.141,-5.1037,-5.0975,-5.0844,-5.0778,-5.0769,-5.0712,-5.0693,-5.0712,-5.0712,-5.0712,-5.0712,-5.0712,-5.0712,-5.0712,-5.0712,-5.0712,-5.0712,-5.0712,-5.0712,-5.0712,-5.0712,-5.0712,-5.0712,-5.0712,-5.0712,-5.0712,-5.0712,-5.0712,-5.0712,-5.0712,-5.0225,-4.983,-4.983,-4.934,-4.8959,-4.8943,-4.9206,-4.9302,-4.8976,0.0,0.0,0.0,0.0,0.0,0.0,-4.5932,-4.5972,0.0,0.0,0.0,0.0,0.0,0.0,-4.7334,-4.7996,-4.8306,-4.8306,-4.8306,-4.8306,-4.8306,-4.8306,-4.8306,-4.8306,-4.8306,-4.8306,-4.8306,-4.8306,-4.8306,-4.8306,-4.8306,-4.8306,-4.8306,-4.8306,-4.8306,-4.8508,-5.0178,-5.0802,-5.1041,0.0,0.0,-5.6447,-5.6294,-5.6222,-5.6148,-5.6018,-5.6012,-5.6012,-5.6012,-5.6012,-5.6012,-5.6012,-5.6012,-5.6012,-5.6012,-5.6012,-5.6012,-5.6012,-5.6012,-5.6012,-5.6012,-5.6012,-5.6012,-5.6012,-5.6012,-5.6012,-5.6012,-5.5818,-5.5722,-5.5702,-5.4871,-5.4484,-5.4445,-5.3575,-5.3188,-5.3152,-5.2959,-5.2857,-5.2737,-5.2052,-5.1729,-5.1626,-5.0961,-5.0702,-5.0712,-5.0712,-5.0712,-5.0712,-5.0712,-5.0712,-5.0712,-5.0712,-5.0712,-5.0712,-5.0712,-5.0712,-5.0712,-5.0712,-5.0712,-5.0712,-5.0712,-5.0712,-5.0712,-5.0712,-5.0712,-5.0712,-5.0712,-5.0369,-5.0111,-5.0111,-4.9825,-4.9506,-4.9318,-4.951,-4.9612,-4.9318,0.0,0.0,0.0,-4.8065,-4.7674,-4.7078,-4.6776,-4.6454,0.0,0.0,0.0,0.0,0.0,-4.6846,-4.8163,-4.8365,-4.8401,-4.8306,-4.8306,-4.8306,-4.8306,-4.8306,-4.8306,-4.8306,-4.8306,-4.8306,-4.8306,-4.8306,-4.8306,-4.8306,-4.8306,-4.8306,-4.8306,-4.8306,-4.8306,-4.8508,-5.0178,-5.0802,-5.1041,-5.6601,-5.6579,-5.6504,-5.6413,-5.6367,-5.6285,-5.6124,-5.6087,-5.6064,-5.602,-5.6012,-5.6012,-5.6012,-5.6012,-5.6012,-5.6012,-5.6012,-5.6012,-5.6012,-5.6012,-5.6012,-5.6012,-5.6012,-5.6012,-5.6012,-5.6012,-5.6012,-5.6012,-5.6012,-5.6012,-5.5993,-5.5548,-5.5354,-5.5316,-5.4465,-5.4097,-5.4078,-5.3672,-5.3489,-5.3398,-5.2898,-5.2661,-5.2539,-5.1672,-5.1336,-5.1279,-5.0846,-5.0702,-5.0702,-5.0693,-5.0712,-5.0693,-5.0693,-5.0702,-5.0693,-5.0693,-5.0702,-5.0712,-5.0712,-5.0712,-5.0712,-5.0712,-5.0712,-5.0712,-5.0712,-5.0712,-5.0712,-5.0712,-5.0432,-5.0195,-5.0195,-4.9968,-4.9749,-4.9598,-4.8876,-4.8626,-4.947,-4.8858,0.0,-4.9252,-4.9213,-4.8997,-4.8661,-4.838,-4.8025,-4.7532,0.0,0.0,-4.7684,-4.7684,-4.796,-4.8624,-4.855,-4.8457,-4.8382,-4.8325,-4.8306,-4.8306,-4.8306,-4.8306,-4.8306,-4.8306,-4.8306,-4.8306,-4.8306,-4.8306,-4.8306,-4.8306,-4.8306,-4.8306,-4.8306,-4.8545,-4.904,-5.0325,-5.1041,-5.1536,-5.6601,-5.6601,-5.658,-5.6515,-5.6508,-5.6433,-5.6242,-5.6207,-5.6148,-5.6051,-5.601,-5.6012,-5.6012,-5.6012,-5.6012,-5.6012,-5.6012,-5.6012,-5.6012,-5.6012,-5.6012,-5.6012,-5.6012,-5.6012,-5.6012,-5.6012,-5.6012,-5.6012,-5.6012,-5.6012,-5.6012,-5.6012,-5.6012,-5.5973,-5.5296,-5.4987,-5.4929,-5.4194,-5.3884,-5.3865,-5.3688,-5.3612,-5.3479,-5.2478,-5.2094,-5.1969,-5.1056,-5.071,-5.073,-5.0721,-5.0712,-5.0721,-5.072,-5.0721,-5.0712,-5.0711,-5.0702,-5.0712,-5.0712,-5.0712,-5.0712,-5.0712,-5.0712,-5.0712,-5.0712,-5.0712,-5.0712,-5.0712,-5.0483,-5.0272,-5.0272,-5.0087,-4.984,-4.9554,-4.8215,-4.7753,-4.9286,0.0,-4.7977,-5.0027,-5.0075,-5.0025,-5.026,-5.0006,-4.9749,-4.9488,-4.9411,0.0,0.0,-4.8909,-4.8874,-4.8822,-4.8624,-4.8531,-4.8513,-4.8363,-4.8306,-4.8306,-4.8306,-4.8306,-4.8306,-4.8306,-4.8306,-4.8306,-4.8306,-4.8306,-4.8306,-4.8306,-4.8306,-4.8324,-4.8434,-4.8948,-4.9721,-5.0637,-5.1408,-5.2105,-5.6601,-5.6601,-5.658,-5.6515,-5.6508,-5.6447,-5.6303,-5.6247,-5.6188,-5.6161,-5.6064,-5.6012,-5.6012,-5.6012,-5.6012,-5.6012,-5.6012,-5.6012,-5.6012,-5.6012,-5.6012,-5.6012,-5.6012,-5.6012,-5.6012,-5.6012,-5.6012,-5.6012,-5.6012,-5.6012,-5.6012,-5.6012,-5.6012,-5.5993,-5.5877,-5.5818,-5.5799,-5.5664,-5.5606,-5.5548,-5.4862,-5.4547,-5.4327,-5.2707,-5.2101,-5.1978,-5.1101,-5.0784,-5.0784,-5.0784,-5.0775,-5.0775,-5.0784,-5.0748,-5.0711,-5.0701,-5.0702,-5.0712,-5.0712,-5.0712,-5.0712,-5.0712,-5.0712,-5.0712,-5.0712,-5.0712,-5.0712,-5.0712,-5.0663,-5.0624,-5.0624,-5.0594,-5.0015,-4.839,-4.9213,-4.9614,0.0,0.0,-5.0207,-5.0576,-5.0594,-5.0584,-5.0614,-5.0336,-5.0038,-4.9762,-4.9529,-4.9257,-4.8926,-4.8909,-4.8891,-4.8891,-4.8804,-4.8661,-4.8513,-4.8363,-4.8306,-4.8306,-4.8306,-4.8306,-4.8306,-4.8306,-4.8306,-4.8306,-4.8306,-4.8306,-4.8306,-4.8306,-4.8306,-4.8379,-4.9095,-4.9482,-4.9776,-5.1261,-5.1885,-5.2105,-5.6601,-5.6601,-5.6582,-5.6557,-5.6555,-5.6527,-5.6422,-5.6383,-5.6338,-5.6266,-5.6168,-5.6109,-5.6109,-5.6051,-5.6012,-5.6012,-5.6012,-5.6012,-5.6012,-5.6012,-5.6012,-5.6012,-5.6012,-5.6012,-5.6012,-5.6012,-5.6012,-5.6012,-5.6012,-5.6012,-5.6012,-5.6012,-5.6012,-5.6012,-5.6012,-5.6012,-5.6012,-5.6012,-5.6012,-5.5973,-5.5606,-5.5442,-5.5213,-5.3503,-5.2857,-5.2685,-5.1346,-5.0855,-5.0846,-5.081,-5.0801,-5.0801,-5.0846,-5.0784,-5.0701,-5.0738,-5.073,-5.0712,-5.0712,-5.0712,-5.0712,-5.0712,-5.0712,-5.0712,-5.0712,-5.0712,-5.0712,-5.0712,-5.0712,-5.0712,-5.0712,-5.0712,-5.042,-4.9501,-4.9022,0.0,0.0,-4.9022,-4.9237,-5.0548,-5.0712,-5.0712,-5.0712,-5.0554,-5.0336,-5.005,-4.991,-4.9641,-4.919,-4.9176,-4.9094,-4.8909,-4.8821,-4.8733,-4.855,-4.8495,-4.8439,-4.8401,-4.8401,-4.8363,-4.8306,-4.8306,-4.8306,-4.8306,-4.8306,-4.8306,-4.8306,-4.8306,-4.8581,-4.904,-4.9445,-5.0143,-5.0987,-5.172,-5.227,-5.2711,-5.6601,-5.6601,-5.6601,-5.6601,-5.6601,-5.6581,-5.6527,-5.6515,-5.6455,-5.6367,-5.6276,-5.6224,-5.6224,-5.6112,-5.6051,-5.6051,-5.601,-5.6012,-5.6012,-5.6012,-5.6012,-5.6012,-5.6012,-5.6012,-5.6012,-5.6012,-5.6012,-5.6012,-5.6012,-5.6012,-5.6012,-5.6012,-5.6012,-5.6012,-5.6012,-5.6012,-5.6012,-5.6012,-5.6012,-5.6012,-5.6012,-5.6012,-5.5818,-5.4136,-5.3498,-5.3265,-5.1523,-5.0897,-5.0888,-5.0836,-5.0827,-5.0836,-5.0888,-5.0819,-5.0757,-5.0801,-5.0767,-5.0702,-5.0693,-5.0712,-5.0712,-5.0712,-5.0712,-5.0712,-5.0712,-5.0712,-5.0712,-5.0712,-5.0712,-5.0712,-5.0712,-5.0712,-5.0557,-5.0167,0.0,0.0,0.0,-4.885,-4.8629,-5.048,-5.0712,-5.0712,-5.0712,-5.0712,-5.0554,-5.0237,-5.0195,-4.9981,-4.9514,-4.9484,-4.9377,-4.9106,-4.8909,-4.875,-4.8642,-4.8624,-4.8569,-4.8532,-4.8532,-4.8476,-4.8382,-4.8344,-4.8343,-4.8325,-4.8306,-4.8416,-4.86,-4.86,-4.9114,-4.9904,-5.0088,-5.0914,-5.2013,-5.2197,-5.2674,-5.3185,-5.6601,-5.6601,-5.6601,-5.6601,-5.6601,-5.6601,-5.6582,-5.655,-5.6506,-5.6482,-5.637,-5.6279,-5.6279,-5.6222,-5.6201,-5.6201,-5.6064,-5.6012,-5.6012,-5.6012,-5.6012,-5.6012,-5.6012,-5.6012,-5.6012,-5.6012,-5.6012,-5.6012,-5.6012,-5.6012,-5.6012,-5.6012,-5.6012,-5.6012,-5.6012,-5.6012,-5.6012,-5.6012,-5.6012,-5.6012,-5.6012,-5.6012,-5.5818,-5.4136,-5.3498,-5.3265,-5.1536,-5.0898,-5.0898,-5.089,-5.089,-5.089,-5.0898,-5.0885,-5.0891,-5.0891,-5.0793,-5.0702,-5.0702,-5.0712,-5.0712,-5.0712,-5.0712,-5.0712,-5.0712,-5.0712,-5.0712,-5.0712,-5.0712,-5.0712,-5.0712,-5.0712,-5.0197,-4.8625,0.0,0.0,-4.8574,-4.9575,-5.0509,-5.0683,-5.0712,-5.0712,-5.0712,-5.0712,-5.0554,-5.0237,-5.0195,-5.0068,-4.979,-4.9776,-4.9762,-4.9716,-4.9141,-4.8787,-4.8787,-4.866,-4.8587,-4.8587,-4.8587,-4.8587,-4.8569,-4.8495,-4.8494,-4.8476,-4.8363,-4.8765,-4.95,-4.95,-4.9976,-5.0784,-5.1518,-5.1885,-5.2087,-5.2839,-5.3148,-5.3185,-5.6601,-5.6601,-5.6601,-5.6601,-5.6601,-5.6601,-5.6601,-5.658,-5.6558,-5.6558,-5.6471,-5.6419,-5.6419,-5.6331,-5.6251,-5.6251,-5.6175,-5.6132,-5.6132,-5.6051,-5.6012,-5.6012,-5.6012,-5.6012,-5.6012,-5.6012,-5.6012,-5.6012,-5.6012,-5.6012,-5.6012,-5.6012,-5.6012,-5.6012,-5.6012,-5.6012,-5.6012,-5.6012,-5.6012,-5.5973,-5.547,-5.5258,-5.5064,-5.3343,-5.2685,-5.2531,-5.1331,-5.0898,-5.0898,-5.0898,-5.0898,-5.0898,-5.0898,-5.0893,-5.0899,-5.0846,-5.0801,-5.0766,-5.0767,-5.074,-5.0712,-5.0712,-5.0712,-5.0712,-5.0712,-5.0712,-5.0712,-5.0712,-5.0712,-5.0712,-5.0712,-5.0712,-5.048,-4.9852,0.0,-5.048,-4.9841,-5.0294,-5.0712,-5.0712,-5.0712,-5.0712,-5.0712,-5.0712,-5.0653,-5.0514,-5.0504,-5.0369,-5.0056,-4.9878,-4.9803,-4.9803,-4.9565,-4.9327,-4.9176,-4.8925,-4.8768,-4.8715,-4.8715,-4.8678,-4.8624,-4.9141,-4.9381,-4.9381,-4.9765,-5.0093,-5.0387,-5.0365,-5.082,-5.1573,-5.1867,-5.2307,-5.2784,-5.3096,-5.3185,-5.3185,-5.6601,-5.6601,-5.6601,-5.6601,-5.6601,-5.6601,-5.6601,-5.6601,-5.6601,-5.6601,-5.6559,-5.6529,-5.6527,-5.6428,-5.6367,-5.6367,-5.6286,-5.6236,-5.6236,-5.6149,-5.6067,-5.5993,-5.6012,-5.6012,-5.6012,-5.6012,-5.6012,-5.6012,-5.6012,-5.6012,-5.6012,-5.6012,-5.6012,-5.6012,-5.6012,-5.6012,-5.6012,-5.6012,-5.5857,-5.5567,-5.5026,-5.4639,-5.4233,-5.2763,-5.221,-5.2094,-5.1215,-5.0898,-5.0898,-5.0898,-5.0898,-5.0898,-5.0898,-5.0901,-5.0897,-5.0844,-5.0827,-5.0838,-5.0838,-5.0785,-5.0731,-5.0712,-5.0702,-5.0712,-5.0712,-5.0712,-5.0712,-5.0712,-5.0712,-5.0712,-5.0712,-5.0712,-5.0712,-5.0712,-5.0712,-5.0712,-5.0712,-5.0712,-5.0712,-5.0712,-5.0712,-5.0712,-5.0712,-5.0712,-5.0712,-5.0712,-5.0712,-5.0604,-5.0369,-5.0178,-5.0094,-5.0094,-4.9987,-4.9976,-5.0052,-4.9474,-4.9302,-4.9515,-4.9515,-4.9545,-4.9652,-5.021,-5.0398,-5.0324,-5.0783,-5.1112,-5.1352,-5.1291,-5.1748,-5.2465,-5.2406,-5.2734,-5.323,-5.3206,-5.3185,-5.3185,-5.6593,-5.6593,-5.6593,-5.6593,-5.6593,-5.6593,-5.6593,-5.6593,-5.6595,-5.6599,-5.6599,-5.66,-5.6601,-5.6531,-5.6508,-5.6508,-5.6377,-5.6292,-5.6292,-5.6292,-5.6214,-5.601,-5.5993,-5.6012,-5.6012,-5.6012,-5.6012,-5.6012,-5.6012,-5.6012,-5.6012,-5.6012,-5.6012,-5.6012,-5.6012,-5.6012,-5.5993,-5.5993,-5.5528,-5.4793,-5.4774,-5.4252,-5.3382,-5.2519,-5.219,-5.2066,-5.1215,-5.0898,-5.0898,-5.0898,-5.0898,-5.0898,-5.0898,-5.0898,-5.0898,-5.0898,-5.0893,-5.0899,-5.0899,-5.0855,-5.0784,-5.071,-5.0702,-5.0693,-5.0693,-5.0712,-5.0712,-5.0712,-5.0712,-5.0712,-5.0712,-5.0712,-5.0712,-5.0712,-5.0712,-5.0712,-5.0712,-5.0712,-5.0712,-5.0712,-5.0712,-5.0712,-5.0712,-5.0712,-5.0712,-5.0712,-5.0712,-5.0712,-5.0712,-5.0712,-5.0712,-5.0712,-5.0388,-5.0627,-5.1498,-5.038,-5.0253,-5.1101,-5.1101,-5.1399,-5.1907,-5.1753,-5.1535,-5.1232,-5.1156,-5.158,-5.2318,-5.2318,-5.2799,-5.3481,-5.3359,-5.3318,-5.3297,-5.323,-5.3185,-5.3185,-5.6593,-5.6593,-5.6593,-5.6593,-5.6593,-5.6593,-5.6593,-5.6593,-5.6593,-5.6595,-5.6595,-5.6596,-5.6597,-5.6581,-5.6562,-5.6562,-5.6445,-5.6341,-5.6297,-5.6292,-5.6266,-5.622,-5.6168,-5.6094,-5.5993,-5.6012,-5.6012,-5.6012,-5.6012,-5.6012,-5.6012,-5.6012,-5.6012,-5.6012,-5.6012,-5.5702,-5.5161,-5.5161,-5.4677,-5.3826,-5.3207,-5.2821,-5.2492,-5.1621,-5.1293,-5.1254,-5.0995,-5.0898,-5.0898,-5.0898,-5.0898,-5.0898,-5.0898,-5.0898,-5.0898,-5.0898,-5.089,-5.0901,-5.0901,-5.0897,-5.0855,-5.0784,-5.0766,-5.0767,-5.0711,-5.0702,-5.0712,-5.0693,-5.0712,-5.0712,-5.0712,-5.0712,-5.0712,-5.0712,-5.0712,-5.0712,-5.0712,-5.0712,-5.0712,-5.0712,-5.0712,-5.0712,-5.0712,-5.0712,-5.0712,-5.0712,-5.0712,-5.0712,-5.0712,-5.0712,-5.0952,-5.1529,-5.1439,-5.1811,-5.2686,-5.1377,-5.1139,-5.1935,-5.1935,-5.2025,-5.2189,-5.2764,-5.2987,-5.2897,-5.3362,-5.3706,-5.3915,-5.3866,-5.3982,-5.4173,-5.3907,-5.3795,-5.3758,-5.3402,-5.3274,-5.3274,-5.6603,-5.6603,-5.6603,-5.6603,-5.6603,-5.6603,-5.6603,-5.6603,-5.6605,-5.6607,-5.6609,-5.6609,-5.6593,-5.6593,-5.6594,-5.6597,-5.6523,-5.6456,-5.6426,-5.6424,-5.6411,-5.6377,-5.6347,-5.6242,-5.6079,-5.6026,-5.6012,-5.6012,-5.6012,-5.6012,-5.6012,-5.6012,-5.5838,-5.5528,-5.5528,-5.5064,-5.4291,-5.4291,-5.3768,-5.2937,-5.2422,-5.1989,-5.1621,-5.1091,-5.0898,-5.0898,-5.0898,-5.0898,-5.0898,-5.0898,-5.0898,-5.0898,-5.0898,-5.0898,-5.0898,-5.0898,-5.0898,-5.0898,-5.0898,-5.0901,-5.0897,-5.0852,-5.0827,-5.0793,-5.0757,-5.0729,-5.0739,-5.0712,-5.0693,-5.0693,-5.0693,-5.0712,-5.0712,-5.0712,-5.0712,-5.0712,-5.0712,-5.0712,-5.0712,-5.0712,-5.0712,-5.0712,-5.0712,-5.0712,-5.0712,-5.0712,-5.0712,-5.0846,-5.1164,-5.1164,-5.1568,-5.2385,-5.2404,-5.2837,-5.3703,-5.2881,-5.2698,-5.3162,-5.3162,-5.3283,-5.3501,-5.402,-5.4197,-5.4105,-5.4496,-5.4674,-5.4674,-5.4647,-5.4616,-5.4601,-5.434,-5.424,-5.4206,-5.3888,-5.3644,-5.3505,-5.6606,-5.6606,-5.6606,-5.6606,-5.6606,-5.6606,-5.6606,-5.6606,-5.6608,-5.6598,-5.66,-5.6603,-5.6591,-5.6591,-5.6592,-5.6592,-5.6593,-5.6595,-5.6599,-5.6599,-5.6562,-5.6516,-5.6491,-5.6416,-5.6238,-5.6094,-5.601,-5.601,-5.6012,-5.6012,-5.6012,-5.5935,-5.5509,-5.4793,-5.4716,-5.4194,-5.3382,-5.3382,-5.2879,-5.2066,-5.2066,-5.1602,-5.0898,-5.0898,-5.0898,-5.0898,-5.0898,-5.0898,-5.0898,-5.0898,-5.0898,-5.0898,-5.0898,-5.0898,-5.0898,-5.0898,-5.0898,-5.0898,-5.0898,-5.0898,-5.0898,-5.0898,-5.085,-5.081,-5.081,-5.0801,-5.0793,-5.072,-5.071,-5.0711,-5.0702,-5.0693,-5.0693,-5.0693,-5.0712,-5.0712,-5.0712,-5.0712,-5.0712,-5.0712,-5.0712,-5.0712,-5.0712,-5.0712,-5.0731,-5.0808,-5.0808,-5.1164,-5.1962,-5.2019,-5.2423,-5.3299,-5.3318,-5.3722,-5.4607,-5.4607,-5.4607,-5.4607,-5.4607,-5.4863,-5.5339,-5.5339,-5.5164,-5.488,-5.488,-5.488,-5.488,-5.488,-5.488,-5.488,-5.472,-5.4671,-5.4655,-5.4566,-5.4238,-5.3869,-5.6606,-5.6606,-5.6606,-5.6606,-5.6606,-5.6606,-5.6606,-5.6606,-5.6606,-5.6608,-5.6608,-5.6591,-5.6593,-5.6593,-5.6596,-5.6603,-5.6609,-5.6593,-5.6594,-5.6598,-5.6581,-5.6582,-5.6528,-5.6477,-5.6433,-5.6253,-5.6167,-5.6167,-5.6059,-5.6012,-5.5993,-5.5354,-5.4967,-5.4774,-5.4097,-5.3304,-5.248,-5.248,-5.197,-5.1169,-5.1169,-5.1072,-5.0898,-5.0898,-5.0898,-5.0898,-5.0898,-5.0898,-5.0898,-5.0898,-5.0898,-5.0898,-5.0898,-5.0898,-5.0898,-5.0898,-5.0898,-5.0898,-5.0898,-5.0898,-5.0898,-5.0898,-5.089,-5.0885,-5.0872,-5.0891,-5.0855,-5.0793,-5.0784,-5.0766,-5.0711,-5.0702,-5.0692,-5.0693,-5.0712,-5.0712,-5.0712,-5.0712,-5.0712,-5.0712,-5.0712,-5.0712,-5.0712,-5.0712,-5.0952,-5.1587,-5.1635,-5.201,-5.2876,-5.2933,-5.3318,-5.4184,-5.4222,-5.4607,-5.5434,-5.5434,-5.5434,-5.5434,-5.5434,-5.5508,-5.5618,-5.5618,-5.5566,-5.5489,-5.5489,-5.5489,-5.5489,-5.5489,-5.5489,-5.5477,-5.5237,-5.5145,-5.5086,-5.4716,-5.4513,-5.4417,-5.6606,-5.6606,-5.6606,-5.6606,-5.6606,-5.6606,-5.6606,-5.6606,-5.6606,-5.6606,-5.6606,-5.6606,-5.6606,-5.6606,-5.6608,-5.6595,-5.6598,-5.6603,-5.6607,-5.6592,-5.6595,-5.6599,-5.6561,-5.6556,-5.6553,-5.6404,-5.632,-5.625,-5.6181,-5.6149,-5.613,-5.5288,-5.4686,-5.4272,-5.3358,-5.245,-5.1668,-5.1614,-5.1331,-5.0898,-5.0898,-5.0898,-5.0898,-5.0898,-5.0898,-5.0898,-5.0898,-5.0898,-5.0898,-5.0898,-5.0898,-5.0898,-5.0898,-5.0898,-5.0898,-5.0898,-5.0898,-5.0995,-5.1409,-5.1525,-5.1621,-5.2047,-5.2144,-5.1923,-5.1087,-5.0905,-5.0897,-5.0855,-5.0846,-5.0838,-5.0766,-5.0757,-5.0739,-5.0712,-5.0702,-5.0693,-5.0693,-5.0712,-5.0712,-5.0712,-5.0712,-5.0837,-5.1241,-5.1645,-5.2068,-5.2481,-5.2519,-5.2895,-5.378,-5.3818,-5.4203,-5.5049,-5.5068,-5.5261,-5.5703,-5.5703,-5.5703,-5.5703,-5.5703,-5.5703,-5.5703,-5.5703,-5.5703,-5.5703,-5.5703,-5.5703,-5.5703,-5.5703,-5.5703,-5.5692,-5.5551,-5.5485,-5.5461,-5.5212,-5.5002,-5.4804,-5.6606,-5.6606,-5.6606,-5.6606,-5.6606,-5.6606,-5.6606,-5.6606,-5.6606,-5.6606,-5.6606,-5.6606,-5.6606,-5.6606,-5.6606,-5.6606,-5.6606,-5.661,-5.6598,-5.66,-5.6607,-5.6597,-5.6598,-5.66,-5.6601,-5.6554,-5.646,-5.6332,-5.6316,-5.6215,-5.6054,-5.5197,-5.4355,-5.3533,-5.2557,-5.1736,-5.1109,-5.0998,-5.0942,-5.0942,-5.0942,-5.0942,-5.0942,-5.0942,-5.0942,-5.0961,-5.0932,-5.0925,-5.0925,-5.0925,-5.0925,-5.0937,-5.0906,-5.0898,-5.0937,-5.1072,-5.1111,-5.1312,-5.2182,-5.2422,-5.2597,-5.3323,-5.3498,-5.3111,-5.1679,-5.1343,-5.1335,-5.1341,-5.1341,-5.1324,-5.1262,-5.1234,-5.1236,-5.1163,-5.1153,-5.1163,-5.1145,-5.1145,-5.1154,-5.1145,-5.1135,-5.1395,-5.2058,-5.2779,-5.326,-5.3414,-5.3414,-5.3799,-5.4664,-5.4703,-5.5011,-5.5684,-5.5703,-5.5703,-5.5703,-5.5703,-5.5703,-5.5703,-5.5703,-5.5703,-5.5703,-5.5703,-5.5703,-5.5703,-5.5703,-5.5703,-5.5703,-5.5703,-5.5703,-5.5703,-5.5703,-5.5703,-5.5703,-5.5703,-5.5489,-5.516,-5.6606,-5.6606,-5.6606,-5.6606,-5.6606,-5.6606,-5.6606,-5.6606,-5.6606,-5.6606,-5.6606,-5.6606,-5.6606,-5.6606,-5.6606,-5.6606,-5.6606,-5.6606,-5.6608,-5.6596,-5.6602,-5.6605,-5.6591,-5.6596,-5.66,-5.6581,-5.6559,-5.6477,-5.6363,-5.5918,-5.5154,-5.4336,-5.3498,-5.2637,-5.1752,-5.128,-5.1183,-5.117,-5.1165,-5.1165,-5.1165,-5.1165,-5.1165,-5.1165,-5.1165,-5.1152,-5.1097,-5.1075,-5.1075,-5.1075,-5.1075,-5.1056,-5.0944,-5.0898,-5.1053,-5.1796,-5.2008,-5.2202,-5.3091,-5.3323,-5.3343,-5.3459,-5.3498,-5.344,-5.3207,-5.3149,-5.3149,-5.3141,-5.3141,-5.3133,-5.3063,-5.3054,-5.3056,-5.3039,-5.303,-5.3002,-5.2963,-5.3002,-5.3002,-5.2955,-5.2906,-5.2895,-5.301,-5.3126,-5.351,-5.426,-5.4318,-5.4684,-5.5491,-5.553,-5.5588,-5.5703,-5.5703,-5.5703,-5.5703,-5.5703,-5.5703,-5.5703,-5.5703,-5.5703,-5.5703,-5.5703,-5.5703,-5.5703,-5.5703,-5.5703,-5.5703,-5.5703,-5.5703,-5.5703,-5.5703,-5.5703,-5.5703,-5.5703,-5.5662,-5.5599,-5.6606,-5.6606,-5.6606,-5.6606,-5.6606,-5.6606,-5.6606,-5.6606,-5.6606,-5.6606,-5.6606,-5.6606,-5.6606,-5.6606,-5.6606,-5.6606,-5.6606,-5.6606,-5.6606,-5.6591,-5.6596,-5.6602,-5.6605,-5.6591,-5.6596,-5.6598,-5.6582,-5.6559,-5.6507,-5.6028,-5.5148,-5.4309,-5.345,-5.2569,-5.1667,-5.1263,-5.1241,-5.1222,-5.1203,-5.1203,-5.1203,-5.1203,-5.1203,-5.1203,-5.1203,-5.1195,-5.1176,-5.1157,-5.1152,-5.1109,-5.1099,-5.1159,-5.152,-5.1621,-5.1796,-5.2666,-5.2917,-5.3111,-5.3981,-5.4233,-5.4329,-5.4774,-5.4909,-5.4909,-5.4909,-5.4909,-5.4639,-5.3691,-5.3498,-5.3498,-5.3453,-5.3473,-5.3436,-5.3412,-5.3403,-5.3395,-5.3367,-5.3387,-5.3397,-5.335,-5.3687,-5.3927,-5.3927,-5.4339,-5.4761,-5.5145,-5.5164,-5.5318,-5.5684,-5.5703,-5.5703,-5.5703,-5.5703,-5.5703,-5.5703,-5.5703,-5.5703,-5.5703,-5.5703,-5.5703,-5.5703,-5.5703,-5.5703,-5.5703,-5.5703,-5.5703,-5.5703,-5.5703,-5.5703,-5.5703,-5.5703,-5.5703,-5.5703,-5.5703,-5.5703,-5.5703]},{"header":{"parameterUnit":"m.s-1","parameterCategory":1,"la1":30.6,"la2":28.766,"lo1":-90.7593,"lo2":-88.6598,"dy":0.0162,"dx":0.0183,"nx":116,"ny":114,"refTime":"2023-06-29T12:00:00:Z","depth":0,"parameterNumber":3,"parameterNumberName":"V-component_of_WINDS"},"data":[0.0,0.0,0.0,0.0,0.0,0.0,0.0,0.0,0.0,0.0,0.0,0.0,0.0,0.0,0.0,0.0,0.0,0.0,0.0,0.0,0.0,0.0,0.0,0.0,0.0,0.0,0.0,0.0,0.0,0.0,0.0,0.0,0.0,0.0,0.0,0.0,0.0,0.0,0.0,0.0,0.0,0.0,0.0,0.0,0.0,0.0,0.0,0.0,0.0,0.0,0.0,0.0,0.0,0.0,0.0,0.0,0.0,0.0,0.0,0.0,0.0,0.0,0.0,0.0,0.0,0.0,0.0,0.0,0.0,0.0,0.0,0.0,0.0,0.0,0.0,0.0,0.0,0.0,0.0,0.0,0.0,0.0,0.0,0.0,0.0,0.0,0.0,0.0,0.0,0.0,0.0,0.0,0.0,0.0,0.0,0.0,0.0,0.0,0.0,0.0,0.0,0.0,0.0,0.0,0.0,0.0,0.0,0.0,0.0,0.0,0.0,0.0,0.0,0.0,0.0,0.0,0.0,0.0,0.0,0.0,0.0,0.0,0.0,0.0,0.0,0.0,0.0,0.0,0.0,0.0,0.0,0.0,0.0,0.0,0.0,0.0,0.0,0.0,0.0,0.0,0.0,0.0,0.0,0.0,0.0,0.0,0.0,0.0,0.0,0.0,0.0,0.0,0.0,0.0,0.0,0.0,0.0,0.0,0.0,0.0,0.0,0.0,0.0,0.0,0.0,0.0,0.0,0.0,0.0,0.0,0.0,0.0,0.0,0.0,0.0,0.0,0.0,0.0,0.0,0.0,0.0,0.0,0.0,0.0,0.0,0.0,0.0,0.0,0.0,0.0,0.0,0.0,0.0,0.0,0.0,0.0,0.0,0.0,0.0,0.0,0.0,0.0,0.0,0.0,0.0,0.0,0.0,0.0,0.0,0.0,0.0,0.0,0.0,0.0,0.0,0.0,0.0,0.0,0.0,0.0,0.0,0.0,0.0,0.0,0.0,0.0,0.0,0.0,0.0,0.0,0.0,0.0,0.0,0.0,0.0,0.0,0.0,0.0,0.0,0.0,0.0,0.0,0.0,0.0,0.0,0.0,0.0,0.0,0.0,0.0,0.0,0.0,0.0,0.0,0.0,0.0,0.0,0.0,0.0,0.0,0.0,0.0,0.0,0.0,0.0,0.0,0.0,0.0,0.0,0.0,0.0,0.0,0.0,0.0,0.0,0.0,0.0,0.0,0.0,0.0,0.0,0.0,0.0,0.0,0.0,0.0,0.0,0.0,0.0,0.0,0.0,0.0,0.0,0.0,0.0,0.0,0.0,0.0,0.0,0.0,0.0,0.0,0.0,0.0,0.0,0.0,0.0,0.0,0.0,0.0,0.0,0.0,0.0,0.0,0.0,0.0,0.0,0.0,0.0,0.0,0.0,0.0,0.0,0.0,0.0,0.0,0.0,0.0,0.0,0.0,0.0,0.0,0.0,0.0,0.0,0.0,0.0,0.0,0.0,0.0,0.0,0.0,0.0,0.0,0.0,0.0,0.0,0.0,0.0,0.0,0.0,0.0,0.0,0.0,0.0,0.0,0.0,0.0,0.0,0.0,0.0,0.0,0.0,0.0,0.0,0.0,0.0,0.0,0.0,0.0,0.0,0.0,0.0,0.0,0.0,0.0,0.0,0.0,0.0,0.0,0.0,0.0,0.0,0.0,0.0,0.0,0.0,0.0,0.0,0.0,0.0,0.0,0.0,0.0,0.0,0.0,0.0,0.0,0.0,0.0,0.0,0.0,0.0,0.0,0.0,0.0,0.0,0.0,0.0,0.0,0.0,0.0,0.0,0.0,0.0,0.0,0.0,0.0,0.0,0.0,0.0,0.0,0.0,0.0,0.0,0.0,0.0,0.0,0.0,0.0,0.0,0.0,0.0,0.0,0.0,0.0,0.0,0.0,0.0,0.0,0.0,0.0,0.0,0.0,0.0,0.0,0.0,0.0,0.0,0.0,0.0,0.0,0.0,0.0,0.0,0.0,0.0,0.0,0.0,0.0,0.0,0.0,0.0,0.0,0.0,0.0,0.0,0.0,0.0,0.0,0.0,0.0,0.0,0.0,0.0,0.0,0.0,0.0,0.0,0.0,0.0,0.0,0.0,0.0,0.0,0.0,0.0,0.0,0.0,0.0,0.0,0.0,0.0,0.0,0.0,0.0,0.0,0.0,0.0,0.0,0.0,0.0,0.0,0.0,0.0,0.0,0.0,0.0,0.0,0.0,0.0,0.0,0.0,0.0,0.0,0.0,0.0,0.0,0.0,0.0,0.0,0.0,0.0,0.0,0.0,0.0,0.0,0.0,0.0,0.0,0.0,0.0,0.0,0.0,0.0,0.0,0.0,0.0,0.0,0.0,0.0,0.0,0.0,0.0,0.0,0.0,0.0,0.0,0.0,0.0,0.0,0.0,0.0,0.0,0.0,0.0,0.0,0.0,0.0,0.0,0.0,0.0,0.0,0.0,0.0,0.0,0.0,0.0,0.0,0.0,0.0,0.0,0.0,0.0,0.0,0.0,0.0,0.0,0.0,0.0,0.0,0.0,0.0,0.0,0.0,0.0,0.0,0.0,0.0,0.0,0.0,0.0,0.0,0.0,0.0,0.0,0.0,0.0,0.0,0.0,0.0,0.0,0.0,0.0,0.0,0.0,0.0,0.0,0.0,0.0,0.0,0.0,0.0,0.0,0.0,0.0,0.0,0.0,0.0,0.0,0.0,0.0,0.0,0.0,0.0,0.0,0.0,0.0,0.0,0.0,0.0,0.0,0.0,0.0,0.0,0.0,0.0,0.0,0.0,0.0,0.0,0.0,0.0,0.0,0.0,0.0,0.0,0.0,0.0,0.0,0.0,0.0,0.0,0.0,0.0,0.0,0.0,0.0,0.0,0.0,0.0,0.0,0.0,0.0,0.0,0.0,0.0,0.0,0.0,0.0,0.0,0.0,0.0,0.0,0.0,0.0,0.0,0.0,0.0,0.0,0.0,0.0,0.0,0.0,0.0,0.0,0.0,0.0,0.0,0.0,0.0,0.0,0.0,0.0,0.0,0.0,0.0,0.0,0.0,0.0,0.0,0.0,0.0,0.0,0.0,0.0,0.0,0.0,0.0,0.0,0.0,0.0,0.0,0.0,0.0,0.0,0.0,0.0,0.0,0.0,0.0,0.0,0.0,0.0,0.0,0.0,0.0,0.0,0.0,0.0,0.0,0.0,0.0,0.0,0.0,0.0,0.0,0.0,0.0,0.0,0.0,0.0,0.0,0.0,0.0,0.0,0.0,0.0,0.0,0.0,0.0,0.0,0.0,0.0,0.0,0.0,0.0,0.0,0.0,0.0,0.0,0.0,0.0,0.0,0.0,0.0,0.0,0.0,0.0,0.0,0.0,0.0,0.0,0.0,0.0,0.0,0.0,0.0,0.0,0.0,0.0,0.0,0.0,0.0,0.0,0.0,0.0,0.0,0.0,0.0,0.0,0.0,0.0,0.0,0.0,0.0,0.0,0.0,0.0,0.0,0.0,0.0,0.0,0.0,0.0,0.0,0.0,0.0,0.0,0.0,0.0,0.0,0.0,0.0,0.0,0.0,0.0,0.0,0.0,0.0,0.0,0.0,0.0,0.0,0.0,0.0,0.0,0.0,0.0,0.0,0.0,0.0,0.0,0.0,0.0,0.0,0.0,0.0,0.0,0.0,0.0,0.0,0.0,0.0,0.0,0.0,0.0,0.0,0.0,0.0,0.0,0.0,0.0,0.0,0.0,0.0,0.0,0.0,0.0,0.0,0.0,0.0,0.0,0.0,0.0,0.0,0.0,0.0,0.0,0.0,0.0,0.0,0.0,0.0,0.0,0.0,0.0,0.0,0.0,0.0,0.0,0.0,0.0,0.0,0.0,0.0,0.0,0.0,0.0,0.0,0.0,0.0,0.0,0.0,0.0,0.0,0.0,0.0,0.0,0.0,0.0,0.0,0.0,0.0,0.0,0.0,0.0,0.0,0.0,0.0,0.0,0.0,0.0,0.0,0.0,0.0,0.0,0.0,0.0,0.0,0.0,0.0,0.0,0.0,0.0,0.0,0.0,0.0,0.0,0.0,0.0,0.0,0.0,0.0,0.0,0.0,0.0,0.0,0.0,0.0,0.0,0.0,0.0,0.0,0.0,0.0,0.0,0.0,0.0,0.0,0.0,0.0,0.0,0.0,0.0,0.0,0.0,0.0,0.0,0.0,0.0,0.0,0.0,0.0,0.0,0.0,0.0,0.0,0.0,0.0,0.0,0.0,0.0,0.0,0.0,0.0,0.0,0.0,0.0,0.0,0.0,0.0,0.0,0.0,0.0,0.0,0.0,0.0,0.0,0.0,0.0,0.0,0.0,0.0,0.0,0.0,0.0,0.0,0.0,0.0,0.0,0.0,0.0,0.0,0.0,0.0,0.0,0.0,0.0,0.0,0.0,0.0,0.0,0.0,0.0,0.0,0.0,0.0,0.0,0.0,0.0,0.0,0.0,0.0,0.0,0.0,0.0,0.0,0.0,0.0,0.0,0.0,0.0,0.0,0.0,0.0,0.0,0.0,0.0,0.0,0.0,0.0,0.0,0.0,0.0,0.0,0.0,0.0,0.0,0.0,0.0,0.0,0.0,0.0,0.0,0.0,0.0,0.0,0.0,0.0,0.0,0.0,0.0,0.0,0.0,0.0,0.0,0.0,0.0,0.0,0.0,0.0,0.0,0.0,0.0,0.0,0.0,0.0,0.0,0.0,0.0,0.0,0.0,0.0,0.0,0.0,0.0,0.0,0.0,0.0,0.0,0.0,0.0,0.0,0.0,0.0,0.0,0.0,0.0,0.0,0.0,0.0,0.0,0.0,0.0,0.0,0.0,0.0,0.0,0.0,0.0,0.0,0.0,0.0,0.0,0.0,0.0,0.0,0.0,0.0,0.0,0.0,0.0,0.0,0.0,0.0,0.0,0.0,0.0,0.0,0.0,0.0,0.0,0.0,0.0,0.0,0.0,0.0,0.0,0.0,0.0,0.0,0.0,0.0,0.0,0.0,0.0,0.0,0.0,0.0,0.0,0.0,0.0,0.0,0.0,0.0,0.0,0.0,0.0,0.0,0.0,0.0,0.0,0.0,0.0,0.0,0.0,0.0,0.0,0.0,0.0,0.0,0.0,0.0,0.0,0.0,0.0,0.0,0.0,0.0,0.0,0.0,0.0,0.0,0.0,0.0,0.0,0.0,0.0,0.0,0.0,0.0,0.0,0.0,0.0,0.0,0.0,0.0,0.0,0.0,0.0,0.0,0.0,0.0,0.0,0.0,0.0,0.0,0.0,0.0,0.0,0.0,0.0,0.0,0.0,0.0,0.0,0.0,0.0,0.0,0.0,0.0,0.0,0.0,0.0,0.0,0.0,0.0,0.0,0.0,0.0,0.0,0.0,0.0,0.0,0.0,0.0,0.0,0.0,0.0,0.0,0.0,0.0,0.0,0.0,0.0,0.0,0.0,0.0,0.0,0.0,0.0,0.0,0.0,0.0,0.0,0.0,0.0,0.0,0.0,0.0,0.0,0.0,0.0,0.0,0.0,0.0,0.0,0.0,0.0,0.0,0.0,0.0,0.0,0.0,0.0,0.0,0.0,0.0,0.0,0.0,0.0,0.0,0.0,0.0,0.0,0.0,0.0,0.0,0.0,0.0,0.0,0.0,0.0,0.0,0.0,0.0,0.0,0.0,0.0,0.0,0.0,0.0,0.0,0.0,0.0,0.0,0.0,0.0,0.0,0.0,0.0,0.0,0.0,0.0,0.0,0.0,0.0,0.0,0.0,0.0,0.0,0.0,0.0,0.0,0.0,0.0,0.0,0.0,0.0,0.0,0.0,0.0,0.0,0.0,0.0,0.0,0.0,0.0,0.0,0.0,0.0,0.0,0.0,0.0,0.0,0.0,0.0,0.0,0.0,0.0,0.0,0.0,0.0,0.0,0.0,0.0,0.0,0.0,0.0,0.0,0.0,0.0,0.0,0.0,0.0,0.0,0.0,0.0,0.0,0.0,0.0,0.0,0.0,0.0,0.0,0.0,0.0,0.0,0.0,-2.248,0.0,0.0,0.0,0.0,0.0,0.0,0.0,0.0,0.0,0.0,0.0,0.0,0.0,0.0,0.0,0.0,0.0,0.0,0.0,0.0,0.0,0.0,0.0,0.0,0.0,0.0,0.0,0.0,0.0,0.0,0.0,0.0,0.0,0.0,0.0,0.0,0.0,0.0,0.0,-0.5329,-0.5993,-0.6589,-0.6081,-0.5994,-0.6199,0.0,0.0,0.0,0.0,0.0,0.0,0.0,0.0,0.0,0.0,0.0,0.0,0.0,0.0,0.0,0.0,0.0,0.0,0.0,0.0,0.0,0.0,0.0,0.0,0.0,0.0,0.0,0.0,0.0,0.0,0.0,0.0,0.0,0.0,0.0,0.0,0.0,0.0,0.0,0.0,0.0,0.0,0.0,0.0,0.0,0.0,0.0,0.0,0.0,0.0,0.0,0.0,0.0,0.0,0.0,0.0,0.0,0.0,0.0,0.0,0.0,0.0,0.0,0.0,0.0,0.0,0.0,0.0,0.0,0.0,0.0,-2.3513,0.0,0.0,0.0,0.0,0.0,0.0,0.0,0.0,0.0,0.0,0.0,0.0,0.0,0.0,0.0,0.0,0.0,0.0,0.0,0.0,0.0,0.0,0.0,0.0,0.0,0.0,0.0,0.0,0.0,0.0,0.0,0.0,0.0,0.0,0.0,0.0,0.0,-0.5417,-0.6453,-0.735,-0.8096,-0.7436,-0.7062,-0.6996,-0.7075,0.0,0.0,0.0,0.0,0.0,0.0,0.0,0.0,0.0,0.0,0.0,0.0,0.0,0.0,0.0,0.0,0.0,0.0,0.0,0.0,0.0,0.0,0.0,0.0,0.0,0.0,0.0,0.0,0.0,0.0,0.0,0.0,0.0,0.0,0.0,0.0,0.0,0.0,0.0,0.0,0.0,0.0,0.0,0.0,0.0,0.0,0.0,0.0,0.0,0.0,0.0,0.0,0.0,0.0,0.0,0.0,0.0,0.0,0.0,0.0,0.0,0.0,0.0,0.0,0.0,-2.5291,-2.4427,-2.4534,-2.5425,-2.5766,-2.539,-2.4553,0.0,0.0,0.0,0.0,0.0,0.0,0.0,0.0,0.0,0.0,0.0,0.0,0.0,0.0,0.0,0.0,0.0,0.0,0.0,0.0,0.0,0.0,0.0,0.0,0.0,0.0,0.0,0.0,0.0,0.0,0.0,0.0,0.0,0.0,-0.4937,-0.5415,-0.6335,-0.7453,-0.8052,-0.8186,-0.8526,-0.8793,-0.8864,-0.7042,-0.6455,-0.684,0.0,0.0,0.0,0.0,0.0,0.0,0.0,0.0,0.0,0.0,0.0,0.0,0.0,0.0,0.0,0.0,0.0,0.0,0.0,0.0,0.0,0.0,0.0,0.0,0.0,0.0,0.0,0.0,0.0,0.0,0.0,0.0,0.0,0.0,0.0,0.0,0.0,0.0,0.0,0.0,0.0,-2.1019,-2.093,0.0,0.0,0.0,0.0,0.0,0.0,0.0,0.0,0.0,0.0,0.0,0.0,0.0,0.0,-2.5676,-2.7469,-2.7852,-2.6863,-2.758,-2.7134,-2.5752,-2.6339,-2.6292,-2.5757,-2.6579,0.0,-2.4943,-2.4993,0.0,0.0,0.0,0.0,0.0,0.0,0.0,0.0,0.0,0.0,0.0,0.0,0.0,0.0,0.0,0.0,0.0,0.0,0.0,0.0,0.0,0.0,0.0,0.0,0.0,0.0,0.0,0.0,0.0,0.0,0.0,-0.44,-0.522,-0.5709,-0.6814,-0.8538,-0.9037,-0.9507,-0.9915,-0.9639,-0.9551,-0.9576,-0.8101,-0.761,-0.7892,-0.7731,0.0,0.0,0.0,0.0,0.0,0.0,0.0,0.0,0.0,0.0,0.0,0.0,0.0,0.0,0.0,0.0,0.0,0.0,0.0,0.0,0.0,0.0,0.0,0.0,0.0,0.0,0.0,0.0,0.0,0.0,0.0,0.0,0.0,0.0,0.0,0.0,0.0,0.0,0.0,-2.0525,-2.1471,-2.1347,-2.1729,-2.2042,0.0,0.0,0.0,0.0,0.0,0.0,0.0,0.0,0.0,-2.6682,-2.6306,-2.6194,-2.6343,-2.6818,-2.7295,-2.7758,-2.7221,-2.6812,-2.6524,-2.6946,-2.6607,-2.583,-2.6193,-2.6002,-2.5532,-2.6257,-2.5729,-2.4516,0.0,0.0,0.0,0.0,0.0,0.0,0.0,0.0,0.0,0.0,0.0,0.0,0.0,0.0,0.0,0.0,0.0,0.0,0.0,0.0,0.0,-0.5045,0.0,0.0,0.0,0.0,0.0,0.0,0.0,-0.4665,-0.5446,-0.6583,-0.8143,-1.01,-1.03,-1.0732,-1.1396,-1.0688,-1.0406,-1.0416,-0.9478,-0.8957,-0.873,-0.8014,-0.8164,-0.8943,0.0,0.0,0.0,0.0,0.0,0.0,0.0,0.0,0.0,0.0,0.0,0.0,0.0,0.0,0.0,0.0,0.0,0.0,0.0,0.0,0.0,0.0,0.0,0.0,0.0,0.0,0.0,0.0,0.0,0.0,0.0,0.0,0.0,0.0,0.0,0.0,0.0,-2.1298,-2.2002,-2.223,-2.2436,-2.2732,0.0,0.0,0.0,0.0,0.0,0.0,-2.6523,-2.5452,-2.552,-2.7183,-2.6754,-2.6683,-2.7005,-2.7171,-2.7683,-2.8564,-2.7186,-2.6738,-2.7156,-2.7167,-2.6948,-2.657,-2.6822,-2.6769,-2.659,-2.7079,-2.6577,-2.5611,-2.664,-2.6456,0.0,-2.5245,-2.5341,-2.5475,0.0,0.0,0.0,0.0,0.0,0.0,0.0,0.0,0.0,0.0,0.0,0.0,0.0,0.0,-0.6529,-0.6856,-0.6951,-0.6538,0.0,0.0,0.0,-0.4426,-0.4518,-0.49,-0.5566,-0.7509,-0.9024,-1.01,-1.0879,-1.1396,-1.1682,-1.1638,-1.1756,-1.1965,-1.0936,-0.975,-0.8503,-0.8286,-0.8205,-0.8295,-0.8716,0.0,0.0,0.0,0.0,0.0,0.0,0.0,0.0,0.0,0.0,0.0,0.0,0.0,0.0,0.0,0.0,0.0,0.0,0.0,0.0,0.0,0.0,0.0,0.0,0.0,0.0,0.0,0.0,0.0,0.0,0.0,0.0,0.0,0.0,0.0,0.0,0.0,0.0,-2.4154,-2.3877,0.0,0.0,0.0,0.0,-2.6641,-2.5288,-2.5514,-2.8131,-2.5813,-2.5235,-2.7052,-2.764,-2.7527,-2.6743,-2.9647,-3.0316,-2.8777,-2.8617,-2.81,-2.7283,-2.7349,-2.7819,-2.8617,-2.9479,-2.9395,-2.842,-2.6612,-2.6133,-2.6445,-2.6528,-2.6753,-2.6935,-2.5663,-2.5231,-2.5179,0.0,0.0,0.0,0.0,0.0,0.0,0.0,0.0,0.0,0.0,0.0,0.0,0.0,-0.6989,-0.8295,-0.8405,-0.9241,-0.9299,-0.8262,0.0,0.0,-0.6054,-0.5771,-0.6348,-0.7884,-0.8995,-1.007,-1.1144,-1.1401,-1.1693,-1.197,-1.197,-1.2013,-1.2094,-1.1717,-1.1303,-1.074,-0.9395,-0.88,-0.8725,-0.8775,-0.9052,0.0,0.0,0.0,0.0,0.0,0.0,0.0,0.0,0.0,0.0,0.0,0.0,0.0,0.0,0.0,0.0,0.0,0.0,0.0,0.0,0.0,0.0,0.0,0.0,0.0,0.0,0.0,0.0,0.0,0.0,0.0,0.0,0.0,0.0,0.0,0.0,0.0,-2.385,-2.4041,0.0,0.0,-2.4404,-2.4465,-2.5269,-2.5067,-2.5601,-2.711,-2.6587,-2.6841,-2.8103,-2.8383,-2.839,-2.8037,-2.9148,-2.9719,-2.9647,-2.9604,-2.9435,-2.9126,-2.9731,-2.9508,-2.874,-2.904,-2.8998,-2.8663,-2.7966,-2.7049,-2.6214,-2.7446,-2.7275,-2.6302,-2.583,-2.6006,-2.6389,0.0,0.0,0.0,0.0,0.0,0.0,0.0,0.0,0.0,0.0,0.0,-0.6037,-0.6631,-0.8463,-0.9735,-0.9902,-1.0779,-1.0694,-0.9312,0.0,0.0,-0.6441,-0.6452,-0.7455,-0.9486,-0.9932,-1.0673,-1.1817,-1.1817,-1.1941,-1.2218,-1.2218,-1.2262,-1.2337,-1.2337,-1.2337,-1.2238,-1.0952,-1.0083,-0.9514,-0.8906,-0.8964,-0.9413,0.0,0.0,0.0,0.0,0.0,0.0,0.0,0.0,0.0,0.0,0.0,0.0,0.0,0.0,0.0,0.0,0.0,0.0,0.0,0.0,0.0,0.0,0.0,0.0,0.0,0.0,0.0,0.0,0.0,0.0,0.0,0.0,0.0,0.0,0.0,-2.3679,-2.384,-2.4209,-2.4615,-2.5037,-2.4825,-2.4998,-2.5715,-2.5568,-2.6082,-2.7608,-2.7141,-2.7646,-2.9382,-2.9372,-2.9546,-3.0059,-3.0553,-3.1096,-3.1638,-3.0977,-3.0834,-3.1194,-3.1399,-3.104,-3.0252,-3.0604,-3.056,-3.0241,-3.0197,-2.9071,-2.7445,-2.8351,-2.7744,-2.6315,-2.601,-2.628,-2.6672,0.0,0.0,0.0,0.0,0.0,0.0,0.0,0.0,0.0,0.0,-0.6318,-0.7486,-0.9223,-1.0106,-1.0771,-1.1262,-1.1305,-1.0397,-0.8304,-0.8127,0.0,-0.554,-0.6576,-0.8143,-1.0166,-1.0248,-1.0878,-1.2105,-1.2105,-1.2235,-1.2425,-1.2425,-1.2544,-1.2813,-1.2813,-1.2813,-1.2813,-1.2813,-1.1961,-1.0551,-0.9299,-0.8771,-0.8865,0.0,0.0,0.0,0.0,0.0,0.0,0.0,0.0,0.0,0.0,0.0,0.0,0.0,0.0,0.0,0.0,0.0,0.0,0.0,0.0,0.0,0.0,0.0,0.0,0.0,0.0,0.0,0.0,0.0,0.0,0.0,0.0,0.0,-2.3306,-2.3382,-2.3689,-2.436,-2.4482,-2.502,-2.6249,-2.569,-2.6104,-2.8252,-2.6895,-2.7138,-2.9803,-2.7514,-2.7566,-3.075,-3.0578,-3.1127,-3.2599,-3.402,-3.468,-3.468,-3.2723,-3.2348,-3.3293,-3.2253,-3.2348,-3.3339,-3.4247,-3.4098,-3.3234,-3.3071,-3.1888,-3.0081,-2.9104,-2.815,-2.7148,-2.6319,-2.6003,-2.5937,0.0,0.0,0.0,0.0,0.0,0.0,0.0,0.0,0.0,0.0,-0.6622,-0.7707,-0.9364,-1.0195,-1.0771,-1.1262,-1.1305,-1.0705,-0.9261,0.0,-0.7935,-0.7113,-0.8547,-0.9777,-1.0749,-1.131,-1.1799,-1.2312,-1.2312,-1.2436,-1.2667,-1.2667,-1.2748,-1.2813,-1.2813,-1.2813,-1.2813,-1.2813,-1.2587,-1.2119,-1.0986,-1.0398,-1.0244,0.0,0.0,0.0,0.0,0.0,0.0,0.0,0.0,0.0,0.0,0.0,0.0,0.0,0.0,0.0,0.0,0.0,0.0,0.0,0.0,0.0,0.0,0.0,0.0,0.0,0.0,0.0,0.0,0.0,0.0,0.0,0.0,-2.3347,-2.4002,-2.4158,-2.4366,-2.4923,-2.5022,-2.5292,-2.5992,-2.5839,-2.5965,-2.6562,-2.753,-2.8066,-2.8055,-3.0079,-3.0951,-3.0326,-3.2363,-3.3341,-3.2959,-3.4115,-3.468,-3.4668,-3.4156,-3.4007,-3.4293,-3.4007,-3.3674,-3.3281,-3.2769,-3.2395,-3.2065,-3.1256,-3.0592,-3.0111,-2.9815,-2.9094,-2.8191,-2.7959,-2.7645,-2.7314,0.0,0.0,0.0,0.0,0.0,0.0,0.0,0.0,0.0,0.0,-0.6848,-0.7866,-0.9791,-1.0361,-1.0771,-1.1262,-1.091,-1.0222,-0.917,0.0,-0.8129,-0.8741,-0.9748,-1.0722,-1.155,-1.2013,-1.2318,-1.256,-1.256,-1.263,-1.2813,-1.2813,-1.2813,-1.2813,-1.2813,-1.2813,-1.2813,-1.2813,-1.2813,-1.2764,-1.2116,-1.1492,-1.0972,-1.0957,-1.0979,-1.1096,-1.1409,-1.1369,-1.1397,-1.2589,0.0,0.0,0.0,0.0,0.0,0.0,0.0,0.0,0.0,0.0,0.0,0.0,0.0,0.0,0.0,0.0,0.0,0.0,0.0,0.0,0.0,0.0,0.0,0.0,-2.334,-2.3947,-2.4639,-2.4783,-2.4952,-2.5451,-2.5502,-2.5751,-2.6438,-2.6501,-2.6667,-2.6993,-2.8132,-2.886,-2.9135,-3.0547,-3.1634,-3.2342,-3.329,-3.4019,-3.446,-3.5114,-3.5416,-3.5416,-3.4975,-3.4975,-3.5416,-3.4929,-3.4438,0.0,-3.3279,-3.2992,-3.2896,-3.1841,-3.141,0.0,0.0,0.0,0.0,0.0,-2.8442,-2.8173,0.0,0.0,0.0,0.0,0.0,0.0,0.0,0.0,0.0,0.0,0.0,-0.786,-1.0318,-1.0549,-1.0727,-1.1262,-1.0388,-0.9393,0.0,-0.7684,-0.8145,-1.0016,-1.0478,-1.117,-1.2304,-1.2394,-1.2554,-1.2813,-1.2813,-1.2813,-1.2813,-1.2813,-1.2813,-1.2813,-1.2813,-1.2813,-1.2813,-1.2813,-1.2813,-1.2813,-1.2813,-1.2214,-1.14,-1.1355,-1.1424,-1.1559,-1.2224,-1.2612,-1.2883,-1.2997,0.0,0.0,0.0,0.0,0.0,0.0,0.0,0.0,0.0,0.0,0.0,0.0,0.0,0.0,0.0,0.0,0.0,0.0,0.0,0.0,0.0,0.0,0.0,0.0,-2.3915,-2.4634,-2.519,-2.5341,-2.5561,-2.5989,-2.6086,-2.6392,-2.7372,-2.7465,-2.7748,-2.8556,-2.8759,-2.9603,-3.1346,0.0,0.0,0.0,0.0,-3.3862,-3.6203,-3.6358,-3.6405,-3.6405,-3.5319,-3.5367,-3.6358,-3.5174,-3.469,-3.4775,-3.4678,-3.4532,-3.4374,-3.3388,-3.2951,-3.2671,-3.0817,-2.9551,-2.8763,-2.8711,-2.869,0.0,0.0,0.0,0.0,0.0,0.0,0.0,0.0,0.0,0.0,-0.6739,-0.6583,-0.7384,-1.0298,-1.0294,-1.0429,-1.1219,-1.028,-0.9208,-0.8212,-0.8419,-0.8842,-0.9536,-1.1004,-1.1793,-1.1742,-1.2406,-1.2764,-1.2813,-1.2813,-1.2813,-1.2813,-1.2813,-1.2813,-1.2813,-1.2813,-1.2813,-1.2813,-1.2813,-1.2813,-1.2813,-1.2813,-1.2662,-1.2506,-1.2512,-1.2002,-1.1293,-1.1404,-1.099,-1.0573,-1.2086,-1.2467,-1.2573,-1.4416,-1.507,0.0,0.0,0.0,0.0,0.0,0.0,0.0,0.0,0.0,0.0,0.0,0.0,0.0,0.0,0.0,0.0,0.0,0.0,0.0,-2.3594,-2.3961,-2.4521,-2.5516,-2.6184,-2.6675,-2.6982,-2.704,-2.7392,-2.8266,-2.8349,-2.8421,-2.8597,-2.9771,-3.0235,-2.9804,-3.1406,0.0,-3.233,-3.3681,-3.4582,-3.5126,-3.5966,-3.6405,-3.6405,0.0,0.0,-3.631,-3.4385,-3.3993,-3.4727,-3.3895,-3.3039,-3.2174,-3.1982,-3.1392,-3.0578,-3.0202,-2.9881,-2.9684,-2.9311,-2.9166,-2.9114,0.0,0.0,0.0,0.0,0.0,0.0,0.0,0.0,0.0,0.0,-0.5717,-0.6448,-0.8669,-0.8765,-0.8971,-0.9652,-0.8961,-0.832,-0.7919,-0.8733,-0.954,-1.0353,-1.1608,-1.2245,-1.2198,-1.2603,-1.2813,-1.2813,-1.2813,-1.2813,-1.2813,-1.2813,-1.2813,-1.2813,-1.2813,-1.2813,-1.2813,-1.2813,-1.2813,-1.2813,-1.2813,-1.2813,-1.2813,-1.2813,-1.2462,-1.2014,-1.2014,-1.1673,-1.1361,-1.2304,-1.2521,-1.2538,-1.3614,-1.4321,-1.5142,0.0,0.0,0.0,0.0,0.0,0.0,0.0,0.0,0.0,0.0,0.0,0.0,0.0,0.0,-2.2908,0.0,0.0,-2.3892,-2.4261,-2.455,-2.5113,-2.6216,-2.6749,-2.7179,-2.7545,-2.78,-2.8204,-2.8897,-2.8959,-2.9052,-2.929,-3.0,-3.0678,-3.1236,-3.1465,-3.2348,-3.397,-3.4278,-3.4926,-3.5977,-3.6794,-3.6931,-3.6333,-3.6383,-3.6075,-3.5457,-3.5569,-3.4958,-3.3873,-3.3935,-3.3321,-3.2221,-3.2033,-3.1506,-3.0744,-3.0193,-2.9994,-2.9973,-2.9735,-2.9653,-2.9622,0.0,0.0,0.0,0.0,0.0,0.0,0.0,0.0,0.0,0.0,-0.4939,-0.561,-0.6997,-0.7323,-0.7485,0.0,0.0,-0.7564,-0.7647,-0.8796,-0.9959,-1.1058,-1.1718,-1.2188,-1.2316,-1.2521,-1.2565,-1.2467,-1.2716,-1.2764,-1.2667,-1.2764,-1.2813,-1.2813,-1.2813,-1.2813,-1.2813,-1.2813,-1.2813,-1.2813,-1.2813,-1.2813,-1.2813,-1.2813,-1.2813,-1.2813,-1.2813,-1.2813,-1.2813,-1.2813,-1.2813,-1.2813,-1.2813,-1.3511,-1.4772,-1.7018,-1.7553,0.0,0.0,0.0,0.0,0.0,0.0,0.0,0.0,0.0,-2.2306,-2.2321,-2.2788,-2.3368,-2.3744,-2.3988,-2.4309,-2.4792,-2.5194,-2.5819,-2.6818,-2.7237,-2.761,-2.8095,-2.8524,-2.8928,-2.9394,-2.9435,-2.9591,-2.9973,-2.9994,-3.0786,-3.2645,-3.1286,-3.2068,-3.5612,-3.4887,-3.5313,-3.6996,-3.7431,-3.7344,-3.6616,-3.6868,-3.635,-3.5212,-3.6249,-3.5458,-3.3261,-3.3843,-3.3632,-3.2866,-3.2348,-3.1917,-3.1456,-3.0611,-3.0212,-3.0118,-3.0025,-2.9994,-2.9994,0.0,0.0,0.0,0.0,0.0,0.0,0.0,0.0,0.0,0.0,0.0,0.0,0.0,0.0,0.0,0.0,-0.7427,-0.7804,-0.7474,-0.8728,-0.9623,-0.9963,-1.0636,-1.089,-1.065,-1.1585,-1.1883,-1.1394,-1.2322,-1.2565,-1.2078,-1.257,-1.2813,-1.2813,-1.2813,-1.2813,-1.2813,-1.2813,-1.2813,-1.2813,-1.2813,-1.2813,-1.2813,-1.2813,-1.2813,-1.2813,-1.2813,-1.2813,-1.2813,-1.2813,-1.2813,-1.2813,-1.2813,-1.2888,-1.3642,-1.6896,-1.7865,-1.8558,-2.2018,-2.1825,-2.0556,-2.0259,-2.0219,-2.0237,0.0,0.0,-2.2501,-2.2926,-2.3403,-2.3737,-2.3791,-2.4114,-2.4526,-2.5016,-2.5419,-2.6005,-2.7029,-2.7864,-2.8543,-2.9095,-2.9197,-2.9415,-2.988,-2.9922,-2.9942,-2.9994,-2.9994,-3.0275,-3.0946,-3.1718,-3.2509,-3.3296,-3.5147,-3.6216,-3.6379,-3.644,-3.693,-3.7742,-3.4878,-3.493,-3.7481,-3.3813,-3.2974,-3.4409,-3.2566,-3.2189,-3.2845,-3.1886,-3.1475,-3.1433,-3.127,-3.0967,-3.0563,-3.0149,-2.9994,-2.9994,0.0,0.0,0.0,0.0,0.0,0.0,0.0,0.0,0.0,0.0,0.0,0.0,0.0,0.0,0.0,-0.5657,-0.6619,-0.7239,-0.7157,-0.8657,-0.9626,-0.9828,-1.049,-1.088,-1.0846,-1.1292,-1.159,-1.1683,-1.2127,-1.237,-1.2467,-1.237,-1.2322,-1.2322,-1.2029,-1.1878,-1.1883,-1.2224,-1.2175,-1.1883,-1.2224,-1.2322,-1.2322,-1.2322,-1.2516,-1.2888,-1.3351,-1.3479,0.0,-1.3526,-1.3473,-1.331,-1.2908,-1.3492,-1.4737,-1.7193,-1.7908,-1.8199,-1.9501,-2.0186,-2.03,0.0,-1.9384,-1.9528,-2.0096,-2.1314,-2.239,-2.2596,-2.3431,-2.4228,-2.4482,-2.4678,-2.5019,0.0,-2.6133,-2.6735,-2.7784,-2.84,-2.8982,-2.9622,-2.9704,-2.9777,-2.9973,-2.9994,-3.0108,-3.0377,-3.0398,-3.0851,-3.1913,-3.1902,-3.2778,-3.4786,-3.5544,-3.6498,-3.7775,-3.8146,-3.7807,-3.6939,-3.6203,-3.5512,-3.4868,-3.4392,-3.4348,-3.45,-3.2863,-3.2215,-3.2319,-3.1909,-3.1609,-3.1381,-3.1381,-3.1257,-3.1029,-3.0563,-3.0222,-2.9994,0.0,0.0,0.0,0.0,0.0,0.0,0.0,0.0,0.0,0.0,0.0,0.0,0.0,0.0,0.0,-0.4944,-0.5795,-0.6478,-0.6904,-0.8338,-0.9337,-0.9689,-1.0202,-1.0592,-1.0748,-1.09,-1.11,-1.1345,-1.1634,-1.1878,-1.2127,-1.2029,-1.198,-1.198,-1.1731,-1.1634,-1.1639,-1.1883,-1.1878,-1.1683,-1.1878,-1.2078,-1.2224,-1.2224,-1.2619,-1.3253,-1.3848,-1.4059,-1.4041,-1.448,-1.4611,-1.4546,-1.4139,-1.4916,-1.6306,-1.8115,-1.9033,-1.941,-1.9057,-1.9625,0.0,-1.9065,-1.8803,-1.908,-2.0163,-2.139,-2.24,-2.2785,-2.3771,-2.4697,-2.5057,-2.5166,-2.5498,-2.6269,-2.6714,-2.7302,-2.8274,-2.8786,-2.929,-2.9848,-2.9942,-2.9994,-2.9994,-3.0108,-3.0325,-3.0657,-3.0801,-3.1428,-3.2609,-3.2598,-3.3397,-3.5276,-3.5887,-3.6667,-3.7697,-3.8085,-3.7725,-3.6684,-3.6534,-3.5674,-3.4201,-3.5223,-3.5113,-3.3931,-3.3058,-3.2483,-3.2173,-3.2173,-3.2043,-3.1754,-3.1754,-3.1671,-3.1516,-3.1184,-3.0688,-3.018,0.0,0.0,0.0,0.0,0.0,0.0,0.0,0.0,0.0,0.0,0.0,0.0,0.0,0.0,0.0,-0.4584,-0.5055,-0.5739,-0.6647,-0.7556,-0.8356,-0.9072,-0.931,-0.949,-0.9624,-1.0167,-1.0167,-0.9677,-1.0703,-1.0949,-1.0511,-1.1536,-1.198,-1.2024,-1.2516,-1.2764,-1.2716,-1.2224,-1.2273,-1.271,-1.2224,-1.2322,-1.2764,-1.2764,-1.332,-1.4062,-1.4102,-1.4235,-1.4549,-1.5603,-1.6243,-1.6667,-1.7044,-1.7325,-1.7953,-2.0018,-2.1948,-2.3284,-2.2643,0.0,-2.0199,-1.9065,-1.8818,-1.9182,-2.0547,-2.1612,-2.2703,-2.4067,-2.4746,-2.5096,-2.5116,-2.543,-2.5859,-2.6318,-2.6961,-2.7528,-2.8046,-2.8945,-2.9586,-2.9606,-2.9827,-2.9994,0.0,-3.0398,-3.0667,-3.0688,-3.1102,-3.1547,-3.1992,-3.4139,-3.4567,-3.2835,-3.6065,-3.678,-3.467,-3.4636,-3.5717,-3.7791,-3.4469,-3.458,-3.7672,-3.5509,-3.3875,-3.2727,-3.2737,-3.2669,-3.2659,-3.2659,-3.2638,-3.2685,-3.2685,-3.2359,-3.1957,-3.1946,-3.1433,-3.0667,0.0,0.0,0.0,0.0,0.0,0.0,0.0,0.0,0.0,0.0,0.0,0.0,0.0,0.0,0.0,0.0,-0.5375,-0.6018,-0.6341,-0.7324,-0.8032,-0.8364,-0.8912,-0.9267,-0.9441,-0.971,-0.9969,-1.0117,-1.0511,-1.0752,-1.0949,-1.0953,-1.0953,-1.0949,-1.0752,-1.0654,-1.0708,-1.085,-1.085,-1.0708,-1.085,-1.1047,-1.1277,-1.2086,-1.2725,-1.3374,0.0,-1.5783,-1.6222,-1.6454,-1.6992,-1.754,-1.7348,-1.8531,-2.0472,-2.2912,-2.3292,-2.2749,-2.1887,0.0,-1.9159,-1.8342,-1.8119,-1.8341,-1.9012,-2.0127,-2.1391,-2.2574,-2.3726,-2.4803,-2.5823,-2.6098,-2.6436,-2.7182,-2.766,-2.7984,-2.844,-2.8936,-2.9343,-2.9554,-2.9659,0.0,0.0,0.0,0.0,-3.1122,-3.1557,-3.2337,-3.3617,-3.3628,-3.4083,-3.5002,-3.5443,-3.6002,-3.675,-3.5991,-3.636,-3.7885,-3.5179,-3.4089,-3.4413,-3.366,-3.3058,-3.2669,-3.2669,-3.2669,-3.2669,-3.2669,-3.2669,-3.2669,-3.2669,-3.2576,-3.2442,-3.2442,-3.206,-3.1536,0.0,0.0,0.0,0.0,0.0,0.0,0.0,0.0,0.0,0.0,0.0,0.0,0.0,0.0,0.0,0.0,0.0,0.0,-0.5926,-0.6753,-0.7381,-0.7703,-0.817,-0.8564,-0.8831,-0.8852,-0.9098,-0.9557,-0.9669,-0.9958,-1.0344,-1.0365,-1.0413,-1.0413,-1.0216,-1.0167,-1.0167,-1.0364,-1.0338,-1.0292,-1.0603,-1.0967,-1.1376,-1.2283,-1.3064,0.0,-1.524,-1.6453,-1.7443,-1.7451,-1.8118,-1.8876,-1.8783,-2.0448,-2.2732,-2.4161,-2.382,-2.2645,-2.1114,-1.9909,-1.883,-1.8003,-1.7904,-1.8169,-1.8882,-1.9755,-2.0733,-2.195,-2.3304,-2.462,-2.5586,-2.6042,-2.662,-2.7562,-2.7814,-2.8043,-2.8505,-2.89,-2.9213,-2.9375,-2.9554,0.0,0.0,0.0,0.0,-3.1578,-3.2033,-3.2744,-3.3808,-3.3547,-3.3818,-3.4891,-3.4636,-3.5024,-3.6045,-3.5333,-3.5542,-3.6642,-3.519,-3.4089,-3.3332,-3.2898,-3.2669,-3.2669,-3.2669,-3.2669,-3.2669,-3.2669,-3.2669,-3.2669,-3.2669,-3.2669,-3.2669,-3.2669,-3.2483,-3.2163,0.0,0.0,0.0,0.0,0.0,0.0,0.0,0.0,0.0,0.0,0.0,0.0,0.0,0.0,0.0,0.0,0.0,0.0,-0.542,-0.5901,-0.6463,-0.7087,-0.7132,-0.7343,-0.7761,-0.76,-0.7683,-0.8012,-0.8404,-0.8652,-0.8792,-0.9828,-1.032,-1.0325,-1.0856,-1.1099,-1.1051,-1.0564,-1.0749,-1.1329,-1.1318,-1.1954,-1.2838,-1.3243,-1.4239,-1.5364,-1.5154,-1.6363,-1.8101,-1.8534,-1.9467,-2.0568,-2.118,-2.281,-2.4403,-2.3802,-2.3524,-2.2859,-2.0491,-1.9625,-1.9174,-1.81,-1.8101,-1.8699,-2.0056,-2.0334,-2.0772,-2.2265,-2.3574,-2.4513,0.0,0.0,-2.6443,-2.7415,-2.7535,-2.7741,-2.8316,-2.8921,-2.9239,0.0,0.0,0.0,0.0,0.0,0.0,-3.1988,0.0,-3.2727,-3.2784,-3.3818,-3.3931,-3.2841,-3.3818,-3.3875,-3.2784,-3.2841,-3.3388,-3.4424,-3.448,-3.448,-3.4368,-3.3218,-3.2669,-3.2669,-3.2669,-3.2669,-3.2669,-3.2669,-3.2669,-3.2669,-3.2669,-3.2669,-3.2669,-3.2669,-3.2669,-3.2607,0.0,0.0,0.0,0.0,0.0,0.0,0.0,0.0,0.0,0.0,0.0,0.0,0.0,0.0,0.0,0.0,0.0,0.0,-0.474,-0.5242,-0.571,-0.6083,-0.6469,-0.6967,-0.7576,-0.7539,-0.7683,-0.8012,-0.8242,-0.84,-0.8442,-0.8794,-0.9069,-0.9241,-0.9504,-0.9676,-0.98,-0.9919,-1.0035,-1.0216,-1.0476,-1.0862,-1.148,-1.2719,-1.3607,-1.4313,-1.5525,-1.6503,-1.7318,-1.8016,-1.9086,0.0,-2.0844,-2.1512,-2.219,-2.2547,-2.1749,-2.0696,-2.0297,-1.92,-1.8281,-1.8493,-1.8606,-1.8846,-1.9427,-1.9604,-2.0271,-2.2591,-2.3363,-2.4314,0.0,0.0,0.0,-2.8099,-2.7915,0.0,-2.8259,-2.8602,0.0,-2.9069,0.0,-3.0345,-3.1153,-3.1609,0.0,0.0,-3.2607,-3.3115,-3.3987,-3.3501,-3.3445,-3.4043,-3.3445,-3.3434,-3.4043,-3.4902,-3.4569,-3.3172,-3.4099,-3.4043,-3.3172,-3.2841,-3.2669,-3.2669,-3.2669,-3.2669,-3.2669,-3.2669,-3.2669,-3.2669,-3.2669,-3.2669,-3.2669,-3.2669,-3.2669,-3.2659,0.0,0.0,0.0,0.0,0.0,0.0,0.0,0.0,0.0,0.0,0.0,0.0,0.0,0.0,0.0,0.0,0.0,0.0,0.0,-0.4749,-0.5103,-0.5248,-0.56,-0.6022,-0.6497,-0.6558,-0.6789,-0.7192,-0.7551,-0.7828,-0.8025,-0.8312,-0.855,-0.8828,-0.9005,-0.9169,-0.9322,-0.9679,-0.9871,0.0,0.0,-1.1047,-1.168,-1.2872,-1.3733,-1.4463,-1.5662,-1.6481,-1.7135,0.0,0.0,-1.9677,-2.0695,-2.1179,-2.1373,-2.1254,0.0,-1.9849,-1.9326,-1.8619,-1.8152,-1.8664,-1.8899,-1.9213,-1.9842,-2.0002,-2.0588,-2.2705,-2.3593,0.0,-2.6574,0.0,0.0,0.0,0.0,0.0,-2.8288,-2.8588,-2.8773,0.0,-2.9675,0.0,-3.0935,-3.1608,-3.2173,0.0,-3.2612,-3.3001,-3.366,-3.3058,-3.3001,-3.3717,-3.3058,-3.3001,-3.3717,-3.4357,-3.4246,-3.3491,-3.366,-3.3604,-3.3491,-3.2955,-3.2669,-3.2669,0.0,-3.2669,-3.2669,-3.2669,-3.2669,-3.2669,-3.2669,-3.2669,-3.2669,-3.2669,-3.2669,-3.2669,0.0,0.0,0.0,0.0,0.0,0.0,0.0,0.0,0.0,0.0,0.0,0.0,0.0,0.0,0.0,0.0,0.0,0.0,0.0,0.0,0.0,-0.4669,-0.4766,-0.4955,-0.5214,-0.5355,-0.5687,-0.6243,-0.6735,-0.7195,-0.7661,-0.8017,-0.8365,-0.8714,-0.8962,-0.9161,-0.931,-0.9735,-1.0014,-1.023,-1.1021,-1.1787,-1.2501,0.0,-1.4182,-1.5137,-1.5794,-1.6523,-1.7319,0.0,-1.8205,-1.8842,-2.0232,-2.0846,-2.0822,-1.978,-1.9592,-1.9484,-1.8236,-1.8086,-1.8394,-1.876,-1.9067,-1.959,-2.0616,-2.0916,-2.1378,-2.2885,0.0,-2.5176,-2.5798,-2.6312,-2.6927,-2.8018,0.0,-2.7412,-2.8193,-2.858,-2.8771,-2.8741,-2.9628,-3.0299,-3.054,-3.1426,-3.2123,-3.2275,-3.2555,-3.2669,-3.2669,-3.2669,-3.2669,-3.2669,-3.2669,-3.2669,-3.2669,-3.2669,-3.3218,-3.4256,-3.3218,-3.3275,-3.4211,-3.3172,-3.2669,-3.2669,0.0,0.0,-3.2669,-3.2669,-3.2669,-3.2669,-3.2669,-3.2669,-3.2669,-3.2669,-3.2669,-3.2669,0.0,0.0,0.0,0.0,0.0,0.0,0.0,0.0,0.0,0.0,0.0,0.0,0.0,0.0,0.0,0.0,0.0,0.0,0.0,0.0,0.0,0.0,-0.449,-0.4753,-0.5339,0.0,0.0,0.0,0.0,-0.6933,-0.7292,-0.7532,-0.7816,-0.8161,-0.8641,-0.9007,-0.9338,-1.014,-1.0489,-1.0562,-1.1288,-1.1754,-1.22,-1.3202,0.0,0.0,-1.6547,-1.7251,-1.7479,-1.7596,-1.7647,-1.7676,-1.7925,-1.7995,-1.8011,-1.7801,-1.777,-1.7858,-1.8147,-1.8255,-1.8445,-1.9038,-1.9235,-1.9546,-2.0432,-2.0927,0.0,0.0,-2.5082,-2.5932,-2.7332,-2.7336,-2.7273,-2.758,0.0,0.0,0.0,0.0,-2.8797,0.0,0.0,0.0,0.0,0.0,0.0,0.0,0.0,0.0,-3.2669,-3.2669,-3.2669,-3.2669,-3.2669,-3.2669,-3.2669,-3.2669,-3.2784,-3.3001,-3.2784,-3.2784,-3.3001,-3.2784,-3.2669,-3.2669,0.0,0.0,-3.2669,-3.2669,-3.2669,-3.2669,-3.2669,-3.2669,-3.2669,-3.2669,-3.2669,-3.2669,0.0,0.0,0.0,0.0,0.0,0.0,0.0,0.0,0.0,0.0,0.0,0.0,0.0,0.0,0.0,0.0,0.0,0.0,0.0,0.0,0.0,0.0,0.0,0.0,0.0,0.0,0.0,0.0,0.0,0.0,0.0,0.0,0.0,0.0,0.0,0.0,-0.946,-1.0269,-1.0593,-1.0656,-1.1341,-1.1814,0.0,0.0,0.0,0.0,0.0,-1.7537,-1.7641,-1.8368,-1.8092,-1.7339,-1.7028,-1.7091,-1.7279,-1.7153,-1.7239,-1.7388,-1.7918,-1.8174,-1.8423,-1.8906,-1.9147,-1.9692,-2.1121,0.0,0.0,0.0,-2.6072,-2.6789,-2.7804,-2.7631,0.0,0.0,0.0,0.0,0.0,0.0,0.0,0.0,0.0,0.0,0.0,0.0,0.0,0.0,0.0,0.0,0.0,-3.2669,-3.2669,-3.2669,-3.2669,-3.2669,-3.2669,-3.2669,-3.2669,-3.2669,-3.2669,-3.2669,-3.2669,-3.2669,-3.2669,-3.2669,0.0,0.0,-3.2669,-3.2669,-3.2669,-3.2669,-3.2669,-3.2669,-3.2669,-3.2669,-3.2669,-3.2669,0.0,0.0,0.0,0.0,0.0,0.0,0.0,0.0,0.0,0.0,0.0,0.0,0.0,0.0,0.0,0.0,0.0,0.0,0.0,0.0,0.0,0.0,0.0,0.0,0.0,0.0,0.0,0.0,0.0,0.0,0.0,0.0,0.0,0.0,0.0,0.0,0.0,0.0,-1.0719,0.0,0.0,0.0,0.0,0.0,0.0,0.0,0.0,0.0,-1.7899,-1.9117,-1.878,-1.7817,-1.7402,-1.7466,-1.7672,-1.7502,-1.7541,-1.7716,-1.7802,-1.7999,-1.8277,-1.8606,-1.8877,-1.9603,-2.1657,-2.2575,0.0,0.0,-2.688,-2.7537,-2.784,-2.7631,-2.776,0.0,-2.8246,-2.7881,0.0,0.0,0.0,0.0,0.0,0.0,0.0,0.0,0.0,0.0,0.0,0.0,0.0,-3.2669,-3.2669,-3.2612,-3.2669,-3.2669,-3.2612,-3.2669,-3.2669,-3.2669,-3.2669,-3.2669,-3.2669,-3.2669,-3.2669,-3.2669,0.0,0.0,0.0,-3.2669,-3.2669,-3.2669,-3.2669,-3.2669,-3.2669,-3.2669,-3.2669,-3.2669,0.0,0.0,0.0,0.0,0.0,0.0,0.0,0.0,0.0,0.0,0.0,0.0,0.0,0.0,0.0,0.0,0.0,0.0,0.0,0.0,0.0,0.0,0.0,0.0,0.0,0.0,0.0,0.0,0.0,0.0,0.0,0.0,0.0,0.0,0.0,0.0,0.0,0.0,0.0,0.0,0.0,0.0,0.0,0.0,0.0,0.0,0.0,0.0,0.0,0.0,0.0,-1.9408,-1.9395,-1.9194,-1.8932,-1.8896,0.0,0.0,-1.8013,-1.7838,-1.794,-1.8262,-1.8372,-1.9014,-2.1299,0.0,-2.3756,-2.5766,-2.7123,-2.7851,-2.7668,-2.7584,-2.7656,-2.8001,-2.8101,-2.8147,0.0,0.0,0.0,0.0,0.0,0.0,0.0,0.0,0.0,0.0,0.0,0.0,0.0,-3.2669,-3.2612,-3.2373,-3.2555,-3.2555,-3.2373,-3.2555,-3.2669,-3.2669,-3.2669,-3.2669,-3.2669,-3.2669,-3.2669,-3.2669,0.0,0.0,0.0,-3.2669,-3.2669,-3.2669,-3.2669,-3.2669,-3.2669,-3.2669,-3.2669,-3.2669,0.0,0.0,0.0,0.0,0.0,0.0,0.0,0.0,0.0,0.0,0.0,0.0,0.0,0.0,0.0,0.0,0.0,0.0,0.0,0.0,0.0,0.0,0.0,0.0,0.0,0.0,0.0,0.0,0.0,0.0,0.0,0.0,0.0,0.0,0.0,0.0,0.0,0.0,0.0,0.0,0.0,0.0,0.0,0.0,0.0,0.0,0.0,0.0,0.0,0.0,0.0,0.0,-2.1539,-2.156,0.0,0.0,-1.9404,-1.9132,-1.9212,-1.8965,-1.8741,-1.888,-1.9677,-2.0679,-2.1609,0.0,-2.4618,-2.5947,-2.7027,-2.7726,-2.7631,-2.7584,-2.7872,-2.8666,-2.8454,0.0,-2.8562,0.0,0.0,0.0,0.0,0.0,0.0,0.0,0.0,0.0,0.0,0.0,0.0,0.0,-3.2201,-3.2305,-3.2373,-3.243,-3.2305,-3.2555,-3.2669,-3.2669,-3.2669,-3.2669,-3.2669,-3.2669,-3.2669,0.0,0.0,0.0,0.0,-3.2669,-3.2669,-3.2669,-3.2669,-3.2669,-3.2669,-3.2669,-3.2669,-3.2669,0.0,0.0,0.0,0.0,0.0,0.0,0.0,0.0,0.0,0.0,0.0,0.0,0.0,0.0,0.0,0.0,0.0,0.0,0.0,0.0,0.0,0.0,0.0,0.0,0.0,0.0,0.0,0.0,0.0,0.0,0.0,0.0,0.0,0.0,0.0,0.0,0.0,0.0,0.0,0.0,0.0,0.0,0.0,0.0,0.0,0.0,0.0,0.0,0.0,0.0,0.0,0.0,-2.2856,-2.3149,-2.2374,0.0,-2.0425,-2.0061,-2.0252,-1.9933,-1.9575,-1.9575,-2.0551,-2.1605,0.0,0.0,-2.4845,-2.582,-2.6722,-2.7321,-2.7317,-2.7385,-2.7778,-2.8986,-2.8668,-2.8431,-2.887,-2.875,0.0,0.0,0.0,0.0,0.0,0.0,0.0,0.0,0.0,0.0,0.0,0.0,-3.1797,-3.2305,-3.2305,-3.2305,-3.2305,-3.2555,-3.2669,-3.2669,-3.2612,-3.2612,-3.2669,-3.2612,-3.2612,0.0,0.0,0.0,0.0,-3.2669,-3.2669,-3.2669,-3.2669,-3.2669,-3.2669,-3.2669,-3.2669,-3.2669,0.0,0.0,0.0,0.0,0.0,0.0,0.0,0.0,0.0,0.0,0.0,0.0,0.0,0.0,0.0,0.0,0.0,0.0,0.0,0.0,0.0,0.0,0.0,0.0,0.0,0.0,0.0,-0.7699,-0.8047,0.0,0.0,0.0,0.0,0.0,0.0,0.0,0.0,0.0,0.0,0.0,0.0,0.0,0.0,0.0,0.0,0.0,0.0,0.0,0.0,0.0,0.0,0.0,0.0,-2.3604,-2.3423,-2.2689,-2.234,-2.1918,-2.0777,-2.0332,-2.0195,-2.0195,-2.0421,-2.0962,0.0,-2.3285,-2.4133,-2.5378,-2.6184,-2.6706,-2.6635,-2.6821,-2.7374,-2.8439,-2.8618,-2.8683,-2.885,0.0,0.0,0.0,0.0,0.0,0.0,0.0,0.0,0.0,0.0,0.0,0.0,0.0,-3.1344,-3.2248,-3.2305,-3.2305,-3.2305,-3.2555,-3.2669,-3.2669,-3.243,-3.243,-3.2669,-3.243,0.0,0.0,0.0,0.0,0.0,-3.2669,-3.2669,-3.2669,-3.2669,-3.2669,-3.2669,-3.2669,-3.2669,-3.2669,0.0,0.0,0.0,0.0,0.0,0.0,0.0,0.0,0.0,0.0,0.0,0.0,0.0,0.0,0.0,0.0,0.0,0.0,0.0,0.0,0.0,0.0,0.0,0.0,0.0,0.0,-0.7624,-0.7889,-0.8107,-0.8269,0.0,0.0,0.0,0.0,0.0,0.0,0.0,0.0,0.0,0.0,0.0,0.0,0.0,0.0,0.0,0.0,0.0,0.0,0.0,0.0,0.0,0.0,0.0,0.0,0.0,-2.3304,-2.2755,-2.225,-2.2451,-2.1967,-2.142,-2.142,-2.2351,-2.3193,-2.3008,-2.4055,-2.5137,-2.5509,-2.5887,-2.6163,-2.6117,-2.6194,-2.664,-2.7924,-2.7893,-2.7819,0.0,0.0,0.0,0.0,0.0,0.0,0.0,0.0,0.0,0.0,0.0,0.0,0.0,0.0,0.0,-3.196,-3.196,-3.196,-3.196,-3.244,-3.2669,-3.2669,-3.243,-3.2373,-3.243,0.0,0.0,0.0,0.0,0.0,0.0,-3.2669,-3.2669,-3.2669,-3.2669,-3.2669,-3.2669,-3.2669,-3.2669,-3.2669,0.0,0.0,0.0,0.0,0.0,0.0,0.0,0.0,0.0,0.0,0.0,0.0,0.0,0.0,0.0,0.0,0.0,0.0,0.0,0.0,0.0,0.0,0.0,0.0,0.0,-0.7467,-0.7837,-0.8182,-0.8404,-0.8598,-0.8802,-0.906,-0.9344,0.0,0.0,0.0,0.0,0.0,0.0,0.0,0.0,0.0,-1.3527,0.0,0.0,0.0,0.0,0.0,0.0,0.0,0.0,0.0,0.0,0.0,0.0,0.0,-2.3176,-2.2717,-2.3234,-2.3043,-2.2663,-2.2578,-2.341,0.0,-2.3398,-2.4135,-2.4964,-2.4964,-2.5199,-2.5385,-2.5461,-2.5592,-2.6088,-2.7385,-2.7369,0.0,0.0,0.0,0.0,0.0,0.0,0.0,0.0,0.0,0.0,0.0,0.0,0.0,0.0,0.0,0.0,-3.1614,-3.1614,-3.1672,-3.1787,-3.2201,-3.2383,-3.2383,-3.219,-3.2133,-3.2076,0.0,0.0,0.0,0.0,0.0,0.0,-3.2498,-3.2555,-3.2555,-3.2669,-3.2669,-3.2669,-3.2669,-3.2669,-3.2669,0.0,0.0,0.0,0.0,0.0,0.0,0.0,0.0,0.0,0.0,0.0,0.0,0.0,0.0,0.0,0.0,0.0,0.0,0.0,0.0,0.0,0.0,0.0,0.0,0.0,-0.7737,-0.8143,-0.8549,-0.8894,-0.9145,-0.9338,-0.967,-0.9836,-0.9868,-1.0371,0.0,0.0,0.0,0.0,0.0,0.0,0.0,0.0,0.0,0.0,0.0,0.0,0.0,0.0,0.0,0.0,0.0,0.0,0.0,0.0,0.0,0.0,0.0,0.0,-2.3532,-2.3763,-2.3555,0.0,-2.3773,-2.3564,-2.37,0.0,-2.3919,-2.4229,-2.4545,-2.4737,-2.4995,-2.5526,-2.6776,0.0,0.0,0.0,0.0,0.0,0.0,0.0,0.0,0.0,0.0,0.0,0.0,0.0,0.0,0.0,0.0,0.0,0.0,-3.1267,-3.1441,-3.1787,-3.1787,-3.1787,-3.1787,-3.1787,-3.1787,-3.1787,0.0,0.0,0.0,0.0,0.0,0.0,-3.219,-3.2315,-3.2363,-3.2612,-3.2669,-3.2669,-3.2669,-3.2669,-3.2669,0.0,0.0,0.0,0.0,0.0,0.0,0.0,0.0,0.0,0.0,0.0,0.0,0.0,0.0,0.0,0.0,0.0,0.0,0.0,0.0,0.0,0.0,0.0,0.0,0.0,-0.7931,-0.8452,-0.9113,-0.93,-0.9498,-0.967,-0.9862,-1.0117,-1.0434,-1.053,-1.0902,0.0,0.0,0.0,0.0,0.0,0.0,0.0,0.0,0.0,0.0,-1.7795,-1.8218,0.0,0.0,0.0,0.0,0.0,0.0,0.0,0.0,-2.3261,-2.3283,-2.3095,0.0,-2.3977,-2.3786,-2.3937,-2.4033,0.0,-2.3836,-2.3919,-2.3919,-2.4229,-2.4528,-2.4555,-2.4619,-2.4946,0.0,0.0,0.0,0.0,0.0,0.0,0.0,0.0,0.0,0.0,0.0,0.0,0.0,0.0,0.0,0.0,0.0,0.0,0.0,-3.0995,-3.1112,-3.1383,-3.1672,-3.1787,-3.1787,-3.1556,-3.1441,0.0,0.0,0.0,0.0,0.0,0.0,0.0,-3.2498,-3.2612,-3.2612,-3.2669,-3.2669,-3.2669,-3.2669,-3.2669,-3.2669,0.0,0.0,0.0,0.0,0.0,0.0,0.0,0.0,0.0,0.0,0.0,0.0,0.0,0.0,0.0,0.0,0.0,0.0,0.0,0.0,0.0,0.0,0.0,0.0,-0.7666,-0.807,-0.8615,-0.9396,-0.9562,-0.9728,-0.9894,-1.0142,-1.0428,-1.0713,-1.0996,-1.1498,0.0,0.0,0.0,0.0,0.0,0.0,0.0,0.0,0.0,0.0,-1.7998,-1.8355,0.0,-1.9588,-2.0273,-2.0847,0.0,0.0,0.0,0.0,-2.3075,-2.3113,-2.2927,-2.3395,-2.3852,-2.3656,-2.365,-2.36,-2.3327,-2.3567,-2.3815,-2.3484,-2.4165,-2.4755,-2.4409,-2.45,0.0,0.0,0.0,0.0,0.0,0.0,0.0,0.0,0.0,0.0,0.0,0.0,0.0,0.0,0.0,0.0,0.0,0.0,0.0,0.0,0.0,-3.0947,-3.1112,-3.1286,-3.1402,-3.1402,-3.1334,-3.1218,0.0,0.0,0.0,0.0,0.0,0.0,-3.1682,-3.1981,-3.2028,-3.2086,-3.2373,-3.2487,-3.2545,-3.2669,-3.2669,-3.2669,0.0,0.0,0.0,0.0,0.0,0.0,0.0,0.0,0.0,0.0,0.0,0.0,0.0,0.0,0.0,0.0,0.0,0.0,0.0,0.0,0.0,0.0,0.0,-0.7326,-0.7938,-0.8273,-0.8817,-0.962,-0.9824,-0.9989,-1.0142,-1.0498,-1.0744,-1.0958,-1.1584,-1.2151,0.0,0.0,0.0,0.0,-1.3453,0.0,0.0,0.0,0.0,0.0,0.0,0.0,0.0,-1.9548,-2.0285,-2.0952,-2.1605,0.0,0.0,0.0,0.0,0.0,-2.2703,-2.314,-2.3589,-2.3358,-2.3193,-2.296,-2.2569,-2.3215,-2.3701,-2.3084,0.0,0.0,0.0,-2.451,0.0,0.0,0.0,0.0,0.0,0.0,0.0,0.0,0.0,0.0,0.0,0.0,0.0,0.0,0.0,0.0,0.0,0.0,0.0,0.0,0.0,0.0,-3.0889,-3.0889,-3.0889,-3.0889,-3.1112,-3.1112,-3.0889,0.0,0.0,0.0,0.0,0.0,-3.1005,-3.1276,-3.1383,-3.1441,-3.2018,-3.219,-3.2248,-3.2498,-3.2555,-3.2555,0.0,0.0,0.0,0.0,0.0,0.0,0.0,0.0,0.0,0.0,0.0,0.0,0.0,0.0,0.0,0.0,0.0,0.0,0.0,0.0,0.0,0.0,-0.7395,-0.792,-0.8622,-0.8933,-0.9445,-1.0174,-1.0364,-1.0555,-1.0674,-1.0902,-1.1185,-1.1498,-1.1996,-1.2367,-1.2621,-1.2836,-1.308,-1.3358,0.0,0.0,0.0,0.0,0.0,0.0,0.0,0.0,0.0,-1.9672,-2.0144,-2.0498,-2.1855,0.0,0.0,0.0,0.0,0.0,-2.244,-2.2953,-2.3356,-2.2977,-2.2882,-2.2804,-2.253,-2.3215,-2.3753,-2.3247,0.0,0.0,0.0,-2.4469,0.0,0.0,0.0,0.0,0.0,0.0,0.0,0.0,0.0,0.0,0.0,0.0,0.0,0.0,0.0,0.0,0.0,0.0,0.0,0.0,0.0,0.0,0.0,-3.0889,-3.0889,-3.0889,-3.0947,-3.0947,-3.0889,-3.116,-3.116,0.0,0.0,0.0,-3.1276,-3.1614,-3.173,-3.173,-3.1845,-3.1903,-3.1903,-3.1903,-3.196,-3.1971,0.0,0.0,0.0,0.0,0.0,0.0,0.0,0.0,0.0,0.0,0.0,0.0,0.0,0.0,0.0,0.0,0.0,0.0,0.0,0.0,0.0,-0.7434,-0.8055,-0.8503,-0.8693,-0.927,-0.9884,-1.0466,-1.0744,-1.0902,-1.0965,-1.131,-1.1654,-1.1996,-1.2398,-1.2644,-1.2844,-1.338,-1.3721,-1.395,0.0,0.0,0.0,0.0,0.0,0.0,0.0,0.0,0.0,0.0,-2.032,-2.0635,-2.1855,0.0,0.0,0.0,0.0,0.0,-2.2289,-2.2454,-2.2726,-2.278,-2.3144,-2.3464,-2.3267,-2.3919,-2.4367,-2.3674,0.0,0.0,0.0,0.0,0.0,0.0,0.0,0.0,0.0,0.0,0.0,0.0,0.0,0.0,0.0,0.0,0.0,0.0,0.0,0.0,0.0,0.0,0.0,0.0,0.0,0.0,0.0,-3.0889,-3.0889,-3.0889,-3.0889,-3.0889,-3.0889,-3.1054,-3.0995,0.0,0.0,-3.1228,-3.1112,-3.1228,-3.1334,-3.1344,-3.1441,-3.1556,-3.1556,-3.173,-3.1787,-3.1815,0.0,0.0,0.0,0.0,0.0,0.0,0.0,0.0,0.0,0.0,0.0,0.0,0.0,0.0,0.0,0.0,0.0,0.0,0.0,0.0,-0.8185,-0.7972,-0.872,-0.9042,-0.8781,-0.9605,-1.0259,-1.0656,-1.0965,-1.1185,-1.1279,-1.1709,-1.2089,-1.2367,-1.2713,-1.3007,-1.3283,-1.3848,-1.4311,-1.4718,0.0,0.0,0.0,0.0,0.0,0.0,0.0,0.0,0.0,0.0,0.0,0.0,0.0,0.0,0.0,-2.2289,-2.2365,-2.2402,-2.2101,-2.2144,-2.2361,-2.2706,-2.3196,-2.3623,-2.374,-2.4364,-2.4686,-2.4068,0.0,0.0,0.0,0.0,0.0,0.0,0.0,0.0,0.0,0.0,0.0,0.0,0.0,0.0,0.0,0.0,0.0,0.0,0.0,0.0,0.0,0.0,0.0,0.0,0.0,0.0,0.0,-3.0889,-3.0889,-3.0889,-3.0889,-3.0889,-3.0889,-3.0889,-3.0889,-3.0889,-3.0889,-3.0889,-3.0889,-3.0889,-3.0889,-3.0947,-3.1112,-3.1218,-3.1218,-3.1508,-3.1496,-3.1404,0.0,0.0,0.0,0.0,0.0,0.0,0.0,0.0,0.0,0.0,0.0,0.0,0.0,0.0,0.0,0.0,0.0,0.0,0.0,0.0,-0.8738,-0.872,-0.931,-0.9528,-0.9243,-1.0111,-1.0629,-1.0776,-1.1115,-1.1428,-1.1771,-1.2089,-1.2375,-1.259,-1.2867,-1.3355,-1.4027,-1.4084,-1.4609,-1.5454,-1.6008,0.0,0.0,0.0,0.0,0.0,0.0,0.0,0.0,0.0,0.0,0.0,0.0,0.0,-2.1845,-2.1845,-2.1835,-2.1845,-2.1845,-2.2272,-2.2757,-2.2788,-2.2386,-2.2292,-2.3511,-2.4031,-2.426,-2.4329,0.0,0.0,0.0,0.0,0.0,0.0,0.0,0.0,0.0,0.0,0.0,0.0,0.0,0.0,0.0,0.0,0.0,0.0,0.0,0.0,0.0,0.0,0.0,0.0,0.0,0.0,0.0,0.0,-3.0889,-3.0889,-3.0889,-3.0889,-3.0889,-3.0889,-3.0889,-3.0889,-3.0889,-3.0889,-3.0889,-3.0889,-3.0889,-3.0889,-3.0947,-3.0947,-3.0947,-3.0947,-3.0673,-3.0358,0.0,0.0,0.0,0.0,0.0,0.0,0.0,0.0,0.0,0.0,0.0,0.0,0.0,0.0,0.0,0.0,0.0,0.0,0.0,0.0,-0.9279,-0.9126,-0.9691,-0.9976,-0.987,-1.0533,-1.0965,-1.1122,-1.1459,-1.1747,-1.1996,-1.2344,-1.2621,-1.2875,-1.3436,-1.3893,-1.4331,-1.5053,-1.5608,-1.6059,-1.6857,-1.7307,0.0,0.0,0.0,0.0,0.0,0.0,0.0,0.0,-2.0058,-2.0498,-2.1176,-2.172,-2.2138,-2.2025,-2.2073,-2.2138,-2.2025,-2.2391,-2.2798,-2.2798,-2.2624,-2.2768,-2.4067,-2.4641,-2.4947,-2.4836,-2.5205,0.0,0.0,0.0,0.0,0.0,0.0,0.0,0.0,0.0,0.0,0.0,0.0,0.0,0.0,0.0,0.0,0.0,0.0,0.0,0.0,0.0,0.0,0.0,0.0,0.0,0.0,0.0,-3.0068,-3.0078,-3.0625,-3.0889,-3.0889,-3.0889,-3.0889,-3.0889,-3.0889,-3.0889,-3.0889,-3.0889,-3.0889,-3.0889,-3.0889,-3.0713,-3.0459,-3.0459,-3.0185,-2.9822,0.0,0.0,0.0,0.0,0.0,0.0,0.0,0.0,0.0,0.0,0.0,0.0,0.0,0.0,0.0,0.0,0.0,0.0,0.0,-0.9922,-0.9929,-0.9781,-1.0177,-1.0414,-1.0476,-1.0985,-1.1279,-1.1303,-1.1654,-1.2071,-1.2593,-1.2774,-1.3063,-1.3468,-1.409,-1.4525,-1.4889,-1.5743,-1.6309,-1.6741,-1.7396,-1.775,0.0,0.0,0.0,0.0,0.0,0.0,0.0,0.0,-1.9965,-2.0296,-2.0824,-2.1361,-2.1845,-2.1782,-2.206,-2.237,-2.2217,-2.2505,-2.2869,-2.3072,-2.3083,-2.3324,-2.4451,-2.4802,-2.4983,-2.5252,-2.5493,-2.5742,-2.6034,0.0,0.0,0.0,0.0,0.0,0.0,0.0,0.0,0.0,0.0,0.0,0.0,0.0,0.0,0.0,0.0,0.0,0.0,0.0,0.0,0.0,0.0,0.0,0.0,0.0,-2.9626,-2.9636,-3.0185,-3.0469,-3.0469,-3.0469,-3.0469,-3.0469,-3.0469,-3.0469,-3.0469,-3.0469,-3.0469,-3.0469,-3.0469,-3.0283,-3.0,-3.0,-2.9726,-2.9316,0.0,0.0,0.0,0.0,0.0,0.0,0.0,0.0,0.0,0.0,0.0,0.0,0.0,0.0,0.0,0.0,0.0,0.0,-1.0573,-1.0593,-1.0649,-1.0807,-1.0807,-1.0902,-1.109,-1.1435,-1.1498,-1.131,-1.1654,-1.2425,-1.361,-1.3461,-1.3785,-1.4404,-1.4748,-1.5228,-1.5824,-1.601,-1.6652,-1.7505,-1.7505,-1.7906,-1.8516,0.0,0.0,0.0,0.0,0.0,0.0,0.0,-1.9793,-1.99,-2.0488,-2.0694,-2.0751,-2.0949,-2.1648,-2.2383,-2.2383,-2.2592,-2.2981,-2.3609,0.0,0.0,-2.453,-2.4252,-2.4187,-2.5439,-2.5927,-2.6239,-2.6646,0.0,0.0,0.0,0.0,0.0,0.0,0.0,0.0,0.0,0.0,0.0,0.0,0.0,0.0,0.0,0.0,0.0,0.0,0.0,0.0,0.0,0.0,0.0,0.0,0.0,-2.9616,-2.9616,-2.9616,-2.956,-2.9626,-2.9626,-2.9626,-2.9626,-2.9626,-2.9626,-2.9626,-2.9626,-2.9626,-2.9626,-2.9626,-2.9626,-2.956,-2.956,-2.9287,-2.8916,0.0,0.0,0.0,0.0,0.0,0.0,0.0,0.0,0.0,0.0,0.0,0.0,0.0,0.0,0.0,0.0,0.0,0.0,-1.0586,-1.0807,-1.0965,-1.0996,-1.1247,-1.1404,-1.1435,-1.1778,-1.2117,-1.2424,-1.252,-1.2994,-1.3825,-1.4171,-1.4473,-1.4789,-1.544,-1.5902,-1.6196,-1.6674,-1.7108,-1.7505,-1.7779,-1.8076,-1.8371,0.0,0.0,0.0,0.0,0.0,0.0,0.0,0.0,0.0,-2.0132,-2.0534,-2.0878,-2.0822,-2.1313,-2.1865,-2.1565,-2.2482,0.0,-2.3162,0.0,0.0,0.0,-2.4822,0.0,0.0,-2.6389,-2.6567,-2.6705,0.0,0.0,0.0,0.0,0.0,0.0,0.0,0.0,0.0,0.0,0.0,0.0,0.0,0.0,0.0,0.0,0.0,0.0,0.0,0.0,0.0,0.0,0.0,0.0,0.0,0.0,-2.8672,-2.8672,-2.8994,-2.9626,-2.9626,-2.9626,-2.9626,-2.9626,-2.9626,-2.9626,-2.9626,-2.9626,-2.9626,-2.9626,-2.9385,-2.9111,-2.9111,-2.8848,-2.8476,0.0,0.0,0.0,0.0,0.0,0.0,0.0,0.0,0.0,0.0,-0.987,-0.99,0.0,0.0,0.0,0.0,0.0,0.0,0.0,0.0,-1.1153,-1.1279,-1.1498,-1.1685,-1.1872,-1.2027,-1.2515,-1.3429,-1.3115,-1.3566,-1.4663,-1.4849,-1.5125,-1.5474,-1.6059,-1.6338,-1.6458,-1.6961,-1.7314,-1.7539,-1.7769,-1.813,-1.8542,0.0,0.0,0.0,0.0,0.0,0.0,0.0,0.0,0.0,-1.9659,-1.9994,-2.0288,-2.0027,-2.0782,-2.1651,-2.145,-2.2587,0.0,-2.3931,-2.4312,-2.4769,-2.5041,0.0,0.0,0.0,0.0,0.0,0.0,0.0,0.0,0.0,0.0,0.0,0.0,0.0,0.0,0.0,0.0,0.0,0.0,0.0,0.0,0.0,0.0,0.0,0.0,0.0,0.0,0.0,0.0,0.0,0.0,0.0,0.0,0.0,-2.8291,-2.8564,-2.9062,-2.9062,-2.9062,-2.9062,-2.9062,-2.9062,-2.9062,-2.9062,-2.9062,-2.9062,-2.9062,-2.8896,-2.8672,-2.8672,-2.8506,-2.8291,0.0,0.0,0.0,0.0,0.0,0.0,0.0,0.0,0.0,0.0,-1.0618,-1.0776,0.0,0.0,0.0,0.0,0.0,0.0,0.0,0.0,-1.131,-1.1591,-1.1654,-1.1872,-1.2336,-1.2243,-1.2862,-1.4239,-1.3526,-1.4098,-1.5788,-1.5549,-1.573,-1.6307,-1.6542,-1.6638,-1.6638,-1.7063,-1.7314,-1.7505,-1.7691,-1.8178,-1.8839,-1.8598,0.0,0.0,0.0,0.0,0.0,0.0,0.0,0.0,-1.9262,-1.9318,-1.923,-1.8919,-2.0155,-2.1632,-2.1726,-2.2761,0.0,-2.5204,-2.5134,0.0,-2.5547,-2.5693,-2.5937,0.0,0.0,0.0,0.0,0.0,0.0,0.0,0.0,0.0,0.0,0.0,0.0,0.0,0.0,0.0,0.0,0.0,0.0,0.0,0.0,0.0,0.0,0.0,0.0,0.0,0.0,0.0,0.0,0.0,0.0,0.0,0.0,-2.8291,-2.8291,-2.8291,-2.8291,-2.8291,-2.8291,-2.8291,-2.8291,-2.8291,-2.8291,-2.8291,-2.8291,-2.8291,-2.8291,-2.8291,-2.8291,-2.8291,0.0,0.0,0.0,0.0,0.0,0.0,0.0,0.0,0.0,0.0,0.0,0.0,0.0,0.0,0.0,0.0,0.0,0.0,0.0,0.0,-1.1677,-1.174,-1.2027,-1.2336,-1.2683,-1.2971,-1.3613,-1.4584,-1.4163,-1.458,-1.5797,-1.6149,-1.6323,-1.6307,-1.6691,-1.683,-1.6864,-1.7254,-1.7461,-1.7539,-1.7803,-1.8193,-1.8578,-1.8522,-1.9026,0.0,0.0,0.0,0.0,0.0,0.0,0.0,-1.9356,-1.9318,-1.9283,-1.9225,-1.9997,-2.0883,-2.0759,-2.2205,0.0,0.0,-2.4824,-2.5498,-2.5645,-2.5693,0.0,0.0,0.0,0.0,0.0,0.0,0.0,0.0,0.0,0.0,0.0,0.0,0.0,0.0,0.0,0.0,0.0,0.0,0.0,0.0,0.0,0.0,0.0,0.0,0.0,0.0,0.0,0.0,0.0,0.0,0.0,0.0,-2.8291,-2.8291,-2.8291,-2.8291,-2.8291,-2.8291,-2.8291,-2.8291,-2.8291,-2.8291,-2.8291,-2.8291,-2.8291,-2.8291,-2.8291,-2.8291,-2.8291,-2.8291,0.0,0.0,0.0,0.0,0.0,0.0,0.0,0.0,0.0,0.0,0.0,0.0,0.0,0.0,0.0,0.0,0.0,0.0,0.0,0.0,0.0,-1.2027,-1.2305,-1.256,-1.2805,-1.3271,-1.388,-1.4706,-1.4887,-1.5376,-1.6202,-1.6377,-1.6508,-1.6586,-1.6804,-1.6934,-1.7072,-1.7358,-1.7662,-1.7948,-1.8172,-1.8625,-1.9181,-1.9159,-1.95,-1.9996,-2.0056,0.0,0.0,0.0,0.0,0.0,0.0,0.0,-1.9775,-1.9503,-2.0306,-2.1166,-2.088,0.0,0.0,-2.4091,0.0,-2.5538,-2.5684,-2.5693,0.0,0.0,0.0,0.0,0.0,0.0,0.0,0.0,0.0,0.0,0.0,0.0,0.0,0.0,0.0,0.0,0.0,0.0,0.0,0.0,0.0,0.0,0.0,0.0,0.0,0.0,0.0,0.0,-2.8291,-2.8291,-2.8291,-2.8291,-2.8291,-2.8291,-2.8291,-2.8291,-2.8291,-2.8291,-2.8291,-2.8291,-2.8291,-2.8291,-2.8291,-2.8291,-2.8291,-2.8291,-2.8291,-2.8291,-2.8291,-2.8291,0.0,0.0,0.0,0.0,0.0,0.0,0.0,0.0,0.0,0.0,0.0,0.0,0.0,0.0,0.0,0.0,0.0,0.0,0.0,0.0,0.0,-1.2336,-1.2615,-1.2802,-1.2956,-1.3585,-1.4201,-1.4875,-1.5558,-1.6151,-1.6647,-1.6482,-1.6551,-1.6839,-1.6874,-1.7003,-1.721,-1.7502,-1.7922,-1.8434,-1.8624,-1.917,-1.9887,-1.9919,-2.0136,-2.0489,-2.0585,-2.0416,-2.0175,-2.0524,0.0,0.0,0.0,0.0,-2.0313,-1.9888,-2.0739,-2.1735,-2.1446,0.0,-2.3678,-2.4522,-2.4948,0.0,-2.5616,0.0,0.0,0.0,0.0,0.0,0.0,0.0,0.0,0.0,0.0,0.0,0.0,0.0,0.0,0.0,0.0,0.0,0.0,0.0,0.0,0.0,0.0,0.0,0.0,0.0,0.0,0.0,0.0,0.0,-2.8291,-2.8291,-2.8291,-2.8291,-2.8291,-2.8291,-2.8291,-2.8291,-2.8291,-2.8291,-2.8291,-2.8291,-2.8291,-2.8291,-2.8291,-2.8291,-2.8291,-2.8291,-2.8291,-2.8291,-2.8291,-2.8291,0.0,0.0,0.0,0.0,0.0,0.0,0.0,0.0,0.0,0.0,0.0,0.0,0.0,0.0,0.0,0.0,0.0,0.0,-1.2096,0.0,0.0,-1.256,-1.3034,-1.3354,-1.3504,-1.4545,-1.5263,-1.5643,-1.6041,-1.6437,-1.6864,-1.683,-1.676,-1.6638,-1.683,-1.7003,-1.7229,-1.7804,-1.818,-1.8453,-1.899,-1.9495,-1.9895,-1.9917,-2.0622,-2.159,-2.1604,-2.2059,-2.2575,-2.1869,-2.158,0.0,0.0,0.0,0.0,-2.0303,-2.0994,-2.1779,0.0,0.0,-2.3599,0.0,-2.4717,-2.4967,0.0,0.0,0.0,0.0,0.0,0.0,0.0,0.0,0.0,0.0,0.0,0.0,0.0,0.0,0.0,0.0,0.0,0.0,0.0,0.0,0.0,0.0,0.0,0.0,0.0,0.0,0.0,0.0,0.0,0.0,-2.8291,-2.8291,-2.8291,-2.8291,-2.8291,-2.8291,-2.8291,-2.8291,-2.8291,-2.8291,-2.8291,-2.8291,-2.8291,-2.8291,-2.8291,-2.8291,-2.8291,-2.8291,-2.8291,-2.8291,-2.8291,-2.8291,0.0,0.0,0.0,0.0,0.0,0.0,0.0,0.0,0.0,0.0,0.0,0.0,0.0,0.0,0.0,-1.2182,-1.2151,-1.212,-1.2212,-1.2641,-1.2971,-1.3034,-1.3662,-1.407,-1.4208,-1.5107,-1.5698,-1.5968,-1.6432,-1.6735,-1.6908,-1.6908,-1.6839,-1.6795,-1.6968,-1.7297,-1.7741,-1.8116,-1.8649,-1.9275,-1.9533,-1.961,-1.9695,-2.0363,-2.0798,-2.1131,-2.1912,-2.2381,-2.2621,-2.2596,-2.2408,-2.2118,-2.1714,0.0,0.0,0.0,-2.1841,-2.2372,-2.2377,-2.2397,-2.2575,0.0,-2.3512,-2.3749,0.0,0.0,0.0,0.0,0.0,0.0,0.0,0.0,0.0,0.0,0.0,0.0,0.0,0.0,0.0,0.0,0.0,0.0,0.0,0.0,0.0,0.0,0.0,0.0,0.0,-2.8291,-2.8291,-2.8291,-2.8291,0.0,-2.8291,-2.8291,-2.8291,-2.8291,-2.8291,-2.8291,-2.8291,-2.8291,-2.8291,-2.8291,-2.8291,-2.8291,-2.8291,-2.8291,-2.8291,-2.8291,-2.8291,-2.8291,-2.8291,-2.8291,-2.8291,-2.8291,0.0,0.0,0.0,0.0,0.0,0.0,0.0,0.0,0.0,0.0,0.0,0.0,0.0,0.0,0.0,0.0,-1.2531,-1.2531,-1.2625,-1.318,-1.3558,-1.359,-1.4304,-1.4762,-1.4886,-1.5636,-1.6077,-1.6222,-1.6693,-1.6908,-1.6908,-1.7009,-1.709,-1.7134,-1.7299,-1.7699,-1.8273,-1.8586,-1.9172,-1.9894,-1.9803,-1.9655,-1.9548,-2.0261,-2.0376,-2.0346,-2.1774,-2.2241,-2.2301,-2.3114,-2.3092,-2.2742,-2.2708,-2.2627,0.0,0.0,0.0,0.0,0.0,0.0,-2.2262,-2.2756,-2.2888,-2.3181,0.0,0.0,0.0,0.0,0.0,0.0,0.0,0.0,0.0,0.0,0.0,0.0,0.0,0.0,0.0,0.0,0.0,0.0,0.0,0.0,0.0,0.0,0.0,0.0,0.0,-2.8291,-2.8291,-2.8291,-2.8291,-2.8291,-2.8291,-2.8291,-2.8291,-2.8291,-2.8291,-2.8291,-2.8291,-2.8291,-2.8291,-2.8291,-2.8291,-2.8291,-2.8291,-2.8291,-2.8291,-2.8291,-2.8291,-2.8291,-2.8291,-2.8291,-2.8291,-2.8291,0.0,0.0,0.0,0.0,0.0,0.0,0.0,0.0,0.0,0.0,0.0,0.0,-1.3027,-1.3194,-1.3353,-1.3529,-1.3529,-1.3529,-1.3529,-1.3751,-1.3974,-1.4148,-1.4866,0.0,-1.5468,-1.6197,-1.6576,-1.6576,-1.6786,-1.6908,-1.6917,-1.7293,-1.7584,-1.7737,-1.7772,-1.8095,-1.8719,-1.9361,-1.9742,-1.9867,-1.9543,-1.9539,-1.9593,-1.8896,-1.9005,-1.9721,-2.1185,-2.1877,-2.2205,-2.3436,-2.369,-2.3421,-2.3206,-2.2981,-2.2768,0.0,0.0,0.0,0.0,-2.3557,0.0,-2.3413,0.0,0.0,0.0,0.0,0.0,0.0,0.0,0.0,0.0,0.0,0.0,0.0,0.0,0.0,0.0,0.0,0.0,0.0,0.0,0.0,0.0,0.0,0.0,0.0,0.0,0.0,-2.8291,-2.8291,-2.8291,-2.8291,-2.8291,-2.8291,-2.8291,-2.8291,-2.8291,-2.8291,-2.8291,-2.8291,-2.8291,-2.8291,-2.8291,-2.8291,-2.8291,-2.8291,-2.8291,-2.8291,-2.8291,-2.8291,-2.8291,-2.8291,-2.8291,-2.8291,-2.8291,-2.8291,0.0,0.0,0.0,0.0,0.0,0.0,0.0,0.0,0.0,0.0,0.0,0.0,0.0,-1.3357,-1.3449,-1.3584,-1.3618,-1.3618,-1.3618,-1.4111,-1.4486,-1.4681,-1.542,-1.5922,-1.6215,-1.6462,-1.6799,-1.7169,-1.7249,-1.7422,-1.7651,-1.7834,-1.8147,-1.8564,-1.845,-1.8747,-1.9343,-1.9675,0.0,0.0,0.0,-1.914,-1.8795,-1.9145,0.0,0.0,0.0,0.0,0.0,-2.277,-2.3483,-2.405,-2.3389,-2.3122,-2.3029,-2.2862,-2.313,0.0,0.0,0.0,0.0,-2.3144,-2.3015,0.0,0.0,0.0,0.0,0.0,0.0,0.0,0.0,0.0,0.0,0.0,0.0,0.0,0.0,0.0,0.0,0.0,0.0,0.0,0.0,0.0,0.0,0.0,0.0,0.0,-2.8291,-2.8291,-2.8291,-2.8291,-2.8291,-2.8291,-2.8291,-2.8291,-2.8291,-2.8291,-2.8291,-2.8291,-2.8291,-2.8291,-2.8291,-2.8291,-2.8291,-2.8291,-2.8291,-2.8291,-2.8291,-2.8291,-2.8291,-2.8291,-2.8291,-2.8291,-2.8291,-2.8291,0.0,0.0,0.0,0.0,0.0,0.0,0.0,0.0,0.0,-1.3676,0.0,0.0,0.0,0.0,-1.3855,-1.401,-1.4104,-1.4138,-1.4138,-1.4657,-1.5124,-1.5408,-1.6052,-1.6599,-1.7,-1.708,-1.7288,-1.7706,-1.7706,-1.7853,-1.8091,-1.8219,-1.8571,-1.9126,-1.9279,-1.9631,0.0,0.0,0.0,-2.0702,0.0,0.0,-1.8845,0.0,0.0,0.0,0.0,0.0,0.0,0.0,0.0,-2.2906,-2.2816,-2.2853,-2.2924,-2.268,-2.2919,-2.3318,-2.3371,0.0,0.0,0.0,0.0,0.0,0.0,0.0,0.0,0.0,0.0,0.0,0.0,0.0,0.0,0.0,0.0,0.0,0.0,0.0,0.0,0.0,0.0,0.0,0.0,0.0,0.0,0.0,0.0,0.0,-2.8281,-2.8291,-2.8291,-2.8291,-2.8291,-2.8291,-2.8291,-2.8291,-2.8291,-2.8291,-2.8291,-2.8291,-2.8291,-2.8291,-2.8291,-2.8291,-2.8291,-2.8291,-2.8291,-2.8291,-2.8291,-2.8291,-2.8291,-2.8291,-2.8291,-2.8291,-2.8291,-2.8291,0.0,0.0,0.0,0.0,0.0,0.0,0.0,0.0,-1.4042,-1.435,0.0,0.0,0.0,0.0,0.0,-1.4896,-1.5139,-1.5237,-1.5237,-1.5424,-1.5762,-1.63,-1.6763,-1.7241,-1.7794,-1.797,-1.8091,-1.8109,-1.81,-1.8109,-1.8127,-1.8512,-1.8934,-1.9373,-2.0216,-2.0747,-2.093,0.0,-2.0859,-2.1038,0.0,-1.8896,-1.9786,0.0,0.0,0.0,-1.96,-1.9608,0.0,-1.9971,0.0,0.0,0.0,-2.2221,-2.2438,-2.2264,-2.2542,-2.2956,0.0,0.0,0.0,0.0,0.0,0.0,0.0,0.0,0.0,0.0,0.0,0.0,0.0,0.0,0.0,0.0,0.0,0.0,0.0,0.0,0.0,0.0,0.0,0.0,0.0,0.0,0.0,0.0,0.0,0.0,-2.8232,-2.8271,-2.8271,-2.8271,-2.8281,-2.8291,-2.8291,-2.8291,-2.8291,-2.8291,-2.8291,-2.8291,-2.8291,-2.8291,-2.8291,-2.8291,-2.8291,-2.8291,-2.8291,-2.8291,-2.8291,-2.8291,-2.8291,-2.8291,-2.8291,-2.8291,-2.8291,-2.8291,0.0,0.0,0.0,0.0,0.0,0.0,-1.4098,-1.4213,-1.4316,0.0,0.0,0.0,-1.4533,-1.4972,-1.5376,-1.5681,-1.5876,-1.6018,-1.6018,-1.6175,-1.6421,-1.671,-1.6868,-1.7145,-1.7587,-1.7634,-1.789,-1.833,-1.8473,-1.8696,-1.8981,-1.9091,-1.9539,-2.0245,-2.0472,-2.1081,-2.1836,-2.1617,0.0,-2.1523,-1.9445,-1.8751,0.0,0.0,0.0,0.0,0.0,-1.8207,-1.9372,0.0,-2.0135,-2.2702,0.0,-2.2182,-2.1773,-2.2031,-2.2457,-2.2924,-2.3313,0.0,0.0,0.0,0.0,0.0,0.0,0.0,0.0,0.0,0.0,0.0,0.0,0.0,0.0,0.0,0.0,0.0,0.0,0.0,0.0,0.0,0.0,0.0,0.0,0.0,0.0,0.0,0.0,-2.7246,-2.7363,-2.7666,-2.7894,-2.7894,-2.8135,-2.8291,-2.8291,-2.8291,-2.8291,-2.8291,-2.8291,-2.8291,-2.8291,-2.8291,-2.8291,-2.8291,-2.8291,-2.8291,-2.8291,-2.8291,-2.8291,-2.8291,-2.8291,-2.8291,-2.8291,-2.8291,-2.8291,-2.8291,0.0,0.0,0.0,0.0,0.0,-1.4036,-1.4353,-1.4514,-1.4689,0.0,0.0,0.0,-1.5189,-1.5671,-1.6025,-1.6239,-1.6446,-1.656,-1.656,-1.6674,-1.6864,-1.7141,-1.7303,-1.7572,-1.7884,-1.8047,-1.827,-1.8512,-1.862,-1.8897,-1.9268,-1.9348,-1.9819,-2.0553,0.0,0.0,0.0,0.0,0.0,0.0,-1.9441,0.0,0.0,-1.7356,-1.6665,0.0,0.0,0.0,-1.8372,-1.694,-1.8862,0.0,0.0,0.0,0.0,0.0,-2.2194,-2.2621,-2.2997,-2.3622,-2.4196,0.0,0.0,0.0,0.0,-2.2741,0.0,0.0,0.0,0.0,0.0,0.0,0.0,0.0,0.0,0.0,0.0,0.0,0.0,0.0,0.0,0.0,0.0,0.0,0.0,0.0,-2.6495,-2.6725,-2.7012,-2.7256,-2.7393,-2.7393,-2.7637,-2.7764,-2.7764,-2.7939,-2.8027,-2.8027,-2.8203,-2.8291,-2.8291,-2.8291,-2.8291,-2.8291,-2.8291,-2.8291,-2.8291,-2.8291,-2.8291,-2.8291,-2.8291,-2.8291,-2.8291,-2.8291,-2.8291,-2.8291,0.0,0.0,0.0,-1.3806,-1.4017,-1.4235,-1.4462,-1.4772,-1.505,0.0,-1.5491,-1.5774,-1.6015,-1.6398,-1.6644,-1.6686,-1.6886,-1.7009,-1.7009,-1.7009,-1.7192,-1.7557,-1.7878,-1.8162,-1.8353,-1.8763,-1.8843,-1.866,-1.8736,-1.8972,-1.925,-1.9542,-2.0025,-2.0646,0.0,0.0,0.0,0.0,0.0,-2.1753,-1.9409,-1.9135,0.0,0.0,-1.7446,0.0,-1.7034,-1.6908,-1.7102,-1.6231,-1.725,0.0,0.0,0.0,0.0,0.0,-2.1777,-2.2138,-2.2456,-2.3165,-2.3797,0.0,0.0,0.0,-2.2407,-2.2062,0.0,0.0,0.0,0.0,0.0,0.0,0.0,0.0,0.0,0.0,0.0,0.0,0.0,0.0,0.0,0.0,0.0,0.0,0.0,-2.5252,-2.5591,-2.6004,-2.6592,-2.6812,-2.6943,-2.6943,-2.6992,-2.7012,-2.7012,-2.7402,-2.7598,-2.765,-2.7969,-2.8154,-2.8154,-2.8203,-2.8223,-2.8223,-2.8271,-2.8291,-2.8291,-2.8291,-2.8291,-2.8291,-2.8291,-2.8291,-2.8291,-2.8291,-2.8291,-2.8291,-1.3163,0.0,-1.3653,-1.4112,-1.4365,-1.4673,-1.5148,-1.5249,-1.5365,-1.5586,-1.5672,-1.5824,-1.611,-1.6583,-1.6934,-1.7233,-1.7578,-1.7777,-1.7777,-1.7777,-1.7812,-1.788,-1.7969,-1.8043,-1.808,-1.8362,-1.8523,-1.8442,-1.9115,-1.9466,-1.9547,-2.008,-2.0697,-2.1299,0.0,0.0,0.0,0.0,0.0,-2.0578,-2.065,0.0,-1.8873,-1.7424,-1.6203,-1.5181,-1.5146,-1.594,-1.7134,0.0,-1.8118,-1.7669,0.0,0.0,0.0,0.0,0.0,0.0,0.0,0.0,0.0,0.0,0.0,0.0,-2.3767,-2.3041,0.0,0.0,0.0,0.0,0.0,0.0,0.0,0.0,0.0,0.0,0.0,0.0,0.0,0.0,0.0,0.0,0.0,0.0,0.0,-2.3709,-2.4017,-2.4203,-2.4326,-2.5741,-2.6514,-2.6514,-2.6836,-2.7012,-2.7012,-2.71,-2.7139,-2.7148,-2.7226,-2.7266,-2.7275,-2.7627,-2.7836,-2.7865,-2.8144,-2.8291,-2.8291,-2.8291,-2.8291,-2.8291,-2.8291,-2.8291,-2.8291,-2.8291,-2.8291,-2.8291,-1.3627,-1.4005,-1.4366,-1.4645,-1.4866,-1.511,-1.5504,-1.5607,-1.5709,-1.5897,-1.6213,-1.6468,-1.6645,-1.7031,-1.7386,-1.7529,-1.7838,-1.8,-1.8,-1.791,-1.791,-1.8,-1.8,-1.808,-1.8201,-1.8513,-1.865,-1.865,-1.9232,-1.964,-1.9853,-2.0382,-2.034,-1.9809,-2.1031,0.0,0.0,0.0,-2.1722,-2.1069,-2.0042,0.0,-1.7485,-1.6109,-1.5045,-1.4298,-1.4442,-1.5153,-1.6183,-1.7296,-1.7801,0.0,0.0,-1.9245,-1.9781,0.0,-2.1122,-2.1275,0.0,0.0,0.0,-2.345,0.0,0.0,0.0,-2.258,0.0,0.0,0.0,0.0,0.0,0.0,0.0,0.0,0.0,0.0,0.0,0.0,0.0,0.0,0.0,0.0,0.0,0.0,-2.3003,-2.3859,-2.4007,-2.3899,-2.3543,-2.5022,-2.5601,-2.5076,-2.5902,-2.6327,-2.6327,-2.6592,-2.6699,-2.6709,-2.6914,-2.7012,-2.7021,-2.7236,-2.7344,-2.7353,-2.7559,-2.7773,-2.7978,-2.7978,-2.8105,-2.8291,-2.8291,-2.8291,-2.8291,-2.8291,-2.8291,-2.8291,-1.408,-1.4606,-1.5017,-1.5047,-1.5249,-1.5529,-1.585,-1.5983,-1.6179,-1.6451,-1.6566,-1.664,-1.664,-1.6617,-1.656,-1.656,-1.6767,-1.7072,-1.7516,-1.7433,-1.7433,-1.7606,-1.8041,-1.8164,-1.7966,-1.8619,-1.8967,-1.8967,-1.9468,-1.9869,-2.0184,-2.0685,-2.0119,0.0,-2.0503,0.0,0.0,0.0,0.0,-2.1123,0.0,-1.7693,-1.7066,-1.5643,-1.4939,-1.4714,-1.4624,-1.4897,-1.5435,-1.6095,0.0,-1.8792,-1.8341,-1.9031,0.0,0.0,0.0,0.0,0.0,0.0,0.0,0.0,0.0,-2.3309,0.0,0.0,0.0,0.0,0.0,0.0,0.0,0.0,0.0,0.0,0.0,0.0,0.0,0.0,0.0,0.0,0.0,0.0,0.0,0.0,0.0,-2.3153,-2.371,-2.3601,-2.2626,-2.385,-2.4205,-2.3335,-2.4412,-2.503,-2.503,-2.5412,-2.5643,-2.5643,-2.5977,-2.6139,-2.6139,-2.6216,-2.6254,-2.6254,-2.6554,-2.6898,-2.7278,-2.7575,-2.7756,-2.7844,-2.8208,-2.8291,-2.8291,-2.8291,-2.8291,-2.8291,-1.4205,-1.4457,-1.4788,-1.4918,-1.529,-1.5809,-1.6415,-1.6649,-1.6993,-1.7556,-1.6075,-1.4957,-1.4957,-1.3513,-1.2563,-1.2563,-1.2725,0.0,-1.5828,0.0,-1.606,-1.6286,-1.8094,-1.8222,-1.6416,-1.822,-1.9153,-1.9153,-2.0008,-2.0403,-2.0456,-2.1069,-2.1204,0.0,-2.013,0.0,0.0,0.0,-1.9513,0.0,-1.8126,-1.8718,0.0,-1.8388,-1.7276,-1.6281,-1.5868,-1.5914,-1.6371,0.0,-1.8125,-1.8517,0.0,-1.9741,-1.8531,0.0,0.0,0.0,0.0,0.0,0.0,0.0,-2.3624,0.0,0.0,0.0,0.0,0.0,0.0,0.0,0.0,0.0,0.0,0.0,0.0,0.0,0.0,0.0,0.0,0.0,0.0,0.0,0.0,0.0,0.0,0.0,-2.0829,-2.1634,-2.0084,-2.1347,-2.2055,-2.1954,-2.2324,-2.2492,-2.2492,-2.2787,-2.2955,-2.2963,-2.2998,-2.3024,-2.3033,-2.3364,-2.3512,-2.3642,-2.5006,-2.5622,-2.5748,-2.7135,-2.7099,-2.6308,-2.7762,-2.8291,-2.8291,-2.8291,-2.8291,-2.8291,-1.4734,-1.5006,-1.5294,-1.5353,-1.5902,-1.6456,-1.675,-1.713,-1.7518,-1.7747,-1.7033,-1.6484,0.0,0.0,0.0,0.0,0.0,-1.4479,0.0,0.0,-1.6257,-1.7845,-1.8586,-1.8672,-1.8097,-1.9011,-1.9548,-1.9722,-2.0315,-2.0642,-2.0597,-2.098,-2.0475,0.0,-1.9422,0.0,-1.8349,0.0,0.0,0.0,0.0,0.0,0.0,-1.7282,-1.6051,-1.5738,-1.5658,-1.5752,-1.5954,0.0,-1.8121,0.0,0.0,0.0,0.0,0.0,0.0,0.0,0.0,0.0,0.0,0.0,0.0,0.0,-2.3596,0.0,-2.4013,0.0,0.0,0.0,0.0,0.0,0.0,0.0,0.0,0.0,0.0,0.0,0.0,0.0,0.0,0.0,0.0,0.0,0.0,0.0,0.0,-2.0802,-1.9428,-2.0708,-2.1159,-2.0487,-2.1355,-2.1862,-2.1862,-2.1963,-2.2123,-2.2291,-2.2291,-2.2341,-2.2492,-2.2646,-2.2766,-2.2783,-2.3456,-2.3863,-2.4136,-2.4772,-2.501,-2.5067,-2.572,-2.6478,-2.7241,-2.7241,-2.7682,-2.8291,-1.5241,-1.5587,-1.5883,-1.5799,0.0,0.0,0.0,0.0,0.0,0.0,0.0,0.0,-1.7212,-1.6334,0.0,0.0,-1.3117,-1.3197,0.0,0.0,-1.5365,0.0,0.0,0.0,0.0,-1.9046,-1.9764,-1.9942,-2.0298,-2.0518,-2.0609,-2.0736,-1.9951,0.0,0.0,-1.8518,-1.699,0.0,0.0,-1.8939,-1.82,-1.8356,-1.8707,-1.6338,-1.5343,-1.5273,-1.5595,-1.5723,-1.5825,-1.6591,-1.8082,0.0,-1.8125,0.0,0.0,0.0,0.0,0.0,-2.178,0.0,0.0,0.0,0.0,0.0,0.0,0.0,0.0,0.0,0.0,0.0,0.0,0.0,0.0,-2.3797,0.0,0.0,0.0,0.0,0.0,0.0,0.0,0.0,0.0,0.0,0.0,0.0,-2.0425,0.0,-1.8812,-1.9746,-1.9893,-1.9072,-2.0135,-2.0692,-2.0692,-2.0743,-2.0904,-2.1073,-2.1183,-2.1285,-2.1371,-2.1532,-2.1582,-2.1532,-2.1887,-2.2232,-2.2535,-2.2946,-2.3261,-2.3513,-2.3715,-2.4459,-2.5429,-2.5873,-2.6572,-2.7286,-1.5522,-1.6029,-1.6294,0.0,0.0,0.0,0.0,0.0,0.0,0.0,0.0,0.0,0.0,0.0,0.0,0.0,0.0,-0.7641,-0.9962,0.0,-1.231,0.0,0.0,-1.7695,0.0,0.0,0.0,-1.9617,-1.9837,-2.0065,-2.0292,-2.0337,-2.0419,-2.0555,0.0,-1.9147,-1.9055,-1.8311,-1.7519,-1.6711,-1.6676,-1.6245,-1.578,0.0,-1.6536,-1.5569,-1.61,0.0,0.0,-1.7843,-1.821,0.0,0.0,0.0,0.0,0.0,0.0,0.0,0.0,0.0,0.0,-2.3903,0.0,0.0,0.0,0.0,-2.3253,0.0,0.0,0.0,0.0,-2.3319,-2.358,-2.3754,-2.3616,0.0,0.0,0.0,0.0,0.0,0.0,0.0,0.0,0.0,0.0,0.0,-1.9261,0.0,-1.772,-1.7687,-1.7687,-1.7687,-1.7957,-1.8122,-1.8122,-1.837,-1.8527,-1.852,-1.8862,-1.8855,-1.8572,-1.916,-1.9279,-1.9078,-2.0388,-2.0944,-2.1078,-2.2535,-2.2497,-2.1565,-2.2296,-2.2568,-2.2781,-2.4204,-2.4774,-2.4837,-1.5456,-1.6042,-1.6422,0.0,0.0,0.0,0.0,-1.8656,0.0,0.0,0.0,0.0,0.0,0.0,-1.1258,0.0,0.0,-0.9148,-1.0091,-1.2053,0.0,0.0,0.0,-1.8319,0.0,0.0,0.0,0.0,0.0,0.0,0.0,-1.9891,-2.0027,0.0,0.0,-1.8018,0.0,0.0,0.0,0.0,0.0,-1.5257,-1.5909,0.0,0.0,-1.5771,-1.5968,-1.6051,0.0,-1.6789,-1.7555,-1.8217,-1.8021,-1.8756,-1.9534,-1.8731,-1.8793,0.0,0.0,0.0,-1.9441,-2.1921,0.0,0.0,0.0,0.0,0.0,0.0,0.0,0.0,0.0,-2.3242,-2.3503,-2.359,-2.3564,-2.3686,0.0,0.0,0.0,0.0,0.0,0.0,0.0,0.0,0.0,-1.8353,-1.8146,0.0,0.0,-1.7475,-1.7582,-1.7582,-1.7694,-1.7747,-1.7747,-1.7845,-1.7957,-1.8115,-1.8233,-1.8331,-1.8422,-1.8639,-1.8639,-1.8586,-1.9042,-1.9354,-1.9643,-2.0104,-2.0331,-2.037,-2.0814,-2.1123,-2.1461,-2.3007,-2.4069,-2.4727,-1.5852,0.0,0.0,0.0,0.0,0.0,0.0,0.0,0.0,0.0,-1.6061,0.0,-1.3217,0.0,-1.1359,0.0,-0.9216,-0.9213,-1.0174,-1.1378,0.0,-1.245,-1.556,0.0,0.0,0.0,0.0,0.0,0.0,-1.963,0.0,0.0,0.0,0.0,0.0,0.0,0.0,0.0,-1.4225,0.0,0.0,-1.3587,0.0,0.0,-1.4471,0.0,0.0,-1.5891,-1.5945,-1.6105,-1.6776,-1.7384,-1.667,-1.764,-1.8822,-1.7477,-1.7778,-1.8534,-1.8542,-1.8136,0.0,0.0,-2.0079,0.0,-2.2017,0.0,0.0,0.0,0.0,0.0,0.0,0.0,-2.3368,-2.2913,-2.3173,-2.349,0.0,-2.3329,0.0,0.0,0.0,0.0,0.0,0.0,-1.8555,-1.8095,-1.7658,-1.736,0.0,0.0,-1.7475,-1.7582,-1.7582,-1.7582,-1.7582,-1.7582,-1.7694,-1.7859,-1.7964,-1.8069,-1.8108,-1.8318,-1.837,-1.8272,-1.837,-1.8534,-1.8705,-1.8705,-1.8924,-1.935,-1.9722,-2.0095,-2.054,-2.1869,-2.2805,-2.3463,0.0,0.0,0.0,0.0,-1.7102,0.0,0.0,0.0,-1.8553,0.0,-1.6145,-1.5231,-1.296,-1.0936,-0.9763,-0.9763,-0.7973,0.0,-0.9916,-0.9964,0.0,0.0,-1.1923,-1.2021,-0.9944,0.0,0.0,0.0,0.0,0.0,0.0,0.0,0.0,0.0,-2.0164,0.0,-1.5923,-1.6117,-1.4524,-1.1771,-1.0929,-1.1328,-1.2304,-1.116,0.0,-1.7667,-1.6305,-1.5832,-1.5832,-1.5891,-1.5891,-1.5891,-1.5891,-1.5891,-1.5891,-1.5891,-1.6105,-1.653,-1.7621,-1.8087,-1.8589,-1.9966,0.0,0.0,0.0,0.0,-2.0343,0.0,0.0,0.0,0.0,0.0,-2.3051,-2.1935,-2.2572,-2.3099,-2.2768,-2.2441,0.0,0.0,0.0,0.0,0.0,-2.0287,-1.9541,-1.7957,-1.7786,-1.7618,0.0,0.0,0.0,-1.7549,-1.7575,-1.7582,-1.7582,-1.7582,-1.7582,-1.7582,-1.7859,-1.7859,-1.7635,-1.8108,-1.822,-1.7964,-1.8272,-1.837,-1.837,-1.837,-1.837,-1.845,-1.9046,-1.9528,-1.9933,-2.0856,-2.1211,-2.1211,-1.6909,-1.7263,-1.7513,0.0,-1.81,-1.8491,0.0,0.0,0.0,0.0,-1.2675,-1.0962,-0.8923,-0.8281,-0.7961,-0.7961,-0.7559,0.0,0.0,0.0,0.0,-0.8029,-1.1206,-1.2093,-1.0075,-1.4242,0.0,-1.6374,0.0,0.0,-2.0071,0.0,0.0,0.0,0.0,0.0,-1.4832,-1.4973,-1.2977,-0.9698,-0.9464,-1.066,0.0,0.0,-1.2645,-1.5317,-1.484,-1.4654,-1.4761,-1.5618,-1.5891,-1.5891,-1.5891,-1.5891,-1.5891,-1.5891,-1.5945,-1.6051,-1.6365,-1.6465,-1.6929,-1.8516,-1.8246,-1.8028,0.0,0.0,0.0,0.0,0.0,0.0,0.0,0.0,0.0,-2.2637,-2.3014,-2.2887,-2.1963,0.0,0.0,0.0,0.0,0.0,0.0,0.0,-1.8837,-1.8551,-1.7933,0.0,0.0,0.0,0.0,-1.73,-1.7521,-1.7582,-1.7582,-1.7582,-1.7582,-1.7582,-1.7687,-1.7687,-1.7582,-1.774,-1.7793,-1.7694,-1.7793,-1.7898,-1.8122,-1.8122,-1.822,-1.8457,-1.8826,-1.9493,-2.0242,-2.0936,-2.1211,-2.1211,-1.7221,0.0,0.0,-1.8411,0.0,0.0,-1.7823,0.0,0.0,-1.3877,-1.2461,0.0,-0.8977,-0.7956,-0.7415,-0.7415,-0.7478,0.0,0.0,0.0,0.0,-0.8772,-0.9899,-0.9965,-0.8876,-1.2149,0.0,-1.5357,0.0,0.0,-2.0287,0.0,0.0,0.0,0.0,-1.8588,0.0,-1.4276,-1.2351,-1.028,-0.9316,0.0,0.0,-1.0178,-1.0824,-1.2104,-1.2516,-1.2965,-1.3511,-1.4153,-1.4696,-1.5137,-1.5137,-1.5512,-1.5891,-1.5891,-1.5891,-1.5891,-1.5891,-1.5891,-1.6152,-1.7074,-1.6938,-1.6912,-1.8267,-1.8299,-1.8027,0.0,0.0,0.0,0.0,0.0,0.0,-2.2819,-2.2774,-2.2342,0.0,0.0,0.0,0.0,0.0,0.0,0.0,0.0,0.0,0.0,0.0,0.0,0.0,0.0,0.0,0.0,-1.7615,-1.7582,-1.7582,-1.7582,-1.7582,-1.7582,-1.7582,-1.7582,-1.7582,-1.7582,-1.7582,-1.7582,-1.7582,-1.7694,-1.7852,-1.7852,-1.7905,-1.809,-1.8559,-1.9185,-1.9982,-2.0415,-2.073,-2.1024,0.0,0.0,0.0,0.0,0.0,0.0,0.0,-1.7637,0.0,-1.4003,0.0,-1.2298,-1.0583,-0.866,-0.7543,-0.7543,0.0,-0.842,-1.0451,-0.8687,-0.8396,-1.0257,-0.8401,-0.7288,-0.7237,-0.9449,0.0,0.0,0.0,0.0,0.0,0.0,0.0,0.0,0.0,0.0,0.0,-1.3815,-1.2149,0.0,-0.9691,-0.8885,-0.8885,-0.8885,-0.8885,-0.9047,-1.0076,-1.1219,-1.22,-1.2358,-1.3073,-1.4002,-1.4164,-1.4869,-1.5731,-1.5838,-1.5891,-1.5891,-1.5891,-1.5891,-1.5891,-1.5891,-1.5891,-1.6137,-1.7028,-1.7219,-1.7219,-1.7219,-1.806,0.0,0.0,0.0,0.0,-2.2422,0.0,0.0,0.0,0.0,0.0,0.0,0.0,0.0,0.0,0.0,0.0,0.0,0.0,0.0,0.0,0.0,0.0,0.0,-1.7743,0.0,-1.7582,0.0,-1.7582,-1.7582,-1.7582,-1.7582,-1.7582,-1.7582,-1.7582,-1.7582,-1.7582,-1.7582,-1.7582,-1.7582,-1.7582,-1.7668,-1.8245,-1.8816,-1.9388,-1.964,-2.0111,-2.0608,0.0,0.0,0.0,0.0,0.0,-1.609,-1.4244,-1.3083,-1.2114,-1.1211,-0.9627,0.0,-0.8113,-0.7828,-0.7668,-0.7668,-0.7755,0.0,0.0,0.0,0.0,-0.8061,-0.7557,-0.7269,-0.7304,-0.9452,-1.1589,0.0,0.0,0.0,-2.0471,-2.0638,0.0,0.0,0.0,0.0,-1.5557,-1.3258,0.0,-0.9478,-0.9044,-0.8885,-0.8885,-0.8885,-0.8885,-0.8937,-0.9154,-0.997,-1.1164,-1.2087,-1.2526,-1.2906,-1.3894,-1.4331,-1.4708,-1.5618,-1.5891,-1.5891,-1.5891,-1.5891,-1.5891,-1.5891,-1.5891,-1.5933,-1.6143,-1.6184,-1.6184,-1.6184,-1.6346,-1.6683,-1.7246,0.0,0.0,0.0,0.0,0.0,0.0,0.0,0.0,0.0,0.0,0.0,0.0,0.0,0.0,0.0,0.0,0.0,0.0,0.0,0.0,0.0,0.0,0.0,0.0,0.0,0.0,-1.7582,-1.7582,-1.7582,-1.7582,-1.7582,-1.7582,-1.7582,-1.7582,-1.7582,-1.7582,-1.7582,-1.7582,-1.7609,-1.7976,-1.8435,-1.9009,-1.9367,-1.967,-1.9982,0.0,0.0,0.0,0.0,0.0,0.0,0.0,-1.0375,0.0,-1.059,-0.9815,-0.9232,-0.9342,-0.842,-0.7788,-0.7788,-0.7839,-0.7847,-0.7793,-0.7788,-0.7736,-0.7619,-0.7557,0.0,-0.7432,-0.837,-1.0485,-1.3687,0.0,0.0,-2.0514,-2.0758,0.0,0.0,0.0,-1.8282,0.0,0.0,0.0,-1.0546,-0.9368,-0.8885,-0.8885,-0.8885,-0.8885,-0.8885,-0.8885,-0.9265,-0.986,-1.0406,-1.1004,-1.1596,-1.22,-1.3236,-1.4331,-1.4869,-1.5458,-1.5891,-1.5891,-1.5891,-1.5891,-1.5891,-1.5891,-1.5891,-1.5891,-1.5891,-1.5891,-1.5891,-1.5891,-1.6318,-1.7647,-1.8587,0.0,0.0,0.0,0.0,0.0,0.0,0.0,0.0,0.0,0.0,0.0,0.0,0.0,0.0,0.0,0.0,0.0,0.0,0.0,0.0,0.0,0.0,0.0,0.0,0.0,-1.7582,-1.7582,-1.7582,-1.7582,-1.7582,-1.7582,-1.7582,-1.7582,-1.7582,-1.7582,-1.7582,-1.7582,-1.7595,-1.7749,-1.8137,-1.8719,-1.8867,-1.9205,-1.9649,0.0,-1.6768,0.0,0.0,-1.3668,0.0,0.0,-0.9013,-0.8346,-1.0139,-1.0178,-1.0202,-1.0428,-0.8883,-0.7872,-0.7872,-0.7872,-0.7872,-0.7872,-0.7872,-0.7831,-0.7741,-0.7714,-0.7657,-0.7559,-0.7437,-0.9204,0.0,0.0,0.0,0.0,-2.0395,0.0,0.0,0.0,0.0,0.0,0.0,-1.2045,-1.1402,-0.964,-0.8885,-0.8885,-0.8885,-0.8885,-0.8885,-0.8885,-0.8885,-0.8885,-0.8885,-0.9533,-1.0347,-1.0617,-1.1982,-1.3511,-1.3727,-1.4428,-1.5185,-1.5458,-1.5512,-1.5618,-1.5838,-1.5891,-1.5891,-1.5891,-1.5891,-1.5891,-1.5891,-1.5891,-1.6318,-1.7742,-1.8137,0.0,0.0,0.0,0.0,0.0,0.0,0.0,0.0,0.0,0.0,0.0,0.0,0.0,0.0,0.0,0.0,0.0,0.0,0.0,0.0,0.0,0.0,-1.7939,0.0,-1.7582,0.0,-1.7582,-1.7582,-1.7582,-1.7582,-1.7582,-1.7582,-1.7582,-1.7582,-1.7582,-1.7582,-1.7582,-1.7582,-1.7582,-1.7916,-1.8404,-1.847,-1.8824,-1.9394,0.0,0.0,0.0,0.0,0.0,0.0,0.0,-0.9093,-0.7972,-0.8138,-0.8146,-0.8155,-0.8216,-0.8044,-0.7872,-0.7872,-0.7872,-0.7872,-0.7872,-0.7872,-0.7867,-0.7856,-0.7758,-0.7695,-0.7684,-0.7565,-0.8523,0.0,0.0,0.0,0.0,0.0,0.0,0.0,0.0,0.0,0.0,-1.2346,-1.1084,-0.9206,-0.8992,-0.8885,-0.8885,-0.8885,-0.8885,-0.8885,-0.8885,-0.8885,-0.8885,-0.8885,-0.8992,-0.9265,-1.0347,-1.0836,-1.1219,-1.2254,-1.2635,-1.296,-1.4056,-1.4385,-1.46,-1.5624,-1.5891,-1.5891,-1.5891,-1.5891,-1.5891,-1.5891,-1.5891,-1.6271,-1.75,-1.686,-1.6529,0.0,0.0,0.0,0.0,0.0,0.0,0.0,0.0,0.0,0.0,0.0,0.0,0.0,0.0,0.0,0.0,0.0,0.0,0.0,0.0,-1.885,-1.9121,-1.8106,0.0,-1.7582,-1.7582,-1.7582,-1.7582,-1.7582,-1.7582,-1.7582,-1.7582,-1.7582,-1.7582,-1.7582,-1.7582,-1.7582,-1.7582,-1.7789,-1.8069,-1.839,-1.8691,-1.9005,0.0,0.0,0.0,0.0,0.0,0.0,0.0,-0.8381,-0.7872,-0.7872,-0.7872,-0.7872,-0.7872,-0.7872,-0.7872,-0.7872,-0.7872,-0.7872,-0.7872,-0.7872,-0.7872,-0.7872,-0.7828,-0.7804,-0.7804,-0.769,-0.8589,0.0,0.0,0.0,0.0,0.0,0.0,0.0,0.0,-1.295,-1.1394,-1.0601,-0.9746,-0.8885,-0.8885,-0.8885,-0.8885,-0.8885,-0.8885,-0.8885,-0.8885,-0.8885,-0.8885,-0.8885,-0.8885,-0.8992,-0.9482,-1.0131,-1.0781,-1.1269,-1.1873,-1.2526,-1.2965,-1.3127,-1.3398,-1.4595,-1.4869,-1.5083,-1.5731,-1.5891,-1.5891,-1.5891,-1.5891,-1.6062,-1.6518,-1.6801,-1.6899,0.0,0.0,0.0,0.0,0.0,0.0,0.0,0.0,0.0,0.0,0.0,0.0,0.0,0.0,0.0,0.0,0.0,0.0,-1.8411,0.0,-1.7732,-1.8041,-1.7741,-1.7582,-1.7582,-1.7582,-1.7582,-1.7582,-1.7582,-1.7582,-1.7582,-1.7582,-1.7582,-1.7582,-1.7582,-1.7582,-1.7582,-1.7582,-1.7769,-1.8029,-1.8384,-1.8677,-1.8965,-0.8854,0.0,-0.942,0.0,-0.9421,-0.914,-0.8085,-0.7872,-0.7872,-0.7872,-0.7872,-0.7872,-0.7872,-0.7872,-0.7872,-0.7872,-0.7872,-0.7872,-0.7872,-0.7872,-0.7872,-0.7872,-0.7872,0.0,-0.7872,-0.7793,-0.8441,-0.9808,-1.185,0.0,0.0,0.0,0.0,0.0,-1.1344,-1.0651,-1.0112,-0.9203,-0.8826,-0.8885,-0.8885,-0.8885,-0.8885,-0.8885,-0.8885,-0.8885,-0.8885,-0.8885,-0.8885,-0.8885,-0.8885,-0.8885,-0.8885,-0.9482,-1.0186,-1.0186,-1.0731,-1.1437,-1.1814,-1.1928,-1.22,-1.3344,-1.3673,-1.3889,-1.4696,-1.4857,-1.4857,-1.4857,-1.5131,-1.5405,-1.5405,-1.6388,-1.6938,0.0,0.0,0.0,0.0,0.0,0.0,0.0,0.0,0.0,0.0,0.0,0.0,0.0,0.0,0.0,0.0,0.0,0.0,0.0,0.0,0.0,0.0,0.0,-1.7582,-1.7582,-1.7582,-1.7582,-1.7582,-1.7582,-1.7582,-1.7582,-1.7582,-1.7582,-1.7582,-1.7582,-1.7582,-1.7582,-1.7582,-1.7716,-1.7902,-1.835,-1.8617,-1.8851,-0.7887,-0.7727,-0.7613,-0.7881,-0.7928,-0.7928,-0.7933,-0.7872,-0.7872,-0.7872,-0.7872,-0.7872,-0.7872,-0.7872,-0.7872,-0.7872,-0.7872,-0.7872,-0.7872,-0.7872,-0.7872,0.0,0.0,-0.7872,-0.7872,-0.7869,-0.7873,-0.776,0.0,0.0,-1.0507,0.0,0.0,-1.0249,-1.0479,-0.9673,-0.8045,-0.8377,-0.8654,-0.8885,-0.8885,-0.8885,-0.8885,-0.8885,-0.8885,-0.8885,-0.8885,-0.8885,-0.8885,-0.8885,-0.8885,-0.8885,-0.8885,-0.8885,-0.8937,-0.8937,-0.8937,-0.921,-1.0402,-1.0726,-1.1,-1.2141,-1.2417,-1.2413,-1.2417,-1.2417,-1.2417,-1.2417,-1.3398,-1.4218,-1.4218,-1.5131,-1.5992,-1.6271,0.0,0.0,0.0,0.0,0.0,0.0,0.0,0.0,0.0,0.0,0.0,0.0,0.0,0.0,0.0,0.0,0.0,-1.8497,-1.8981,0.0,-1.9278,-1.8144,-1.7582,-1.7582,-1.7582,-1.7582,-1.7582,-1.7582,-1.7582,-1.7582,-1.7582,-1.7582,-1.7582,-1.7582,-1.7582,-1.7582,-1.7582,-1.7589,-1.7662,-1.827,-1.8497,-1.8577,-0.3713,-0.4495,-0.5343,-0.6385,-0.7317,-0.7872,-0.7872,-0.7872,-0.7872,-0.7872,-0.7872,-0.7872,-0.7872,0.0,-0.7872,0.0,-0.7872,-0.7872,0.0,-0.7872,-0.7872,-0.7872,-0.7872,-0.7872,-0.7872,-0.7872,-0.7853,-0.7818,0.0,0.0,0.0,-1.1007,-1.0206,-0.8217,-0.8461,-0.826,-0.7771,-0.8045,-0.8322,-0.8654,-0.8654,-0.8712,-0.8885,-0.8885,-0.8885,-0.8885,-0.8885,-0.8885,-0.8885,-0.8885,-0.8885,-0.8885,-0.8885,-0.8885,-0.8885,-0.8885,-0.8885,-0.8992,-0.9372,-0.9482,-0.9754,-1.0945,-1.1214,-1.1433,-1.2195,-1.2417,-1.2417,-1.2417,-1.3349,-1.4223,-1.4223,-1.5137,-1.5945,-1.5998,0.0,0.0,0.0,0.0,0.0,0.0,0.0,0.0,0.0,0.0,0.0,0.0,0.0,0.0,0.0,0.0,0.0,0.0,-1.8175,0.0,-1.7895,-1.7689,-1.7582,-1.7582,-1.7582,-1.7582,-1.7582,-1.7582,-1.7582,-1.7582,-1.7582,-1.7582,-1.7582,-1.7582,-1.7582,-1.7582,-1.7582,-1.7582,-1.7655,-1.8263,-1.849,-1.8577,-0.1727,-0.2648,-0.3754,-0.56,-0.6582,-0.7319,-0.7811,-0.7872,-0.7872,-0.7872,-0.7872,-0.7872,-0.7872,-0.7872,0.0,-0.7872,-0.7872,0.0,-0.7872,-0.7872,-0.7872,-0.7872,-0.7872,-0.7872,-0.7872,0.0,0.0,-0.7872,-0.8998,-0.9527,-0.9429,-0.9333,-0.8644,-0.7399,-0.7449,-0.7561,-0.767,-0.7791,-0.8045,-0.8322,-0.8429,-0.8598,-0.8768,-0.8881,-0.8885,-0.8885,-0.8885,-0.8885,-0.8885,-0.8885,-0.8885,-0.8885,-0.8885,-0.8885,-0.8885,-0.8885,-0.8885,-0.8885,-0.8885,-0.8885,-0.9103,-0.986,-1.0021,-1.0186,-1.0895,-1.1114,-1.1114,-1.1114,-1.2363,-1.3511,-1.3511,-1.4804,-1.5891,-1.5891,0.0,0.0,0.0,0.0,0.0,0.0,0.0,0.0,0.0,-1.521,0.0,0.0,0.0,0.0,0.0,0.0,0.0,-1.8039,-1.7609,0.0,-1.7367,-1.7548,-1.7582,-1.7582,-1.7582,-1.7582,-1.7582,-1.7582,-1.7582,-1.7582,-1.7582,-1.7582,-1.7582,-1.7582,-1.7582,-1.7582,-1.7582,-1.7582,-1.7655,-1.8263,-1.849,-1.8577,-0.1603,-0.1911,0.0,0.0,-0.5845,0.0,-0.7686,-0.7872,-0.7872,-0.7872,-0.7872,-0.7872,-0.7872,-0.7872,-0.7872,-0.7872,0.0,0.0,0.0,-0.7872,-0.7872,-0.7872,-0.7872,0.0,-0.7872,-0.7872,-0.7872,-0.7872,-0.7766,-0.7712,-0.7709,-0.7589,-0.7532,-0.7527,-0.7347,-0.7461,-0.7795,-0.7626,-0.7741,-0.8017,-0.8337,-0.8497,-0.8553,-0.8771,-0.8881,-0.8885,-0.8885,-0.8885,-0.8885,-0.8885,-0.8885,-0.8885,-0.8885,-0.8885,-0.8885,-0.8885,-0.8885,-0.8885,-0.8885,-0.8885,-0.8885,-0.8885,-0.8885,-0.8885,-0.8885,-0.8885,-0.8885,-0.8885,-1.0676,-1.2309,-1.2309,-1.4148,-1.5672,-1.5785,-1.4809,-1.4487,-1.5618,0.0,0.0,0.0,0.0,0.0,0.0,-1.604,-1.628,0.0,0.0,0.0,0.0,0.0,0.0,-1.6762,-1.7291,-1.7582,-1.7582,-1.7582,-1.7582,-1.7582,-1.7582,-1.7582,-1.7582,-1.7582,-1.7582,-1.7582,-1.7582,-1.7582,-1.7582,-1.7582,-1.7582,-1.7582,-1.7582,-1.7582,-1.7655,-1.8263,-1.849,-1.8577,0.0,0.0,-0.2526,-0.4122,-0.5228,-0.6335,-0.7686,-0.7872,-0.7872,-0.7872,-0.7872,-0.7872,-0.7872,-0.7872,-0.7872,-0.7872,-0.7872,-0.7872,-0.7872,-0.7872,-0.7872,-0.7872,-0.7872,-0.7872,-0.7872,-0.7872,-0.7872,-0.7872,-0.7845,-0.7831,-0.7828,-0.7712,-0.7657,-0.7652,-0.7529,-0.7475,-0.7588,-0.7561,-0.7723,-0.7999,-0.7953,-0.8251,-0.8639,-0.8585,-0.8712,-0.8885,-0.8885,-0.8885,-0.8885,-0.8885,-0.8885,-0.8885,-0.8885,-0.8885,-0.8885,-0.8885,-0.8885,-0.8885,-0.8885,-0.8885,-0.8885,-0.8885,-0.8885,-0.8885,-0.8885,-0.8885,-0.8885,-0.8885,-1.0076,-1.1109,-1.1109,-1.225,-1.3555,-1.4433,-1.3614,-1.3236,-1.4433,0.0,0.0,0.0,-1.3048,-1.2997,-1.2505,-1.3523,-1.4591,0.0,0.0,0.0,0.0,0.0,-1.7865,-1.7114,-1.7246,-1.7378,-1.7582,-1.7582,-1.7582,-1.7582,-1.7582,-1.7582,-1.7582,-1.7582,-1.7582,-1.7582,-1.7582,-1.7582,-1.7582,-1.7582,-1.7582,-1.7582,-1.7582,-1.7582,-1.7655,-1.8263,-1.849,-1.8577,0.0,-0.0555,-0.148,-0.2833,-0.3633,-0.4739,-0.6705,-0.7011,-0.7194,-0.7811,-0.7872,-0.7872,-0.7872,-0.7872,-0.7872,-0.7872,-0.7872,-0.7872,-0.7872,-0.7872,-0.7872,-0.7872,-0.7872,-0.7872,-0.7872,-0.7872,-0.7872,-0.7872,-0.7872,-0.7872,-0.7869,-0.7807,-0.778,-0.7774,-0.7655,-0.7603,-0.76,-0.7543,-0.7577,-0.7802,-0.7847,-0.8105,-0.838,-0.8357,-0.8476,-0.8581,-0.868,-0.8712,-0.8712,-0.8881,-0.8885,-0.8881,-0.8768,-0.8826,-0.8881,-0.8768,-0.8826,-0.8885,-0.8885,-0.8885,-0.8885,-0.8885,-0.8885,-0.8885,-0.8885,-0.8885,-0.8885,-0.8885,-0.986,-1.0726,-1.0726,-1.1651,-1.2635,-1.329,-1.3039,-1.2916,-1.3313,-1.3034,0.0,-1.1541,-1.1872,-1.1933,-1.1234,-1.2231,-1.3488,-1.4873,0.0,0.0,-1.6827,-1.7003,-1.6984,-1.6802,-1.7073,-1.7279,-1.743,-1.7529,-1.7582,-1.7582,-1.7582,-1.7582,-1.7582,-1.7582,-1.7582,-1.7582,-1.7582,-1.7582,-1.7582,-1.7582,-1.7582,-1.7582,-1.7582,-1.7669,-1.7849,-1.8317,-1.8577,-1.8758,0.0,0.0,-0.0432,-0.1788,-0.1973,-0.2834,-0.523,-0.5784,-0.6335,-0.7441,-0.7747,-0.7872,-0.7872,-0.7872,-0.7872,-0.7872,-0.7872,-0.7872,-0.7872,-0.7872,-0.7872,-0.7872,-0.7872,-0.7872,-0.7872,-0.7872,-0.7872,-0.7872,-0.7872,-0.7872,-0.7872,-0.7872,-0.7872,-0.7867,-0.7771,-0.7728,-0.772,-0.7616,-0.7573,-0.757,-0.7844,-0.7953,-0.8052,-0.8136,-0.8193,-0.8231,-0.8372,-0.8429,-0.8432,-0.8716,-0.8771,-0.8716,-0.8488,-0.8602,-0.8771,-0.8543,-0.8712,-0.8885,-0.8885,-0.8885,-0.8885,-0.8885,-0.8885,-0.8885,-0.8885,-0.8885,-0.8885,-0.8885,-0.9699,-1.0457,-1.0457,-1.1219,-1.2023,-1.2528,-1.2638,-1.2628,-1.2632,0.0,-1.2073,-1.0577,-1.1273,-1.1492,-1.0511,-1.1487,-1.2635,-1.384,-1.411,0.0,0.0,-1.5891,-1.5998,-1.6217,-1.6802,-1.7126,-1.7179,-1.7483,-1.7582,-1.7582,-1.7582,-1.7582,-1.7582,-1.7582,-1.7582,-1.7582,-1.7582,-1.7582,-1.7582,-1.7582,-1.7582,-1.7589,-1.7629,-1.7816,-1.8035,-1.843,-1.8711,-1.8965,0.0,0.0,-0.0432,-0.1788,-0.1973,-0.2526,-0.3999,-0.5168,-0.5968,-0.6213,-0.7194,-0.7872,-0.7872,-0.7872,-0.7872,-0.7872,-0.7872,-0.7872,-0.7872,-0.7872,-0.7872,-0.7872,-0.7872,-0.7872,-0.7872,-0.7872,-0.7872,-0.7872,-0.7872,-0.7872,-0.7872,-0.7872,-0.7872,-0.7869,-0.7853,-0.7845,-0.7842,-0.7823,-0.7815,-0.7807,-0.7771,-0.7909,-0.8059,-0.7936,-0.8019,-0.8174,-0.8094,-0.81,-0.81,-0.81,-0.8156,-0.8156,-0.81,-0.8322,-0.8543,-0.8484,-0.8712,-0.8885,-0.8885,-0.8885,-0.8885,-0.8885,-0.8885,-0.8885,-0.8885,-0.8885,-0.8885,-0.8885,-0.9047,-0.9154,-0.9154,-0.932,-1.0346,-1.3193,-1.1362,-1.0546,0.0,0.0,-0.9475,-0.9203,-0.932,-0.9375,-0.921,-1.0241,-1.1437,-1.258,-1.3619,-1.4708,-1.5838,-1.5891,-1.5945,-1.5945,-1.6271,-1.6696,-1.7179,-1.7483,-1.7582,-1.7582,-1.7582,-1.7582,-1.7582,-1.7582,-1.7582,-1.7582,-1.7582,-1.7582,-1.7582,-1.7582,-1.7582,-1.7609,-1.7869,-1.7949,-1.8055,-1.8657,-1.8885,-1.8965,0.0,0.0,-0.0185,-0.0802,-0.0925,-0.1357,-0.2648,-0.3387,-0.4063,-0.4737,-0.5965,-0.6827,-0.6827,-0.7441,-0.7872,-0.7872,-0.7872,-0.7872,-0.7872,-0.7872,-0.7872,-0.7872,-0.7872,-0.7872,-0.7872,-0.7872,-0.7872,-0.7872,-0.7872,-0.7872,-0.7872,-0.7872,-0.7872,-0.7872,-0.7872,-0.7872,-0.7872,-0.7872,-0.7872,-0.7867,-0.7815,-0.7854,-0.7944,-0.7758,-0.7723,-0.7815,-0.7788,-0.7771,-0.7826,-0.7934,-0.7989,-0.7989,-0.7826,-0.81,-0.8484,-0.8263,-0.8546,-0.8885,-0.8885,-0.8885,-0.8885,-0.8885,-0.8885,-0.8885,-0.8885,-0.8885,-0.8885,-0.8885,-0.8885,-0.8885,-0.8885,-0.8885,-0.9402,-1.0974,-1.07,0.0,0.0,-1.07,-0.9961,-0.9027,-0.8885,-0.8885,-0.8885,-0.9427,-1.0241,-1.1383,-1.1982,-1.3127,-1.4863,-1.4976,-1.5244,-1.5891,-1.6158,-1.6483,-1.6955,-1.7054,-1.7213,-1.7378,-1.7378,-1.7483,-1.7582,-1.7582,-1.7582,-1.7582,-1.7582,-1.7582,-1.7582,-1.7582,-1.7682,-1.7849,-1.7935,-1.8189,-1.8495,-1.8824,-1.9025,-1.9185,0.0,0.0,0.0,0.0,0.0,-0.037,-0.1357,-0.1788,-0.2341,-0.3324,-0.4614,-0.5414,-0.5414,-0.6641,-0.7441,-0.7441,-0.7747,-0.7872,-0.7872,-0.7872,-0.7872,-0.7872,-0.7872,-0.7872,-0.7872,-0.7872,-0.7872,-0.7872,-0.7872,-0.7872,-0.7872,-0.7872,-0.7872,-0.7872,-0.7872,-0.7872,-0.7872,-0.7872,-0.7872,-0.7872,-0.7872,-0.7872,-0.7845,-0.7608,-0.7519,-0.7486,-0.7528,-0.7493,-0.7549,-0.7768,-0.7823,-0.7768,-0.7549,-0.7878,-0.8266,-0.7989,-0.8325,-0.8826,-0.8881,-0.8885,-0.8885,-0.8885,-0.8885,-0.8885,-0.8885,-0.8885,-0.8885,-0.8885,-0.8885,-0.8885,-0.8885,-0.8885,-0.9085,-0.9581,0.0,0.0,0.0,-1.0383,-1.0392,-0.9071,-0.8885,-0.8885,-0.8885,-0.8885,-0.9427,-1.0621,-1.0726,-1.1596,-1.3673,-1.3781,-1.4159,-1.5072,-1.5891,-1.6371,-1.663,-1.6683,-1.6842,-1.7067,-1.7067,-1.7166,-1.7371,-1.7477,-1.7536,-1.7529,-1.7582,-1.7622,-1.7689,-1.7689,-1.7876,-1.8102,-1.8169,-1.8468,-1.8931,-1.8998,-1.9172,-1.9424,0.0,0.0,0.0,0.0,0.0,-0.0062,-0.0123,-0.1172,-0.2035,-0.2157,-0.3263,-0.4059,-0.4059,-0.5228,-0.6031,-0.6031,-0.7194,-0.7872,-0.7872,-0.7872,-0.7872,-0.7872,-0.7872,-0.7872,-0.7872,-0.7872,-0.7872,-0.7872,-0.7872,-0.7872,-0.7872,-0.7872,-0.7872,-0.7872,-0.7872,-0.7872,-0.7872,-0.7872,-0.7872,-0.7872,-0.7872,-0.7872,-0.7845,-0.7608,-0.7519,-0.7486,-0.73,-0.721,-0.721,-0.7265,-0.7265,-0.7265,-0.721,-0.7435,-0.7662,-0.7662,-0.8045,-0.8598,-0.8826,-0.8885,-0.8885,-0.8885,-0.8885,-0.8885,-0.8885,-0.8885,-0.8885,-0.8885,-0.8885,-0.8885,-0.8885,-0.8885,-0.953,-1.1562,0.0,0.0,-1.1606,-1.0255,-0.902,-0.8937,-0.8885,-0.8885,-0.8885,-0.8885,-0.9427,-1.0621,-1.0726,-1.1214,-1.2472,-1.2526,-1.258,-1.2684,-1.5024,-1.6324,-1.6324,-1.6577,-1.673,-1.673,-1.673,-1.673,-1.6783,-1.7113,-1.7232,-1.7226,-1.7483,-1.7749,-1.7955,-1.7955,-1.819,-1.8484,-1.8751,-1.8885,-1.8958,-1.9232,-1.941,-1.9424,0.0,0.0,0.0,0.0,0.0,0.0,0.0,-0.0432,-0.074,-0.074,-0.191,-0.271,-0.271,-0.3877,-0.4674,-0.4674,-0.5904,-0.6644,-0.6644,-0.7441,-0.7872,-0.7872,-0.7872,-0.7872,-0.7872,-0.7872,-0.7872,-0.7872,-0.7872,-0.7872,-0.7872,-0.7872,-0.7872,-0.7872,-0.7872,-0.7872,-0.7872,-0.7872,-0.7872,-0.7867,-0.7796,-0.7766,-0.7739,-0.7497,-0.7404,-0.7383,-0.7214,-0.721,-0.721,-0.721,-0.721,-0.721,-0.721,-0.7379,-0.7607,-0.7826,-0.7989,-0.8211,-0.8325,-0.8605,-0.8885,-0.8885,-0.8885,-0.8885,-0.8885,-0.8885,-0.8885,-0.8885,-0.8885,-0.8885,-0.8885,-0.8885,-0.9185,-0.9973,0.0,-0.9185,-1.0027,-0.9435,-0.8885,-0.8885,-0.8885,-0.8885,-0.8885,-0.8885,-0.9103,-0.9533,-0.9588,-1.0076,-1.1269,-1.2032,-1.2417,-1.2417,-1.3339,-1.4261,-1.4976,-1.5779,-1.6318,-1.6477,-1.6477,-1.6524,-1.6683,-1.6981,-1.7124,-1.7184,-1.7623,-1.7924,-1.8029,-1.8207,-1.8497,-1.8771,-1.8878,-1.9038,-1.9212,-1.9325,-1.9424,-1.9424,0.0309,0.0309,0.0309,0.0309,0.0309,0.0309,0.0309,0.0309,0.0247,0.0185,-0.0617,-0.1233,-0.1357,-0.2525,-0.3324,-0.3324,-0.4492,-0.5291,-0.5291,-0.6149,-0.7008,-0.7869,-0.7872,-0.7872,-0.7872,-0.7872,-0.7872,-0.7872,-0.7872,-0.7872,-0.7872,-0.7872,-0.7872,-0.7872,-0.7872,-0.7872,-0.7872,-0.7872,-0.785,-0.7809,-0.7733,-0.7679,-0.7622,-0.7415,-0.728,-0.7263,-0.7198,-0.721,-0.721,-0.721,-0.721,-0.721,-0.721,-0.7324,-0.7493,-0.7712,-0.7823,-0.7881,-0.7881,-0.8214,-0.866,-0.8771,-0.8826,-0.8885,-0.8885,-0.8885,-0.8885,-0.8885,-0.8885,-0.8885,-0.8885,-0.8885,-0.8885,-0.8885,-0.8885,-0.8885,-0.8885,-0.8885,-0.8885,-0.8885,-0.8885,-0.8885,-0.8885,-0.8885,-0.8885,-0.8885,-0.8885,-0.9265,-1.0076,-1.0895,-1.1278,-1.1278,-1.1655,-1.2287,-1.3178,-1.4245,-1.4897,-1.5138,-1.5138,-1.5503,-1.6133,-1.6375,-1.6741,-1.7144,-1.761,-1.7912,-1.7996,-1.8226,-1.8516,-1.8772,-1.888,-1.9063,-1.9243,-1.9366,-1.9424,-1.9424,0.0988,0.0988,0.0988,0.0988,0.0988,0.0988,0.0988,0.0988,0.0864,0.0556,0.0494,0.037,0.0062,-0.1172,-0.1973,-0.1973,-0.314,-0.3875,-0.3875,-0.3875,-0.5104,-0.7747,-0.7869,-0.7872,-0.7872,-0.7872,-0.7872,-0.7872,-0.7872,-0.7872,-0.7872,-0.7872,-0.7872,-0.7872,-0.7872,-0.7872,-0.7869,-0.7869,-0.7804,-0.7701,-0.7698,-0.7625,-0.7502,-0.7323,-0.7277,-0.7317,-0.7198,-0.721,-0.721,-0.721,-0.721,-0.721,-0.721,-0.721,-0.721,-0.721,-0.7379,-0.7607,-0.7607,-0.7771,-0.81,-0.8429,-0.8712,-0.8881,-0.8881,-0.8885,-0.8885,-0.8885,-0.8885,-0.8885,-0.8885,-0.8885,-0.8885,-0.8885,-0.8885,-0.8885,-0.8885,-0.8885,-0.8885,-0.8885,-0.8885,-0.8885,-0.8885,-0.8885,-0.8885,-0.8885,-0.8885,-0.8885,-0.8885,-0.8885,-0.8885,-0.8885,-1.008,-1.0761,-1.0888,-1.1863,-1.2471,-1.2622,-1.2622,-1.3353,-1.4761,-1.5084,-1.5879,-1.708,-1.7365,-1.7635,-1.7951,-1.7951,-1.8116,-1.8415,-1.8765,-1.8881,-1.8939,-1.9243,-1.9424,-1.9424,0.0988,0.0988,0.0988,0.0988,0.0988,0.0988,0.0988,0.0988,0.0988,0.0864,0.0864,0.0803,0.0741,0.037,0.0,-0.0247,-0.1478,-0.2706,-0.3813,-0.3875,-0.4243,-0.5042,-0.5965,-0.695,-0.7869,-0.7872,-0.7872,-0.7872,-0.7872,-0.7872,-0.7872,-0.7872,-0.7872,-0.7872,-0.7872,-0.7828,-0.7752,-0.7752,-0.7684,-0.7565,-0.7478,-0.7423,-0.7377,-0.7255,-0.7209,-0.7203,-0.7224,-0.721,-0.721,-0.721,-0.721,-0.721,-0.721,-0.721,-0.721,-0.721,-0.7265,-0.7324,-0.7324,-0.7493,-0.7771,-0.81,-0.8211,-0.8325,-0.8543,-0.8598,-0.8657,-0.8881,-0.8885,-0.8885,-0.8885,-0.8885,-0.8885,-0.8885,-0.8885,-0.8885,-0.8885,-0.8885,-0.8885,-0.8885,-0.8885,-0.8885,-0.8885,-0.8885,-0.8885,-0.8885,-0.8885,-0.8885,-0.8885,-0.8885,-0.8984,-0.9086,-0.9476,-0.972,-0.9824,-1.1625,-1.2632,-1.2829,-1.2829,-1.3032,-1.3497,-1.3769,-1.4074,-1.4483,-1.4924,-1.5147,-1.5269,-1.5509,-1.5671,-1.5854,-1.6803,-1.722,-1.7337,-1.8583,-1.9062,-1.9062,0.142,0.142,0.142,0.142,0.142,0.142,0.142,0.142,0.1359,0.1235,0.1173,0.1173,0.0988,0.0988,0.0926,0.0741,-0.0062,-0.0985,-0.2094,-0.2155,-0.2463,-0.314,-0.394,-0.523,-0.7072,-0.7625,-0.7872,-0.7872,-0.7872,-0.7872,-0.7872,-0.7872,-0.7847,-0.7804,-0.7804,-0.7739,-0.763,-0.763,-0.7557,-0.744,-0.7309,-0.7307,-0.7255,-0.7237,-0.721,-0.721,-0.721,-0.721,-0.721,-0.721,-0.721,-0.721,-0.721,-0.721,-0.721,-0.721,-0.721,-0.721,-0.721,-0.7324,-0.7493,-0.7657,-0.7823,-0.8045,-0.8266,-0.8318,-0.8377,-0.8657,-0.8768,-0.8768,-0.8881,-0.8885,-0.8885,-0.8885,-0.8885,-0.8885,-0.8885,-0.8885,-0.8885,-0.8885,-0.8885,-0.8885,-0.8885,-0.8885,-0.8885,-0.8885,-0.8885,-0.8908,-0.9022,-0.9022,-0.9093,-0.9296,-0.9299,-0.9317,-0.9469,-1.0759,-1.1442,-1.1603,-1.1603,-1.1874,-1.2413,-1.2596,-1.2949,-1.349,-1.3777,-1.3949,-1.3949,-1.4133,-1.4252,-1.4312,-1.5198,-1.5553,-1.5671,-1.6797,-1.7624,-1.8163,0.1977,0.1977,0.1977,0.1977,0.1977,0.1977,0.1977,0.1977,0.1915,0.1606,0.1544,0.142,0.1111,0.1111,0.105,0.105,0.0988,0.0864,0.0556,0.0494,-0.0185,-0.1727,-0.1911,-0.3142,-0.5477,-0.695,-0.7747,-0.7747,-0.7872,-0.7872,-0.7872,-0.7861,-0.7801,-0.7701,-0.769,-0.7616,-0.7502,-0.7502,-0.7432,-0.7317,-0.7317,-0.7252,-0.721,-0.721,-0.721,-0.721,-0.721,-0.721,-0.721,-0.721,-0.721,-0.721,-0.721,-0.721,-0.721,-0.721,-0.721,-0.721,-0.721,-0.721,-0.721,-0.721,-0.7543,-0.7934,-0.7934,-0.7989,-0.8045,-0.8374,-0.8429,-0.8543,-0.8826,-0.8881,-0.8881,-0.8881,-0.8885,-0.8885,-0.8885,-0.8885,-0.8885,-0.8885,-0.8885,-0.8885,-0.8885,-0.8885,-0.8888,-0.8902,-0.8902,-0.9022,-0.9221,-0.9231,-0.9303,-0.9398,-0.9401,-0.9473,-0.9629,-0.9629,-0.9629,-0.9629,-0.9629,-1.0292,-1.1511,-1.1511,-1.223,-1.3366,-1.3366,-1.3366,-1.3366,-1.3366,-1.3366,-1.3366,-1.377,-1.3885,-1.3944,-1.4366,-1.5488,-1.6727,0.1977,0.1977,0.1977,0.1977,0.1977,0.1977,0.1977,0.1977,0.1977,0.1915,0.1915,0.1853,0.1791,0.1791,0.1667,0.142,0.1173,0.0988,0.0926,0.0617,0.0309,0.0,-0.1295,-0.2281,-0.2834,-0.5107,-0.6337,-0.6337,-0.738,-0.7872,-0.7869,-0.778,-0.7725,-0.7698,-0.7603,-0.7491,-0.7317,-0.7317,-0.7304,-0.7248,-0.7248,-0.7235,-0.721,-0.721,-0.721,-0.721,-0.721,-0.721,-0.721,-0.721,-0.721,-0.721,-0.721,-0.721,-0.721,-0.721,-0.721,-0.721,-0.721,-0.721,-0.721,-0.721,-0.7265,-0.7435,-0.766,-0.7662,-0.7771,-0.8045,-0.81,-0.8211,-0.8543,-0.8598,-0.8654,-0.8881,-0.8885,-0.8885,-0.8885,-0.8885,-0.8885,-0.8885,-0.8885,-0.8885,-0.8885,-0.8885,-0.8984,-0.9096,-0.9163,-0.9171,-0.9323,-0.9334,-0.9401,-0.9554,-0.9561,-0.9629,-0.9774,-0.9774,-0.9774,-0.9774,-0.9774,-0.9913,-1.0183,-1.0183,-1.0361,-1.066,-1.066,-1.066,-1.066,-1.066,-1.066,-1.0721,-1.1804,-1.2225,-1.2402,-1.3706,-1.4416,-1.4772,0.1977,0.1977,0.1977,0.1977,0.1977,0.1977,0.1977,0.1977,0.1977,0.1977,0.1977,0.1977,0.1977,0.1977,0.1915,0.1729,0.1606,0.142,0.1235,0.105,0.0864,0.0494,-0.037,-0.0864,-0.1049,-0.3018,-0.4309,-0.4921,-0.5657,-0.5963,-0.5961,-0.5933,-0.5868,-0.5884,-0.6315,-0.6498,-0.6458,-0.7024,-0.7214,-0.721,-0.721,-0.721,-0.721,-0.721,-0.721,-0.721,-0.721,-0.721,-0.721,-0.721,-0.721,-0.721,-0.721,-0.721,-0.721,-0.721,-0.721,-0.7224,-0.7225,-0.7241,-0.7255,-0.7315,-0.7328,-0.7355,-0.7407,-0.7438,-0.7493,-0.7771,-0.7826,-0.7881,-0.8211,-0.8266,-0.8377,-0.8657,-0.8712,-0.8768,-0.8881,-0.8885,-0.8885,-0.8885,-0.8885,-0.8964,-0.9035,-0.9106,-0.9181,-0.9313,-0.932,-0.9327,-0.9483,-0.949,-0.9557,-0.9707,-0.971,-0.9744,-0.9822,-0.9822,-0.9822,-0.9822,-0.9822,-0.9822,-0.9822,-0.9822,-0.9822,-0.9822,-0.9822,-0.9822,-0.9822,-0.9822,-0.9822,-0.9883,-1.0547,-1.0785,-1.0906,-1.1736,-1.2509,-1.3347,0.1977,0.1977,0.1977,0.1977,0.1977,0.1977,0.1977,0.1977,0.1977,0.1977,0.1977,0.1977,0.1977,0.1977,0.1977,0.1977,0.1977,0.1853,0.1606,0.1544,0.1235,0.0679,0.0617,0.0432,0.0123,-0.0987,-0.2218,-0.3569,-0.3815,-0.3869,-0.392,-0.386,-0.386,-0.3861,-0.4772,-0.5153,-0.5146,-0.6149,-0.6594,-0.6594,-0.6594,-0.6594,-0.6594,-0.6594,-0.6594,-0.6596,-0.6818,-0.6874,-0.6874,-0.6874,-0.6874,-0.6932,-0.7154,-0.721,-0.7215,-0.7235,-0.724,-0.7211,-0.7334,-0.7309,-0.7333,-0.7494,-0.7519,-0.7464,-0.7263,-0.7273,-0.7329,-0.7558,-0.7558,-0.767,-0.7947,-0.8,-0.8115,-0.8447,-0.8503,-0.8562,-0.8788,-0.8788,-0.8847,-0.8903,-0.8959,-0.9062,-0.9238,-0.9306,-0.9391,-0.9418,-0.9418,-0.9486,-0.9639,-0.9646,-0.97,-0.9819,-0.9822,-0.9822,-0.9822,-0.9822,-0.9822,-0.9822,-0.9822,-0.9822,-0.9822,-0.9822,-0.9822,-0.9822,-0.9822,-0.9822,-0.9822,-0.9822,-0.9822,-0.9822,-0.9822,-0.9822,-0.9822,-0.9822,-1.066,-1.1976,0.1977,0.1977,0.1977,0.1977,0.1977,0.1977,0.1977,0.1977,0.1977,0.1977,0.1977,0.1977,0.1977,0.1977,0.1977,0.1977,0.1977,0.1977,0.1915,0.1667,0.1482,0.1359,0.1111,0.0803,0.0432,0.0247,-0.0617,-0.2281,-0.3386,-0.391,-0.3917,-0.3859,-0.38,-0.3796,-0.3846,-0.3867,-0.386,-0.4027,-0.4083,-0.4083,-0.4083,-0.4083,-0.4083,-0.4083,-0.4083,-0.425,-0.5258,-0.565,-0.565,-0.565,-0.565,-0.5817,-0.6877,-0.721,-0.7232,-0.7279,-0.7309,-0.7336,-0.7462,-0.7494,-0.7497,-0.7513,-0.7519,-0.751,-0.7478,-0.747,-0.747,-0.7528,-0.7528,-0.7586,-0.793,-0.7988,-0.8107,-0.8341,-0.8399,-0.8454,-0.8448,-0.8454,-0.8573,-0.8862,-0.915,-0.9327,-0.9347,-0.9367,-0.9435,-0.9568,-0.9578,-0.9642,-0.9785,-0.9791,-0.9802,-0.9822,-0.9822,-0.9822,-0.9822,-0.9822,-0.9822,-0.9822,-0.9822,-0.9822,-0.9822,-0.9822,-0.9822,-0.9822,-0.9822,-0.9822,-0.9822,-0.9822,-0.9822,-0.9822,-0.9822,-0.9822,-0.9822,-0.9822,-0.994,-1.0179,0.1977,0.1977,0.1977,0.1977,0.1977,0.1977,0.1977,0.1977,0.1977,0.1977,0.1977,0.1977,0.1977,0.1977,0.1977,0.1977,0.1977,0.1977,0.1977,0.1853,0.1667,0.1482,0.1359,0.1111,0.0803,0.0617,0.0123,-0.0617,-0.1356,-0.1712,-0.1745,-0.1719,-0.1691,-0.1721,-0.2312,-0.2574,-0.2629,-0.3301,-0.358,-0.358,-0.358,-0.358,-0.358,-0.358,-0.358,-0.3692,-0.4196,-0.4419,-0.4475,-0.5146,-0.5427,-0.5603,-0.684,-0.7255,-0.7279,-0.7402,-0.7437,-0.7464,-0.7587,-0.7622,-0.7635,-0.7698,-0.7717,-0.7717,-0.7717,-0.7717,-0.7679,-0.7546,-0.7519,-0.7519,-0.7691,-0.7694,-0.7807,-0.8102,-0.816,-0.8218,-0.8393,-0.8396,-0.8457,-0.8629,-0.8984,-0.9206,-0.9206,-0.9459,-0.9656,-0.9724,-0.9727,-0.9754,-0.9819,-0.9822,-0.9822,-0.9822,-0.9822,-0.9822,-0.9822,-0.9822,-0.9822,-0.9822,-0.9822,-0.9822,-0.9822,-0.9822,-0.9822,-0.9822,-0.9822,-0.9822,-0.9822,-0.9822,-0.9822,-0.9822,-0.9822,-0.9822,-0.9822,-0.9822,-0.9822,-0.9822]}]]